[[{"header":{"parameterUnit":"m.s-1","parameterCategory":1,"la1":31.0,"la2":29.5877,"lo1":-88.7671,"lo2":-86.6584,"dx":0.0162,"dy":0.0185,"nx":115,"ny":88,"refTime":"2023-02-05T00:00:00:Z","depth":0,"parameterNumber":2,"parameterNumberName":"U-component_of_WINDS"},"data":[0.0,0.0,0.0,0.0,0.0,0.0,0.0,0.0,0.0,0.0,0.0,0.0,0.0,0.0,0.0,0.0,0.0,0.0,0.0,0.0,0.0,0.0,0.0,0.0,0.0,0.0,0.0,0.0,0.0,0.0,0.0,0.0,0.0,0.0,0.0,0.0,0.0,0.0,0.0,0.0,0.0,0.0,0.0,0.0,0.0,0.0,0.0,0.0,0.0,0.0,0.0,0.0,0.0,0.0,0.0,0.0,0.0,0.0,0.0,0.0,0.0,0.0,0.0,0.0,0.0,0.0,0.0,0.0,0.0,0.0,0.0,0.0,0.0,0.0,0.0,0.0,0.0,0.0,0.0,0.0,0.0,0.0,0.0,0.0,0.0,0.0,0.0,0.0,0.0,0.0,0.0,0.0,0.0,0.0,0.0,0.0,0.0,0.0,0.0,0.0,0.0,0.0,0.0,0.0,0.0,0.0,0.0,0.0,0.0,0.0,0.0,0.0,0.0,0.0,0.0,0.0,0.0,0.0,0.0,0.0,0.0,0.0,0.0,0.0,0.0,0.0,0.0,0.0,0.0,0.0,0.0,0.0,0.0,0.0,0.0,0.0,0.0,0.0,0.0,0.0,0.0,0.0,0.0,0.0,0.0,0.0,0.0,0.0,0.0,0.0,0.0,0.0,0.0,0.0,0.0,0.0,0.0,0.0,0.0,0.0,0.0,0.0,0.0,0.0,0.0,0.0,0.0,0.0,0.0,0.0,0.0,0.0,0.0,0.0,0.0,0.0,0.0,0.0,0.0,0.0,0.0,0.0,0.0,0.0,0.0,0.0,0.0,0.0,0.0,0.0,0.0,0.0,0.0,0.0,0.0,0.0,0.0,0.0,0.0,0.0,0.0,0.0,0.0,0.0,0.0,0.0,0.0,0.0,0.0,0.0,0.0,0.0,0.0,0.0,0.0,0.0,0.0,0.0,0.0,0.0,0.0,0.0,0.0,0.0,0.0,0.0,0.0,0.0,0.0,0.0,0.0,0.0,0.0,0.0,0.0,0.0,0.0,0.0,0.0,0.0,0.0,0.0,0.0,0.0,0.0,0.0,0.0,0.0,0.0,0.0,0.0,0.0,0.0,0.0,0.0,0.0,0.0,0.0,0.0,0.0,0.0,0.0,0.0,0.0,0.0,0.0,0.0,0.0,0.0,0.0,0.0,0.0,0.0,0.0,0.0,0.0,0.0,0.0,0.0,0.0,0.0,0.0,0.0,0.0,0.0,0.0,0.0,0.0,0.0,0.0,0.0,0.0,0.0,0.0,0.0,0.0,0.0,0.0,0.0,0.0,0.0,0.0,0.0,0.0,0.0,0.0,0.0,0.0,0.0,0.0,0.0,0.0,0.0,0.0,0.0,0.0,0.0,0.0,0.0,0.0,0.0,0.0,0.0,0.0,0.0,0.0,0.0,0.0,0.0,0.0,0.0,0.0,0.0,0.0,0.0,0.0,0.0,0.0,0.0,0.0,0.0,0.0,0.0,0.0,0.0,0.0,0.0,0.0,0.0,0.0,0.0,0.0,0.0,0.0,0.0,0.0,0.0,0.0,0.0,0.0,0.0,0.0,0.0,0.0,0.0,0.0,0.0,0.0,0.0,0.0,0.0,0.0,0.0,0.0,0.0,0.0,0.0,0.0,0.0,0.0,0.0,0.0,0.0,0.0,0.0,0.0,0.0,0.0,0.0,0.0,0.0,0.0,0.0,0.0,0.0,0.0,0.0,0.0,0.0,0.0,0.0,0.0,0.0,0.0,0.0,0.0,0.0,0.0,0.0,0.0,0.0,0.0,0.0,0.0,0.0,0.0,0.0,0.0,0.0,0.0,0.0,0.0,0.0,0.0,0.0,0.0,0.0,0.0,0.0,0.0,0.0,0.0,0.0,0.0,0.0,0.0,0.0,0.0,0.0,0.0,0.0,0.0,0.0,0.0,0.0,0.0,0.0,0.0,0.0,0.0,0.0,0.0,0.0,0.0,0.0,0.0,0.0,0.0,0.0,0.0,0.0,0.0,0.0,0.0,0.0,0.0,0.0,0.0,0.0,0.0,0.0,0.0,0.0,0.0,0.0,0.0,0.0,0.0,0.0,0.0,0.0,0.0,0.0,0.0,0.0,0.0,0.0,0.0,0.0,0.0,0.0,0.0,0.0,0.0,0.0,0.0,0.0,0.0,0.0,0.0,0.0,0.0,0.0,0.0,0.0,0.0,0.0,0.0,0.0,0.0,0.0,0.0,0.0,0.0,0.0,0.0,0.0,0.0,0.0,0.0,0.0,0.0,0.0,0.0,0.0,0.0,0.0,0.0,0.0,0.0,0.0,0.0,0.0,0.0,0.0,0.0,0.0,0.0,0.0,0.0,0.0,0.0,0.0,0.0,0.0,0.0,0.0,0.0,0.0,0.0,0.0,0.0,0.0,0.0,0.0,0.0,0.0,0.0,0.0,0.0,0.0,0.0,0.0,0.0,0.0,0.0,0.0,0.0,0.0,0.0,0.0,0.0,0.0,0.0,0.0,0.0,0.0,0.0,0.0,0.0,0.0,0.0,0.0,0.0,0.0,0.0,0.0,0.0,0.0,0.0,0.0,0.0,0.0,0.0,0.0,0.0,0.0,0.0,0.0,0.0,0.0,0.0,0.0,0.0,0.0,0.0,0.0,0.0,0.0,0.0,0.0,0.0,0.0,0.0,0.0,0.0,0.0,0.0,0.0,0.0,0.0,0.0,0.0,0.0,0.0,0.0,0.0,0.0,0.0,0.0,0.0,0.0,0.0,0.0,0.0,0.0,0.0,0.0,0.0,0.0,0.0,0.0,0.0,0.0,0.0,0.0,0.0,0.0,0.0,0.0,0.0,0.0,0.0,0.0,0.0,0.0,0.0,0.0,0.0,0.0,0.0,0.0,0.0,0.0,0.0,0.0,0.0,0.0,0.0,0.0,0.0,0.0,0.0,0.0,0.0,0.0,0.0,0.0,0.0,0.0,0.0,0.0,0.0,0.0,0.0,0.0,0.0,0.0,0.0,0.0,0.0,0.0,0.0,0.0,0.0,0.0,0.0,0.0,0.0,0.0,0.0,0.0,0.0,0.0,0.0,0.0,0.0,0.0,0.0,0.0,0.0,0.0,0.0,0.0,0.0,0.0,0.0,0.0,0.0,0.0,0.0,0.0,0.0,0.0,0.0,0.0,0.0,0.0,0.0,0.0,0.0,0.0,0.0,0.0,0.0,0.0,0.0,0.0,0.0,0.0,0.0,0.0,0.0,0.0,0.0,0.0,0.0,0.0,0.0,0.0,0.0,0.0,0.0,0.0,0.0,0.0,0.0,0.0,0.0,0.0,0.0,0.0,0.0,0.0,0.0,0.0,0.0,0.0,0.0,0.0,0.0,0.0,0.0,0.0,0.0,0.0,0.0,0.0,0.0,0.0,0.0,0.0,0.0,0.0,0.0,0.0,0.0,0.0,0.0,0.0,0.0,0.0,0.0,0.0,0.0,0.0,0.0,0.0,0.0,0.0,0.0,0.0,0.0,0.0,0.0,0.0,0.0,0.0,0.0,0.0,0.0,0.0,0.0,0.0,0.0,0.0,0.0,0.0,0.0,0.0,0.0,0.0,0.0,0.0,0.0,0.0,0.0,0.0,0.0,0.0,0.0,0.0,0.0,0.0,0.0,0.0,0.0,0.0,0.0,0.0,0.0,0.0,0.0,0.0,0.0,0.0,0.0,0.0,0.0,0.0,0.0,0.0,0.0,0.0,0.0,0.0,0.0,0.0,0.0,0.0,0.0,0.0,0.0,0.0,0.0,0.0,0.0,0.0,0.0,0.0,0.0,0.0,0.0,0.0,0.0,0.0,0.0,0.0,0.0,0.0,0.0,0.0,0.0,0.0,0.0,0.0,0.0,0.0,0.0,0.0,0.0,0.0,0.0,0.0,0.0,0.0,0.0,0.0,0.0,0.0,0.0,0.0,0.0,0.0,0.0,0.0,0.0,0.0,0.0,0.0,0.0,0.0,0.0,0.0,0.0,0.0,0.0,0.0,0.0,0.0,0.0,0.0,0.0,0.0,0.0,0.0,0.0,0.0,0.0,0.0,0.0,0.0,0.0,0.0,0.0,0.0,0.0,0.0,0.0,0.0,0.0,0.0,0.0,0.0,0.0,0.0,0.0,0.0,0.0,0.0,0.0,0.0,0.0,0.0,0.0,0.0,0.0,0.0,0.0,0.0,0.0,0.0,0.0,0.0,0.0,0.0,-1.5832,0.0,0.0,0.0,0.0,0.0,0.0,0.0,0.0,0.0,0.0,0.0,0.0,0.0,0.0,0.0,0.0,0.0,0.0,0.0,0.0,0.0,0.0,0.0,0.0,0.0,0.0,0.0,0.0,0.0,0.0,0.0,0.0,0.0,0.0,0.0,0.0,0.0,0.0,0.0,0.0,0.0,0.0,0.0,0.0,0.0,0.0,0.0,0.0,0.0,0.0,0.0,0.0,0.0,0.0,0.0,0.0,0.0,0.0,0.0,0.0,0.0,0.0,0.0,0.0,0.0,0.0,0.0,0.0,0.0,0.0,0.0,0.0,0.0,0.0,0.0,0.0,0.0,0.0,0.0,0.0,0.0,0.0,0.0,0.0,0.0,0.0,0.0,0.0,0.0,0.0,0.0,0.0,0.0,0.0,0.0,0.0,0.0,0.0,0.0,0.0,0.0,0.0,0.0,0.0,0.0,0.0,0.0,0.0,0.0,0.0,-1.5832,-1.5832,-1.5832,-1.5832,-1.5832,0.0,0.0,0.0,0.0,0.0,0.0,0.0,0.0,0.0,0.0,0.0,0.0,0.0,0.0,0.0,0.0,0.0,0.0,0.0,0.0,0.0,0.0,0.0,0.0,0.0,0.0,0.0,0.0,0.0,0.0,0.0,0.0,0.0,0.0,0.0,0.0,0.0,0.0,0.0,0.0,0.0,0.0,0.0,0.0,0.0,0.0,0.0,0.0,0.0,0.0,0.0,0.0,0.0,0.0,0.0,0.0,0.0,0.0,0.0,0.0,0.0,0.0,0.0,0.0,0.0,0.0,0.0,0.0,0.0,0.0,0.0,0.0,0.0,0.0,0.0,0.0,0.0,0.0,0.0,0.0,0.0,0.0,0.0,0.0,0.0,0.0,0.0,0.0,0.0,0.0,0.0,0.0,0.0,0.0,0.0,0.0,0.0,0.0,0.0,0.0,0.0,0.0,0.0,0.0,0.0,0.0,0.0,0.0,0.0,0.0,0.0,0.0,-1.5832,-1.5832,-1.5832,0.0,0.0,0.0,0.0,0.0,0.0,0.0,0.0,0.0,0.0,0.0,0.0,0.0,0.0,0.0,0.0,0.0,0.0,0.0,0.0,0.0,0.0,0.0,0.0,0.0,0.0,0.0,0.0,0.0,0.0,0.0,0.0,0.0,0.0,0.0,0.0,0.0,0.0,0.0,0.0,0.0,0.0,0.0,0.0,0.0,0.0,0.0,0.0,0.0,0.0,0.0,0.0,0.0,0.0,0.0,0.0,0.0,0.0,0.0,0.0,0.0,0.0,0.0,0.0,0.0,0.0,0.0,0.0,0.0,0.0,0.0,0.0,0.0,0.0,0.0,0.0,0.0,0.0,0.0,0.0,0.0,0.0,0.0,0.0,0.0,0.0,0.0,0.0,0.0,0.0,0.0,0.0,0.0,0.0,0.0,0.0,0.0,0.0,0.0,0.0,0.0,0.0,0.0,0.0,0.0,0.0,0.0,0.0,0.0,0.0,-1.5832,-1.5832,-1.5832,0.0,-1.5832,0.0,0.0,0.0,0.0,0.0,0.0,0.0,0.0,0.0,0.0,0.0,0.0,0.0,0.0,0.0,0.0,0.0,0.0,0.0,0.0,0.0,0.0,0.0,0.0,0.0,0.0,0.0,0.0,0.0,0.0,0.0,0.0,0.0,0.0,0.0,0.0,0.0,0.0,0.0,0.0,0.0,0.0,0.0,0.0,0.0,0.0,0.0,0.0,0.0,0.0,0.0,0.0,0.0,0.0,0.0,0.0,0.0,0.0,0.0,0.0,0.0,0.0,0.0,0.0,0.0,0.0,0.0,0.0,0.0,0.0,0.0,0.0,0.0,0.0,0.0,0.0,0.0,0.0,0.0,0.0,0.0,0.0,0.0,0.0,0.0,0.0,0.0,0.0,0.0,0.0,0.0,0.0,0.0,0.0,0.0,0.0,0.0,0.0,0.0,0.0,0.0,0.0,0.0,0.0,0.0,0.0,0.0,0.0,0.0,0.0,-1.5832,-1.5832,-1.5832,-1.5832,0.0,0.0,0.0,0.0,0.0,0.0,0.0,0.0,0.0,0.0,0.0,0.0,0.0,0.0,0.0,0.0,0.0,0.0,0.0,0.0,0.0,0.0,0.0,0.0,0.0,0.0,0.0,0.0,0.0,0.0,0.0,0.0,0.0,0.0,0.0,0.0,0.0,0.0,0.0,0.0,0.0,0.0,0.0,0.0,0.0,0.0,0.0,0.0,0.0,0.0,0.0,0.0,0.0,0.0,0.0,0.0,0.0,0.0,0.0,0.0,0.0,0.0,0.0,0.0,0.0,0.0,0.0,0.0,0.0,0.0,0.0,0.0,0.0,0.0,0.0,0.0,0.0,0.0,0.0,0.0,0.0,0.0,0.0,0.0,0.0,0.0,0.0,0.0,0.0,0.0,0.0,0.0,0.0,0.0,0.0,0.0,0.0,0.0,0.0,0.0,0.0,0.0,0.0,0.0,0.0,0.0,0.0,0.0,0.0,0.0,-1.5832,-1.5832,-1.5832,-1.5832,-1.5832,-1.5832,0.0,0.0,0.0,0.0,0.0,0.0,0.0,0.0,0.0,0.0,0.0,0.0,0.0,0.0,0.0,0.0,0.0,0.0,0.0,0.0,0.0,0.0,0.0,0.0,0.0,0.0,0.0,0.0,0.0,0.0,0.0,0.0,0.0,0.0,0.0,0.0,0.0,0.0,0.0,0.0,0.0,0.0,0.0,0.0,0.0,0.0,0.0,0.0,0.0,0.0,0.0,0.0,0.0,0.0,0.0,0.0,0.0,0.0,0.0,0.0,0.0,0.0,0.0,0.0,0.0,0.0,0.0,0.0,0.0,0.0,0.0,0.0,0.0,0.0,0.0,0.0,0.0,0.0,0.0,0.0,0.0,0.0,0.0,0.0,0.0,0.0,0.0,0.0,0.0,0.0,0.0,0.0,0.0,0.0,0.0,0.0,0.0,0.0,0.0,0.0,0.0,0.0,0.0,0.0,0.0,0.0,0.0,0.0,-1.5832,-1.5832,-1.5832,-1.5832,-1.5832,-1.5832,0.0,0.0,0.0,0.0,0.0,0.0,0.0,0.0,0.0,0.0,0.0,0.0,0.0,0.0,0.0,0.0,0.0,0.0,0.0,0.0,0.0,0.0,0.0,0.0,0.0,0.0,0.0,0.0,0.0,0.0,0.0,0.0,0.0,0.0,0.0,0.0,0.0,0.0,0.0,0.0,0.0,0.0,0.0,0.0,0.0,0.0,0.0,0.0,0.0,0.0,0.0,0.0,0.0,0.0,0.0,0.0,0.0,0.0,0.0,0.0,0.0,0.0,0.0,0.0,0.0,0.0,0.0,0.0,0.0,0.0,0.0,0.0,0.0,0.0,0.0,0.0,0.0,0.0,0.0,0.0,0.0,0.0,0.0,0.0,0.0,0.0,0.0,0.0,0.0,0.0,0.0,0.0,0.0,0.0,0.0,0.0,0.0,0.0,0.0,0.0,0.0,0.0,0.0,0.0,0.0,0.0,0.0,0.0,0.0,-1.5832,-1.5832,-1.5832,-1.5832,-1.5832,-1.5832,0.0,0.0,0.0,0.0,0.0,0.0,0.0,0.0,0.0,0.0,0.0,0.0,0.0,0.0,0.0,0.0,0.0,0.0,0.0,0.0,0.0,0.0,0.0,0.0,0.0,0.0,0.0,0.0,0.0,0.0,0.0,0.0,0.0,0.0,0.0,0.0,0.0,0.0,0.0,0.0,0.0,0.0,0.0,0.0,0.0,0.0,0.0,0.0,0.0,0.0,0.0,0.0,0.0,0.0,0.0,0.0,0.0,0.0,0.0,0.0,0.0,0.0,0.0,0.0,0.0,0.0,0.0,0.0,0.0,0.0,0.0,0.0,0.0,0.0,0.0,0.0,0.0,0.0,0.0,0.0,0.0,0.0,0.0,0.0,0.0,0.0,0.0,0.0,0.0,0.0,0.0,0.0,0.0,0.0,0.0,0.0,0.0,0.0,0.0,0.0,0.0,0.0,0.0,0.0,0.0,0.0,0.0,0.0,0.0,-1.5832,0.0,-1.5832,-1.5832,-1.5832,-1.5832,0.0,0.0,0.0,0.0,0.0,0.0,0.0,0.0,0.0,0.0,0.0,0.0,0.0,0.0,0.0,0.0,0.0,0.0,0.0,0.0,0.0,0.0,0.0,0.0,0.0,0.0,0.0,0.0,0.0,0.0,0.0,0.0,0.0,0.0,0.0,0.0,0.0,0.0,0.0,0.0,0.0,0.0,0.0,0.0,0.0,0.0,0.0,0.0,0.0,0.0,0.0,0.0,0.0,0.0,0.0,0.0,0.0,0.0,0.0,0.0,0.0,0.0,0.0,0.0,0.0,0.0,0.0,0.0,0.0,0.0,0.0,0.0,0.0,0.0,0.0,0.0,0.0,0.0,0.0,0.0,0.0,0.0,0.0,0.0,0.0,0.0,0.0,0.0,0.0,0.0,0.0,0.0,0.0,0.0,0.0,0.0,0.0,0.0,0.0,0.0,0.0,0.0,0.0,0.0,0.0,0.0,0.0,0.0,-1.5832,-1.5832,-1.5832,-1.5832,-1.5832,-1.5832,-1.5832,0.0,0.0,0.0,0.0,0.0,0.0,0.0,0.0,0.0,0.0,0.0,0.0,0.0,0.0,0.0,0.0,0.0,0.0,0.0,0.0,0.0,0.0,0.0,0.0,0.0,0.0,0.0,0.0,0.0,0.0,0.0,0.0,0.0,0.0,0.0,0.0,0.0,0.0,0.0,0.0,0.0,0.0,0.0,0.0,0.0,0.0,0.0,0.0,0.0,0.0,0.0,0.0,0.0,0.0,0.0,0.0,0.0,0.0,0.0,0.0,0.0,0.0,0.0,0.0,0.0,0.0,0.0,0.0,0.0,0.0,0.0,0.0,0.0,0.0,0.0,0.0,0.0,0.0,0.0,0.0,0.0,0.0,0.0,0.0,0.0,0.0,0.0,0.0,0.0,0.0,0.0,0.0,0.0,0.0,0.0,0.0,0.0,0.0,0.0,0.0,0.0,0.0,0.0,0.0,0.0,0.0,0.0,0.0,0.0,-1.5832,-1.5832,-1.5832,-1.5832,-1.5832,-1.5832,0.0,0.0,0.0,0.0,0.0,0.0,0.0,0.0,0.0,0.0,0.0,0.0,0.0,0.0,0.0,0.0,0.0,0.0,0.0,0.0,0.0,0.0,0.0,0.0,0.0,0.0,0.0,0.0,0.0,0.0,0.0,0.0,0.0,0.0,0.0,0.0,0.0,0.0,0.0,0.0,0.0,0.0,0.0,0.0,0.0,0.0,0.0,0.0,0.0,0.0,0.0,0.0,0.0,0.0,0.0,0.0,0.0,0.0,0.0,0.0,0.0,0.0,0.0,0.0,0.0,0.0,0.0,0.0,0.0,0.0,0.0,0.0,0.0,0.0,0.0,0.0,0.0,0.0,0.0,0.0,0.0,0.0,0.0,0.0,0.0,0.0,0.0,0.0,0.0,0.0,0.0,0.0,0.0,0.0,0.0,0.0,0.0,0.0,0.0,0.0,0.0,0.0,0.0,0.0,0.0,0.0,0.0,0.0,0.0,-1.6152,-1.5891,-1.5832,-1.5832,-1.5832,-1.5832,-1.5832,0.0,0.0,0.0,0.0,0.0,0.0,0.0,0.0,0.0,0.0,0.0,0.0,0.0,0.0,0.0,0.0,0.0,0.0,0.0,0.0,0.0,0.0,0.0,0.0,0.0,0.0,0.0,0.0,0.0,0.0,0.0,0.0,0.0,0.0,0.0,0.0,0.0,0.0,0.0,0.0,0.0,0.0,0.0,0.0,0.0,0.0,0.0,0.0,0.0,0.0,0.0,0.0,0.0,0.0,0.0,0.0,0.0,0.0,0.0,0.0,0.0,0.0,0.0,0.0,0.0,0.0,0.0,0.0,0.0,0.0,0.0,0.0,0.0,0.0,0.0,0.0,0.0,0.0,0.0,0.0,0.0,0.0,0.0,0.0,0.0,0.0,0.0,0.0,0.0,0.0,0.0,0.0,0.0,0.0,0.0,0.0,0.0,0.0,0.0,0.0,0.0,0.0,0.0,0.0,0.0,0.0,0.0,0.0,-1.67,-1.6166,-1.5872,-1.5811,-1.5798,-1.5832,0.0,0.0,0.0,0.0,0.0,0.0,0.0,0.0,0.0,0.0,0.0,0.0,0.0,0.0,0.0,0.0,0.0,0.0,0.0,0.0,0.0,0.0,0.0,0.0,0.0,0.0,0.0,0.0,0.0,0.0,0.0,0.0,0.0,0.0,0.0,0.0,0.0,0.0,0.0,0.0,0.0,0.0,0.0,0.0,0.0,0.0,0.0,0.0,0.0,0.0,0.0,0.0,0.0,0.0,0.0,0.0,0.0,0.0,0.0,0.0,0.0,0.0,0.0,0.0,0.0,0.0,0.0,0.0,0.0,0.0,0.0,0.0,0.0,0.0,0.0,0.0,0.0,0.0,0.0,0.0,0.0,0.0,0.0,0.0,0.0,0.0,0.0,0.0,0.0,0.0,0.0,0.0,0.0,0.0,0.0,0.0,0.0,0.0,0.0,0.0,0.0,0.0,0.0,0.0,0.0,0.0,0.0,0.0,0.0,-1.67,-1.6553,-1.638,-1.6166,-1.5939,-1.5832,0.0,0.0,0.0,0.0,0.0,0.0,0.0,0.0,0.0,0.0,0.0,0.0,0.0,0.0,0.0,0.0,0.0,0.0,0.0,0.0,0.0,0.0,0.0,0.0,0.0,0.0,0.0,0.0,0.0,0.0,0.0,0.0,0.0,0.0,0.0,0.0,0.0,0.0,0.0,0.0,0.0,0.0,0.0,0.0,0.0,0.0,0.0,0.0,0.0,0.0,0.0,0.0,0.0,0.0,0.0,0.0,0.0,0.0,0.0,0.0,0.0,0.0,0.0,0.0,0.0,0.0,0.0,0.0,0.0,0.0,0.0,0.0,0.0,0.0,0.0,0.0,0.0,0.0,0.0,0.0,0.0,0.0,0.0,0.0,0.0,0.0,0.0,0.0,0.0,0.0,0.0,0.0,0.0,0.0,0.0,0.0,0.0,0.0,0.0,0.0,0.0,0.0,0.0,0.0,0.0,0.0,0.0,0.0,-1.7074,-1.7074,-1.6954,-1.6807,-1.6697,-1.6353,-1.6139,0.0,0.0,0.0,0.0,0.0,0.0,0.0,0.0,0.0,0.0,0.0,0.0,0.0,0.0,0.0,0.0,0.0,0.0,0.0,0.0,0.0,0.0,0.0,0.0,0.0,0.0,0.0,0.0,0.0,0.0,0.0,0.0,0.0,0.0,0.0,0.0,0.0,0.0,0.0,0.0,0.0,0.0,0.0,0.0,0.0,0.0,0.0,0.0,0.0,0.0,0.0,0.0,0.0,0.0,0.0,0.0,0.0,0.0,0.0,0.0,0.0,0.0,0.0,0.0,0.0,0.0,0.0,0.0,0.0,0.0,0.0,0.0,0.0,0.0,0.0,0.0,0.0,0.0,0.0,0.0,0.0,0.0,0.0,0.0,0.0,0.0,0.0,0.0,0.0,0.0,0.0,0.0,0.0,0.0,0.0,0.0,0.0,0.0,0.0,0.0,0.0,0.0,0.0,0.0,0.0,0.0,0.0,0.0,-1.7582,-1.7582,-1.738,-1.7246,-1.7246,-1.6874,-1.6593,0.0,0.0,0.0,0.0,0.0,0.0,0.0,0.0,0.0,0.0,0.0,0.0,0.0,0.0,0.0,0.0,0.0,0.0,0.0,0.0,0.0,0.0,0.0,0.0,0.0,0.0,0.0,0.0,0.0,0.0,0.0,0.0,0.0,0.0,0.0,0.0,0.0,0.0,0.0,0.0,0.0,0.0,0.0,0.0,0.0,0.0,0.0,0.0,0.0,0.0,0.0,0.0,0.0,0.0,0.0,0.0,0.0,0.0,0.0,0.0,0.0,0.0,0.0,0.0,0.0,0.0,0.0,0.0,0.0,0.0,0.0,0.0,0.0,0.0,0.0,0.0,0.0,0.0,0.0,0.0,0.0,0.0,0.0,0.0,0.0,0.0,0.0,0.0,0.0,0.0,0.0,0.0,0.0,0.0,0.0,0.0,0.0,0.0,0.0,0.0,0.0,0.0,0.0,0.0,0.0,0.0,0.0,0.0,-1.7582,-1.7582,-1.7568,-1.7541,-1.7488,-1.6981,-1.6673,0.0,0.0,0.0,0.0,0.0,0.0,0.0,0.0,0.0,0.0,0.0,0.0,0.0,0.0,0.0,0.0,0.0,0.0,0.0,0.0,0.0,0.0,0.0,0.0,0.0,0.0,0.0,0.0,0.0,0.0,0.0,0.0,0.0,0.0,0.0,0.0,0.0,0.0,0.0,0.0,0.0,0.0,0.0,0.0,0.0,0.0,0.0,0.0,-1.4304,0.0,0.0,0.0,0.0,0.0,0.0,0.0,0.0,0.0,0.0,0.0,0.0,0.0,0.0,0.0,0.0,0.0,0.0,0.0,0.0,0.0,0.0,0.0,0.0,0.0,0.0,0.0,0.0,0.0,0.0,0.0,0.0,0.0,0.0,0.0,0.0,0.0,0.0,0.0,0.0,0.0,0.0,0.0,0.0,0.0,0.0,0.0,0.0,0.0,0.0,0.0,0.0,0.0,0.0,0.0,0.0,0.0,0.0,0.0,-1.7582,-1.7582,-1.7582,-1.7582,-1.7569,-1.7275,-1.7048,0.0,0.0,0.0,0.0,0.0,0.0,0.0,0.0,0.0,0.0,0.0,0.0,0.0,0.0,0.0,0.0,0.0,0.0,0.0,0.0,0.0,0.0,0.0,0.0,0.0,0.0,0.0,0.0,0.0,0.0,0.0,0.0,0.0,0.0,0.0,0.0,0.0,0.0,0.0,0.0,0.0,0.0,0.0,0.0,0.0,0.0,0.0,0.0,0.0,0.0,0.0,0.0,0.0,0.0,0.0,0.0,0.0,0.0,0.0,0.0,0.0,0.0,0.0,0.0,0.0,0.0,0.0,0.0,0.0,0.0,0.0,0.0,0.0,0.0,0.0,0.0,0.0,0.0,0.0,0.0,0.0,0.0,0.0,0.0,0.0,0.0,0.0,0.0,0.0,0.0,0.0,0.0,0.0,0.0,0.0,0.0,0.0,0.0,0.0,0.0,0.0,0.0,0.0,0.0,0.0,0.0,0.0,-1.7477,-1.7582,-1.7582,-1.7582,-1.7582,-1.7582,-1.7582,-1.7462,-1.7235,0.0,0.0,0.0,0.0,0.0,0.0,0.0,0.0,0.0,0.0,0.0,0.0,0.0,0.0,0.0,0.0,0.0,0.0,0.0,0.0,0.0,0.0,0.0,0.0,0.0,0.0,0.0,0.0,0.0,0.0,0.0,0.0,0.0,0.0,0.0,0.0,0.0,0.0,-1.4304,-1.4304,0.0,0.0,0.0,0.0,0.0,0.0,0.0,0.0,-1.4304,0.0,0.0,0.0,0.0,0.0,0.0,0.0,0.0,0.0,0.0,0.0,0.0,0.0,0.0,0.0,0.0,0.0,0.0,0.0,0.0,0.0,0.0,0.0,0.0,0.0,0.0,0.0,0.0,0.0,0.0,0.0,0.0,0.0,0.0,0.0,0.0,0.0,0.0,0.0,0.0,0.0,0.0,0.0,0.0,0.0,0.0,0.0,0.0,0.0,0.0,0.0,0.0,0.0,0.0,0.0,0.0,-1.7529,-1.7582,-1.7582,-1.7582,-1.7582,-1.7582,-1.7582,-1.7582,-1.7463,-1.7213,0.0,0.0,0.0,0.0,0.0,0.0,0.0,0.0,0.0,0.0,0.0,0.0,0.0,0.0,0.0,0.0,0.0,0.0,0.0,0.0,0.0,0.0,0.0,0.0,0.0,0.0,0.0,0.0,0.0,0.0,0.0,0.0,0.0,0.0,0.0,0.0,0.0,0.0,0.0,-1.4304,-1.4304,0.0,0.0,0.0,0.0,0.0,0.0,0.0,0.0,-1.4304,0.0,0.0,0.0,0.0,0.0,0.0,0.0,0.0,0.0,0.0,0.0,0.0,0.0,0.0,0.0,0.0,0.0,0.0,0.0,0.0,0.0,0.0,0.0,0.0,0.0,0.0,0.0,0.0,0.0,0.0,0.0,0.0,0.0,0.0,0.0,0.0,0.0,0.0,0.0,0.0,0.0,0.0,0.0,0.0,0.0,0.0,0.0,0.0,0.0,0.0,0.0,0.0,0.0,0.0,0.0,-1.7384,-1.7529,-1.7582,-1.7582,-1.7582,-1.7582,-1.7582,-1.7582,-1.7371,0.0,0.0,0.0,0.0,0.0,0.0,0.0,0.0,0.0,0.0,0.0,0.0,0.0,0.0,0.0,0.0,0.0,0.0,0.0,0.0,0.0,0.0,0.0,0.0,0.0,0.0,0.0,0.0,0.0,0.0,0.0,0.0,0.0,0.0,0.0,0.0,0.0,0.0,0.0,0.0,-1.4727,-1.4714,-1.4714,0.0,0.0,0.0,0.0,0.0,0.0,-1.4714,-1.4714,0.0,0.0,0.0,0.0,0.0,0.0,0.0,0.0,0.0,0.0,0.0,0.0,0.0,0.0,0.0,0.0,0.0,0.0,0.0,0.0,0.0,0.0,0.0,0.0,0.0,0.0,0.0,0.0,0.0,0.0,0.0,0.0,0.0,0.0,0.0,0.0,0.0,0.0,0.0,0.0,0.0,0.0,0.0,0.0,0.0,0.0,0.0,0.0,0.0,0.0,0.0,0.0,0.0,0.0,0.0,-1.7279,-1.7477,-1.7582,-1.7582,-1.7582,-1.7582,-1.7582,-1.7582,-1.7371,0.0,0.0,0.0,0.0,0.0,0.0,0.0,0.0,0.0,0.0,0.0,0.0,0.0,0.0,0.0,0.0,0.0,0.0,0.0,0.0,0.0,0.0,0.0,0.0,0.0,0.0,0.0,0.0,0.0,0.0,0.0,0.0,0.0,0.0,0.0,0.0,0.0,0.0,0.0,0.0,0.0,-1.5113,-1.5113,-1.5113,0.0,0.0,0.0,0.0,-1.5113,-1.5113,0.0,0.0,0.0,0.0,0.0,0.0,0.0,0.0,0.0,0.0,0.0,0.0,0.0,0.0,0.0,0.0,0.0,0.0,0.0,0.0,0.0,0.0,0.0,0.0,0.0,0.0,0.0,0.0,0.0,0.0,0.0,0.0,0.0,0.0,0.0,0.0,0.0,0.0,0.0,0.0,0.0,0.0,0.0,0.0,0.0,0.0,0.0,0.0,0.0,0.0,0.0,0.0,0.0,0.0,0.0,0.0,-1.7582,-1.7582,-1.7582,-1.7582,-1.7582,-1.7582,-1.7582,-1.7582,-1.7437,0.0,0.0,0.0,0.0,0.0,0.0,0.0,0.0,0.0,0.0,0.0,0.0,0.0,0.0,0.0,0.0,0.0,0.0,0.0,0.0,0.0,0.0,0.0,0.0,0.0,0.0,0.0,0.0,0.0,0.0,0.0,0.0,0.0,0.0,0.0,0.0,0.0,0.0,0.0,0.0,0.0,-1.5113,-1.5113,-1.5113,-1.5113,0.0,0.0,-1.5113,-1.5113,-1.5113,0.0,0.0,0.0,0.0,0.0,0.0,0.0,0.0,0.0,0.0,0.0,0.0,0.0,0.0,0.0,0.0,0.0,0.0,0.0,0.0,0.0,0.0,0.0,0.0,0.0,0.0,0.0,0.0,0.0,0.0,0.0,0.0,0.0,0.0,0.0,0.0,0.0,0.0,0.0,0.0,0.0,0.0,0.0,0.0,0.0,0.0,0.0,0.0,0.0,0.0,0.0,0.0,0.0,0.0,0.0,-1.7582,-1.7582,-1.7582,-1.7582,-1.7582,-1.7582,-1.7582,-1.7582,-1.7582,-1.7371,0.0,0.0,0.0,0.0,0.0,0.0,0.0,0.0,0.0,0.0,0.0,0.0,0.0,0.0,0.0,0.0,0.0,0.0,0.0,0.0,0.0,0.0,0.0,0.0,0.0,0.0,0.0,0.0,0.0,0.0,0.0,0.0,0.0,0.0,0.0,0.0,0.0,0.0,0.0,0.0,0.0,0.0,-1.5547,-1.5547,0.0,0.0,0.0,-1.5547,-1.5547,0.0,0.0,0.0,0.0,0.0,0.0,0.0,0.0,0.0,0.0,0.0,0.0,0.0,0.0,0.0,0.0,0.0,0.0,0.0,0.0,0.0,0.0,0.0,0.0,0.0,0.0,0.0,0.0,0.0,0.0,0.0,0.0,0.0,0.0,0.0,0.0,0.0,0.0,0.0,0.0,0.0,0.0,0.0,0.0,0.0,0.0,0.0,0.0,0.0,0.0,0.0,0.0,0.0,0.0,0.0,0.0,0.0,-1.7582,-1.7582,-1.7582,-1.7582,-1.7582,-1.7582,-1.7582,-1.7582,0.0,0.0,0.0,0.0,0.0,0.0,0.0,0.0,0.0,0.0,0.0,0.0,0.0,0.0,0.0,0.0,0.0,0.0,0.0,0.0,0.0,0.0,0.0,0.0,0.0,0.0,0.0,-1.6004,0.0,0.0,0.0,0.0,0.0,0.0,0.0,0.0,0.0,0.0,0.0,0.0,0.0,0.0,-1.5992,-1.6311,-1.6099,-1.5885,0.0,0.0,-1.5885,-1.5885,-1.5885,-1.5885,0.0,0.0,0.0,0.0,0.0,0.0,0.0,0.0,0.0,0.0,0.0,0.0,0.0,0.0,0.0,0.0,0.0,0.0,0.0,0.0,0.0,0.0,0.0,0.0,0.0,0.0,0.0,0.0,0.0,0.0,0.0,0.0,0.0,0.0,0.0,0.0,0.0,0.0,0.0,0.0,0.0,0.0,0.0,0.0,0.0,0.0,0.0,0.0,0.0,0.0,0.0,0.0,0.0,0.0,-1.7876,-1.7595,-1.7582,-1.7595,-1.7582,-1.7582,-1.7582,-1.7582,-1.7582,-1.7582,0.0,0.0,0.0,0.0,0.0,0.0,0.0,0.0,0.0,0.0,0.0,0.0,0.0,0.0,0.0,0.0,0.0,0.0,0.0,0.0,0.0,0.0,0.0,0.0,0.0,0.0,0.0,0.0,0.0,0.0,0.0,0.0,0.0,0.0,0.0,0.0,0.0,0.0,0.0,0.0,0.0,-1.6311,-1.7318,-1.6577,-1.5885,0.0,-1.5885,-1.5885,-1.5885,-1.5885,-1.5885,-1.5885,0.0,0.0,0.0,0.0,0.0,0.0,0.0,0.0,0.0,0.0,0.0,0.0,0.0,0.0,0.0,0.0,0.0,0.0,0.0,0.0,0.0,0.0,0.0,0.0,0.0,0.0,0.0,0.0,0.0,0.0,0.0,0.0,0.0,0.0,0.0,0.0,0.0,0.0,0.0,0.0,0.0,0.0,0.0,0.0,0.0,0.0,0.0,0.0,0.0,0.0,0.0,0.0,0.0,-1.8263,-1.8143,-1.8143,-1.805,-1.7876,-1.7876,-1.7782,-1.7595,-1.7582,-1.7529,0.0,0.0,0.0,0.0,0.0,0.0,0.0,0.0,0.0,0.0,0.0,0.0,0.0,0.0,0.0,0.0,0.0,0.0,0.0,0.0,0.0,0.0,0.0,0.0,0.0,0.0,0.0,0.0,-1.6164,-1.6172,-1.6397,0.0,0.0,0.0,0.0,0.0,0.0,0.0,0.0,0.0,0.0,-1.7981,-1.8428,-1.73,0.0,0.0,-1.6392,-1.6392,-1.6392,-1.638,-1.6392,-1.6392,-1.6392,0.0,0.0,0.0,0.0,0.0,0.0,0.0,0.0,0.0,0.0,0.0,0.0,0.0,0.0,0.0,0.0,0.0,0.0,0.0,0.0,0.0,0.0,0.0,0.0,0.0,0.0,0.0,0.0,0.0,0.0,0.0,0.0,0.0,0.0,0.0,0.0,0.0,0.0,0.0,0.0,0.0,0.0,0.0,0.0,0.0,0.0,0.0,0.0,0.0,0.0,0.0,0.0,-1.8571,-1.849,-1.849,-1.8397,-1.8129,-1.8129,-1.8076,-1.7862,-1.7849,-1.7809,0.0,0.0,0.0,0.0,0.0,0.0,0.0,0.0,0.0,0.0,0.0,0.0,0.0,0.0,0.0,0.0,0.0,0.0,0.0,0.0,0.0,0.0,0.0,0.0,0.0,0.0,0.0,0.0,-1.651,-1.6525,-1.6899,0.0,0.0,0.0,0.0,0.0,0.0,0.0,0.0,0.0,0.0,-1.9783,-2.011,-1.8603,-1.7353,-1.7408,-1.703,-1.6694,-1.6694,-1.6974,-1.7241,-1.7241,0.0,0.0,0.0,0.0,0.0,0.0,0.0,0.0,0.0,0.0,0.0,0.0,0.0,0.0,0.0,0.0,0.0,0.0,0.0,0.0,0.0,0.0,0.0,0.0,0.0,0.0,0.0,-1.943,0.0,0.0,-1.943,0.0,0.0,0.0,0.0,0.0,0.0,0.0,0.0,0.0,0.0,0.0,0.0,0.0,0.0,0.0,0.0,0.0,0.0,0.0,0.0,0.0,0.0,-1.8784,-1.8504,-1.8517,-1.849,-1.8477,-1.8477,-1.8477,-1.8464,-1.8464,-1.8464,-1.8464,0.0,0.0,0.0,0.0,0.0,0.0,0.0,0.0,0.0,0.0,0.0,0.0,0.0,0.0,0.0,0.0,0.0,0.0,0.0,0.0,0.0,0.0,0.0,0.0,0.0,0.0,-1.7536,-1.7576,-1.7452,0.0,0.0,0.0,0.0,0.0,0.0,0.0,0.0,0.0,-2.2461,-2.184,-2.1556,-2.2622,-2.0614,-1.8988,-1.8988,-1.7742,-1.6762,-1.683,-1.7742,-1.8479,0.0,0.0,0.0,0.0,0.0,0.0,0.0,0.0,0.0,0.0,0.0,0.0,0.0,0.0,0.0,0.0,0.0,0.0,0.0,0.0,0.0,0.0,0.0,0.0,0.0,0.0,0.0,-1.943,-1.943,0.0,0.0,0.0,0.0,0.0,0.0,0.0,0.0,0.0,0.0,0.0,-1.943,-1.943,0.0,0.0,0.0,0.0,0.0,0.0,0.0,0.0,0.0,0.0,0.0,0.0,-1.9172,-1.9135,-1.9078,-1.8971,-1.8784,-1.8784,-1.8691,-1.8504,-1.849,-1.849,-1.849,0.0,0.0,0.0,0.0,0.0,0.0,0.0,0.0,0.0,0.0,0.0,0.0,0.0,0.0,0.0,0.0,0.0,0.0,0.0,0.0,0.0,0.0,0.0,0.0,0.0,-1.7835,0.0,0.0,0.0,0.0,0.0,0.0,0.0,0.0,0.0,0.0,0.0,-2.265,-2.3678,-2.326,-2.3086,-2.3716,-2.2002,-2.067,0.0,0.0,0.0,0.0,0.0,0.0,0.0,0.0,0.0,0.0,0.0,0.0,0.0,0.0,-1.795,-1.6911,-1.6622,-1.6598,-1.6682,0.0,0.0,0.0,0.0,0.0,0.0,0.0,0.0,0.0,0.0,0.0,0.0,0.0,0.0,-1.943,0.0,-1.943,0.0,0.0,0.0,0.0,0.0,0.0,0.0,0.0,-1.943,-1.943,-1.943,-1.943,-1.943,0.0,-1.943,-1.943,0.0,0.0,0.0,0.0,0.0,0.0,0.0,0.0,-1.943,-1.943,-1.943,-1.9279,-1.9092,-1.9078,-1.8985,-1.8811,-1.8798,-1.8798,-1.8798,-1.8798,-1.8798,0.0,0.0,0.0,0.0,0.0,0.0,0.0,0.0,0.0,0.0,0.0,0.0,0.0,0.0,0.0,0.0,0.0,0.0,0.0,0.0,0.0,0.0,0.0,-1.8496,0.0,0.0,0.0,0.0,0.0,0.0,0.0,0.0,0.0,-2.0837,-2.2648,-2.4306,-2.5003,-2.4885,-2.4763,-2.4867,0.0,0.0,0.0,0.0,0.0,0.0,0.0,-2.0877,-2.2031,-2.1284,-2.0711,-2.1364,-2.1298,-2.1074,-2.0737,0.0,0.0,-1.7837,-1.7256,-1.6972,-1.6972,-1.6827,-1.6694,-1.6706,-1.6561,-1.6441,0.0,0.0,0.0,0.0,0.0,0.0,0.0,0.0,-1.943,-1.943,0.0,-1.943,0.0,0.0,0.0,0.0,-1.943,-1.943,0.0,0.0,-1.943,-1.943,-1.943,-1.943,-1.943,-1.943,-1.943,-1.943,-1.943,-1.943,0.0,0.0,0.0,0.0,0.0,0.0,-1.943,-1.943,-1.943,-1.943,-1.9417,-1.9417,-1.9359,-1.9417,-1.9417,-1.9417,-1.9417,-1.9403,-1.9417,-1.9417,-1.9417,0.0,0.0,0.0,0.0,0.0,0.0,0.0,0.0,0.0,0.0,0.0,0.0,0.0,0.0,0.0,0.0,0.0,0.0,0.0,0.0,-1.8827,0.0,0.0,0.0,0.0,0.0,0.0,0.0,0.0,0.0,0.0,-2.2639,-2.3622,-2.4893,-2.6336,0.0,0.0,0.0,0.0,-2.3628,-2.3308,-2.1995,-2.1063,-2.1078,-2.1941,-2.2638,-2.2778,0.0,0.0,-2.0861,-2.0644,-2.0674,-2.0263,-2.0321,-1.9957,-1.9543,-1.8384,-1.7523,-1.743,-1.7406,-1.7455,-1.7467,-1.7382,-1.7394,-1.943,0.0,0.0,0.0,0.0,-1.943,-1.943,-1.943,-1.943,-1.943,-1.943,-1.943,0.0,0.0,0.0,0.0,0.0,0.0,-1.943,-1.943,-1.943,-1.943,-1.943,-1.943,-1.943,-1.943,-1.943,-1.943,-1.943,-1.943,-1.943,-1.943,0.0,0.0,0.0,0.0,-1.943,-1.943,-1.943,-1.943,-1.943,-1.943,-1.943,-1.943,-1.943,-1.943,-1.943,-1.943,-1.943,-1.943,-1.943,0.0,0.0,0.0,0.0,0.0,0.0,0.0,0.0,0.0,0.0,0.0,0.0,0.0,0.0,0.0,0.0,0.0,0.0,0.0,-1.9118,-1.9974,-2.073,0.0,0.0,0.0,0.0,0.0,0.0,0.0,0.0,0.0,-2.3399,-2.4574,-2.5685,0.0,0.0,-2.5837,-2.5984,-2.5629,-2.5416,-2.5541,-2.5216,0.0,-2.4944,-2.4142,-2.3948,-2.5234,-2.545,-2.5216,-2.4545,-2.449,-2.4381,-2.4107,-2.3392,-2.2736,-2.243,-2.0146,-1.8063,-1.7371,-1.7201,-1.7274,-1.743,-1.7479,-1.7479,-1.943,-1.943,-1.943,-1.943,-1.943,-1.943,-1.943,-1.943,-1.943,-1.943,-1.943,-1.943,-1.943,-1.943,-1.943,0.0,0.0,0.0,-1.943,-1.943,-1.943,-1.943,-1.943,-1.943,-1.943,-1.943,-1.943,-1.943,-1.943,-1.943,-1.943,-1.943,0.0,0.0,-1.943,-1.943,-1.943,-1.943,-1.943,-1.943,-1.943,-1.943,-1.943,-1.943,-1.943,-1.943,-1.943,-1.943,-1.943,-1.943,-1.943,-1.943,0.0,0.0,0.0,0.0,0.0,0.0,0.0,0.0,0.0,0.0,0.0,-1.9591,-2.0097,0.0,0.0,0.0,-2.1231,-2.1002,-2.1517,-2.1801,0.0,0.0,0.0,0.0,0.0,0.0,0.0,-2.2743,-2.4179,-2.5126,-2.5038,-2.5847,-2.6334,-2.6058,-2.6076,-2.6168,-2.626,0.0,-2.6535,-2.6573,-2.6591,-2.6591,-2.6591,-2.5702,-2.5341,-2.6427,-2.6591,-2.6482,-2.619,-2.6009,-2.5793,-2.5485,-2.4763,-2.406,-2.3552,-2.1651,-1.9941,-1.9072,-1.8378,-1.8038,-1.8202,-1.783,-1.7479,-1.943,-1.943,-1.943,-1.943,-1.943,-1.943,-1.943,-1.943,-1.943,-1.943,-1.943,-1.943,-1.943,-1.943,-1.943,0.0,-1.943,-1.943,-1.943,-1.943,-1.943,-1.943,-1.943,-1.943,-1.943,-1.943,-1.943,-1.943,-1.943,-1.943,-1.943,-1.943,-1.943,-1.943,-1.943,-1.943,-1.943,-1.943,-1.943,-1.943,-1.943,-1.943,-1.943,-1.943,-1.943,-1.943,-1.943,-1.943,-1.943,-1.943,-1.943,-1.943,-1.943,0.0,0.0,0.0,0.0,0.0,0.0,0.0,0.0,0.0,0.0,0.0,0.0,0.0,0.0,0.0,-2.3255,0.0,-2.4505,-2.371,0.0,0.0,0.0,-2.2473,-2.2686,-2.3278,-2.3871,-2.4356,0.0,0.0,-2.7086,-2.716,-2.6958,-2.6205,-2.6756,-2.705,-2.6683,-2.6958,-2.7086,-2.6774,-2.6701,-2.6683,-2.6756,-2.6683,-2.6665,-2.6756,-2.6683,-2.6665,-2.6427,-2.6118,-2.5721,-2.5613,-2.513,-2.4615,-2.3516,-2.3402,-2.2982,-2.2204,-2.0601,-1.9452,-1.9203,-1.846,-1.7713,-1.943,-1.943,-1.943,-1.943,-1.943,-1.943,-1.943,-1.943,-1.943,-1.943,-1.943,-1.943,-1.943,-1.943,-1.943,-1.943,-1.943,-1.943,-1.943,-1.943,-1.943,-1.943,-1.943,-1.943,-1.943,-1.943,-1.943,-1.943,-1.943,-1.943,-1.943,-1.943,-1.943,-1.943,-1.943,-1.943,-1.943,-1.943,-1.943,-1.943,-1.943,-1.943,-1.943,-1.943,-1.943,-1.943,-1.943,-1.943,-1.943,-1.943,-1.943,-1.943,-1.943,-1.943,0.0,0.0,0.0,0.0,0.0,0.0,0.0,0.0,0.0,-1.9924,-2.1117,0.0,-2.0515,0.0,-2.5183,-2.5006,-2.3145,-2.3552,0.0,0.0,-2.2694,-2.2912,-2.5302,-2.4957,-2.4989,-2.6333,-2.681,-2.6958,-2.6756,-2.6995,-2.716,-2.6921,-2.7068,-2.7141,-2.705,-2.7361,-2.7656,-2.7564,-2.7546,-2.7546,-2.749,-2.7546,-2.749,-2.7528,-2.7546,-2.749,-2.7433,-2.736,-2.7231,-2.7156,-2.7102,-2.6917,-2.6565,-2.645,-2.6025,-2.5397,-2.2983,-2.0457,-1.9554,-1.9042,-1.8577,-1.943,-1.943,-1.943,-1.943,-1.943,-1.943,-1.943,-1.943,-1.943,-1.943,-1.943,-1.943,-1.943,-1.943,-1.943,-1.943,-1.943,-1.943,-1.943,-1.943,-1.943,-1.943,-1.943,-1.943,-1.943,-1.943,-1.943,-1.943,-1.943,-1.943,-1.943,-1.943,-1.943,-1.943,-1.943,-1.943,-1.943,-1.943,-1.943,-1.943,-1.943,-1.943,-1.943,-1.943,-1.943,-1.943,-1.943,-1.943,-1.943,-1.943,-1.943,-1.943,-1.943,-1.943,-1.943,0.0,0.0,0.0,0.0,0.0,0.0,0.0,0.0,0.0,0.0,0.0,-2.1526,-2.4047,-2.538,-2.5523,-2.4142,-2.4731,-2.527,-2.518,-2.462,-2.4902,-2.6683,-2.6134,-2.6004,-2.7067,-2.7325,-2.7435,-2.7398,-2.7746,-2.7985,-2.7985,-2.7985,-2.7911,-2.7783,-2.804,-2.8315,-2.8355,-2.8315,-2.8315,-2.8297,-2.8315,-2.8373,-2.8315,-2.8355,-2.8297,-2.8355,-2.815,-2.804,-2.804,-2.795,-2.7822,-2.7822,-2.7651,-2.7407,-2.6832,-2.5371,-2.323,-2.1002,-2.0069,-1.9377,-1.9479,-1.9479,-1.9479,-1.9537,-1.9479,-1.9479,-1.9497,-1.943,-1.943,-1.943,-1.943,-1.943,-1.943,-1.943,-1.943,-1.943,-1.943,-1.943,-1.943,-1.943,-1.943,-1.943,-1.943,-1.943,-1.943,-1.943,-1.943,-1.943,-1.943,-1.943,-1.943,-1.943,-1.9457,-1.9484,-1.9484,-1.9452,-1.9439,-1.943,-1.943,-1.943,-1.943,-1.943,-1.943,-1.943,-1.943,-1.943,-1.943,-1.943,-1.943,-1.943,-1.943,-1.9475,-1.9591,-1.9649,-1.9707,0.0,-2.0845,0.0,0.0,0.0,0.0,0.0,0.0,0.0,0.0,-2.3613,-2.3152,-2.3766,-2.4915,-2.58,-2.6131,-2.6444,-2.6774,-2.705,-2.7105,-2.7123,-2.727,-2.694,-2.6921,-2.7417,-2.771,-2.8058,-2.8407,-2.8773,-2.8975,-2.8902,-2.8883,-2.8755,-2.8572,-2.8718,-2.892,-2.8975,-2.8975,-2.8883,-2.8902,-2.8938,-2.8938,-2.8957,-2.892,-2.8975,-2.8938,-2.8682,-2.8462,-2.8443,-2.8205,-2.8024,-2.7969,-2.7948,-2.7854,-2.7531,-2.7287,-2.6179,-2.3308,-2.1678,-2.0399,-2.0067,-2.0067,-2.0067,-2.0067,-2.0067,-2.0067,-1.98,-1.943,-1.943,-1.943,-1.943,-1.943,-1.943,-1.943,-1.943,-1.943,-1.943,-1.943,-1.943,-1.943,-1.943,-1.943,-1.943,-1.943,-1.943,-1.943,-1.943,-1.943,-1.943,-1.943,-1.943,-1.943,-1.9599,-1.972,-1.9733,0.0,0.0,0.0,-1.943,-1.943,-1.943,-1.943,-1.943,-1.943,-1.943,0.0,-1.943,-1.943,-1.943,-1.943,-1.943,0.0,0.0,0.0,0.0,0.0,0.0,0.0,0.0,0.0,0.0,0.0,-2.4061,-2.4144,-2.435,-2.5195,-2.5482,-2.4775,-2.6025,-2.6866,-2.6995,-2.7068,-2.6958,-2.6719,-2.6701,-2.6995,-2.7545,-2.7638,-2.782,-2.8553,-2.87,-2.8773,-2.8847,-2.8938,-2.8975,-2.8975,-2.8975,-2.8957,-2.8883,-2.892,-2.8975,-2.8975,-2.8975,-2.8975,-2.8975,-2.8975,-2.8975,-2.8975,-2.8975,-2.8975,-2.8975,-2.8938,-2.8865,-2.8847,-2.881,-2.8737,-2.8718,-2.8755,-2.8608,-2.8275,-2.8162,-2.7477,-2.5061,-2.4097,-2.3314,-2.018,-2.018,-2.018,-2.018,0.0,-2.018,-2.0067,-1.9786,-1.9639,-1.9506,-1.943,-1.943,-1.943,-1.943,-1.9519,-1.9573,-1.9586,-1.9733,-1.98,-1.98,-1.98,-1.98,-1.98,-1.98,-1.9786,-1.98,-1.98,-1.98,-1.98,-1.98,-1.98,-1.98,-1.9947,-2.0013,-2.0027,-2.01,-2.008,-1.98,-1.9653,-1.9586,-1.9573,-1.9497,-1.943,-1.943,-1.943,0.0,0.0,0.0,0.0,0.0,0.0,0.0,0.0,-2.207,0.0,-2.299,-2.3536,-2.3592,-2.3087,-2.4111,-2.4778,-2.4795,-2.5523,-2.5803,-2.5413,-2.6118,-2.6354,-2.5789,-2.6481,-2.6976,-2.716,-2.7399,-2.7471,-2.749,-2.7655,-2.7948,-2.8336,-2.837,-2.8535,-2.8883,-2.8975,-2.8975,-2.8975,-2.8975,-2.8975,-2.8975,-2.8975,-2.8993,-2.8975,-2.8975,-2.8975,-2.8975,-2.8975,-2.8975,-2.8975,-2.8975,-2.8993,-2.8975,-2.8975,-2.8975,-2.8975,-2.8975,-2.8975,-2.8975,-2.8975,-2.8975,-2.8975,-2.8975,-2.8902,-2.8737,-2.8682,-2.845,-2.7164,-2.611,-2.4894,-2.0388,-2.0326,-2.0326,-2.0388,-2.0388,-2.0388,-2.0361,-2.0294,0.0,0.0,0.0,-1.9578,-1.9519,-1.9533,-1.9773,-1.988,-1.9893,-2.006,-2.018,-2.018,-2.018,-2.018,-2.018,-2.018,-2.018,-2.018,-2.018,-2.018,-2.018,-2.018,-2.018,-2.018,-2.0281,-2.0334,-2.0374,-2.0388,-2.0326,-2.0374,-2.0054,-1.988,-1.9867,-1.9639,-1.9578,-1.9519,-1.9519,-1.9636,-1.9914,-1.9856,-2.041,-2.1549,-2.1648,-2.2131,-2.3215,-2.3311,-2.3424,-2.3664,-2.4624,-2.477,-2.3858,-2.5672,-2.6389,-2.5374,-2.6585,-2.7105,-2.6719,-2.6756,-2.683,-2.6903,-2.6903,-2.7086,-2.7453,-2.784,-2.8113,-2.8462,-2.8792,-2.8975,-2.8975,-2.8975,-2.8957,-2.8975,-2.8975,-2.8975,-2.8975,-2.8975,-2.8975,-2.8993,-2.9067,-2.914,-2.9159,-2.9085,-2.9012,-2.9104,-2.914,-2.9122,-2.9195,-2.925,-2.9195,-2.9269,-2.925,-2.9195,-2.9195,-2.9122,-2.9085,-2.9122,-2.9048,-2.8993,-2.8975,-2.8975,-2.8975,-2.8975,-2.8975,-2.8975,-2.8861,-2.7664,-2.6272,-2.0975,-2.0989,-2.0989,-2.0989,-2.0989,-2.0989,-2.0842,-2.0588,-2.0307,-2.0147,-2.0107,-2.0047,-2.0107,-2.006,-2.0087,-2.0113,-2.0113,-2.0153,-2.018,-2.018,-2.018,-2.018,-2.018,-2.018,-2.018,-2.018,-2.0241,-2.018,-2.018,-2.0241,-2.018,-2.0267,-2.0481,-2.0735,-2.0962,-2.0989,-2.0989,-2.0975,-2.0441,-2.0174,-2.0174,-2.0134,-2.0107,-2.0107,-2.0107,-2.0635,-2.1741,-2.1801,-2.2259,-2.3205,-2.3304,-2.3675,-2.4462,-2.4573,-2.5,-2.6044,-2.6553,-2.6808,-2.6641,-2.7229,-2.7543,-2.743,-2.7598,-2.7583,-2.7141,-2.7454,-2.7746,-2.8077,-2.8095,-2.8297,-2.8682,-2.8737,-2.8792,-2.8865,-2.8957,-2.8975,-2.8975,-2.8975,-2.8975,-2.8975,-2.8975,-2.8993,-2.9012,-2.9012,-2.903,-2.9048,-2.9384,-2.9617,-2.9782,-2.9415,-2.9177,-2.9457,-2.9549,-2.9635,-2.9855,-3.002,-2.9965,-3.0039,-2.9984,-2.9929,-2.9929,-2.969,-2.9507,-2.9549,-2.9269,-2.9067,-2.903,-2.8975,-2.903,-2.9048,-2.903,-2.9012,-2.8993,-2.8633,-2.8292,-2.1109,-2.1109,-2.1299,-2.1362,-2.1362,-2.1538,-2.1469,-2.1208,-2.1197,-2.0828,-2.0241,-2.018,-2.018,-2.0254,-2.0401,-2.0468,-2.0481,-2.0641,-2.0708,-2.0708,-2.0708,-2.0708,-2.0708,-2.0894,-2.0894,-2.0708,-2.0894,-2.0956,-2.0956,-2.077,-2.077,-2.0956,-2.098,-2.0975,-2.1096,-2.1109,-2.1109,-2.1096,-2.0695,-2.0468,-2.0468,-2.1022,-2.1286,-2.1286,-2.1931,-2.2647,-2.3225,-2.3284,-2.381,-2.487,-2.4928,-2.5377,-2.6374,-2.6412,-2.6655,-2.7233,-2.7398,-2.749,-2.749,-2.7875,-2.8113,-2.8113,-2.8315,-2.8352,-2.8226,-2.8113,-2.8278,-2.8663,-2.8718,-2.8792,-2.8957,-2.8975,-2.8975,-2.8975,-2.8975,-2.8975,-2.8975,-2.8975,-2.8975,-2.8975,-2.8975,-2.9067,-2.9269,-2.9305,-2.9415,-2.9599,-2.9819,-3.0002,-3.0185,-2.991,-2.9709,-2.9874,-2.991,-2.9984,-3.0185,-3.0204,-3.0204,-3.0204,-3.0204,-3.0204,-3.0204,-3.0002,-2.9929,-2.991,-2.9745,-2.9672,-2.9635,-2.9635,-2.9544,-2.9324,-2.9305,-2.925,-2.9067,-2.8975,-2.8664,-2.1437,-2.1424,-2.1628,-2.1715,-2.171,-2.188,-2.1853,-2.174,-2.1978,-2.1527,-2.0713,-2.0611,-2.0611,-2.0638,-2.0916,-2.1024,-2.1051,-2.1254,-2.1362,-2.1299,-2.1299,-2.1299,-2.1362,-2.1601,-2.1538,-2.1362,-2.1601,-2.1727,-2.1677,-2.1479,-2.1815,-2.23,-2.2187,-2.211,-2.2363,-2.2363,-2.2363,-2.2286,-2.2076,-2.1583,-2.0824,-2.2097,-2.2691,-2.2511,-2.3694,-2.4526,-2.4762,-2.4822,-2.5319,-2.6435,-2.6551,-2.692,-2.7708,-2.7822,-2.7822,-2.7822,-2.7856,-2.7948,-2.8058,-2.8333,-2.8517,-2.8535,-2.881,-2.8975,-2.8957,-2.8818,-2.8704,-2.8998,-2.9016,-2.9094,-2.9035,-2.9094,-2.9094,-2.8975,-2.8975,-2.8975,-2.8993,-2.9108,-2.9122,-2.9122,-2.9195,-2.9397,-2.9617,-2.9709,-2.9874,-3.0204,-3.0332,-3.0351,-3.0424,-3.0461,-3.0461,-3.0461,-3.0406,-3.0406,-3.0424,-3.0497,-3.0516,-3.0479,-3.0497,-3.0534,-3.0516,-3.0424,-3.0332,-3.0314,-3.0222,-3.0149,-3.0185,-3.0167,-3.002,-2.9764,-2.9709,-2.9599,-2.9232,-2.9159,-2.8828,-2.2356,-2.2291,-2.2081,-2.2011,-2.2062,-2.1801,-2.188,-2.2069,-2.2118,-2.209,-2.1909,-2.1909,-2.1895,-2.1909,-2.1923,-2.1923,-2.1937,-2.1978,-2.1992,-2.1992,-2.1992,-2.2041,-2.202,-2.2069,-2.2041,-2.2069,-2.2146,-2.2286,-2.2363,-2.2476,-2.3292,-2.4683,-2.4842,-2.526,-2.6072,-2.6199,-2.6088,-2.5802,-2.577,-2.4254,-2.1411,-2.3499,-2.4224,-2.3051,-2.4286,-2.5509,-2.6738,-2.6738,-2.7183,-2.8079,-2.8159,-2.8034,-2.7838,-2.7822,-2.784,-2.7858,-2.8132,-2.848,-2.881,-2.892,-2.892,-2.892,-2.8938,-2.8975,-2.8975,-2.9235,-2.9275,-2.9172,-2.929,-2.9331,-2.9035,-2.9272,-2.929,-2.9108,-2.909,-2.8975,-2.9126,-2.9305,-2.9525,-2.9567,-2.98,-3.0112,-3.0112,-3.0167,-3.0314,-3.0681,-3.0736,-3.0827,-3.1084,-3.1139,-3.1139,-3.1139,-3.0974,-3.0901,-3.1102,-3.1249,-3.1157,-3.1194,-3.1231,-3.1176,-3.1084,-3.0919,-3.0736,-3.0699,-3.0497,-3.0332,-3.0296,-3.0204,-3.0241,-3.0167,-3.0094,-3.0002,-2.9635,-2.9525,-2.9294,-2.2845,-2.2845,-2.2911,-2.2972,-2.2962,-2.3028,-2.305,-2.2986,-2.3178,-2.3292,-2.3307,-2.3292,-2.2836,-2.2118,-2.2104,-2.2104,-2.2118,-2.23,-2.2384,-2.2398,-2.2566,-2.2714,-2.2728,-2.2921,-2.3292,-2.3917,-2.4093,-2.4665,-2.5376,-2.5613,-2.5945,-2.6375,-2.6455,-2.6646,-2.7074,-2.709,-2.7027,-2.69,-2.7659,-2.6942,-2.525,-2.6177,-2.6678,-2.6303,-2.7362,-2.8324,-2.8781,-2.8664,-2.8691,-2.9025,-2.8865,-2.8663,-2.8498,-2.8538,-2.848,-2.8557,-2.8645,-2.881,-2.8975,-2.8975,-2.8975,-2.8975,-2.8975,-2.8975,-2.8993,-2.9494,-2.9822,-2.9684,-2.9539,-2.945,-2.935,-2.9272,-2.9305,-2.9587,-2.9661,-2.9735,-2.9976,-3.0124,-3.0174,-3.0009,-3.0094,-3.0314,-3.0534,-3.0754,-3.0956,-3.1121,-3.1139,-3.1212,-3.1359,-3.1377,-3.1377,-3.1359,-3.1231,-3.1212,-3.1341,-3.1377,-3.1377,-3.1377,-3.1377,-3.1377,-3.1341,-3.1286,-3.1139,-3.1139,-3.0956,-3.0846,-3.0937,-3.0882,-3.0846,-3.0662,-3.0296,-3.013,-2.9965,-2.9947,-2.9764,-2.3492,-2.3478,-2.3539,-2.3628,-2.3745,-2.3855,-2.3891,-2.376,-2.4021,-2.4086,-2.4086,-2.4086,-2.3823,-2.3223,-2.2863,-2.261,-2.2716,-2.3299,-2.3592,-2.3671,-2.4213,-2.456,-2.4575,-2.4769,-2.527,-2.596,-2.6264,-2.6966,-2.8001,-2.8082,-2.8196,-2.8328,-2.8408,-2.8535,-2.8789,-2.8852,-2.8789,-2.8806,-2.9627,-2.9627,-2.887,-2.914,-2.9053,-2.8672,-2.9795,-3.0495,-3.0495,-3.0198,-3.0032,-3.0032,-2.9712,-2.9425,-2.9425,-2.9384,-2.9324,-2.9324,-2.9444,-2.9425,-2.9425,-2.9545,-2.9605,-2.9605,-2.9605,-2.9605,-2.9721,-3.0204,-3.0475,-3.0536,-3.0272,-3.0103,-2.9964,-2.9845,-2.9994,-3.0377,-3.0433,-3.0564,-3.0808,-3.0939,-3.0909,-3.0661,-3.0747,-3.0751,-3.0919,-3.1176,-3.1341,-3.1341,-3.1359,-3.1377,-3.1377,-3.1377,-3.1377,-3.1377,-3.1377,-3.1377,-3.1377,-3.1377,-3.1377,-3.1377,-3.1377,-3.1377,-3.1377,-3.1377,-3.1377,-3.1267,-3.1341,-3.1341,-3.1231,-3.1267,-3.1304,-3.1011,-3.0717,-3.0461,-3.0387,-3.0369,-3.0185,-2.4467,-2.4328,-2.3789,-2.3742,-2.398,-2.3774,-2.384,-2.4159,-2.418,-2.4166,-2.426,-2.431,-2.4899,-2.5865,-2.4739,-2.4027,-2.4207,-2.5432,-2.596,-2.6088,-2.7267,-2.8026,-2.8072,-2.8072,-2.8089,-2.8157,-2.8174,-2.8501,-2.8921,-2.8875,-2.9561,-3.102,-3.1002,-3.1569,-3.2207,-3.2315,-3.239,-3.1933,-3.1997,-3.2117,-3.2053,-3.2117,-3.1154,-2.9636,-3.0476,-3.1167,-3.1148,-3.1153,-3.1134,-3.1134,-3.0771,-3.0587,-3.0605,-3.0297,-3.0156,-3.0156,-3.0421,-3.0605,-3.0629,-3.0794,-3.0978,-3.1016,-3.094,-3.1016,-3.0921,-3.1279,-3.1539,-3.16,-3.1581,-3.144,-3.1218,-3.1123,-3.1241,-3.1176,-3.1134,-3.1172,-3.121,-3.1588,-3.1721,-3.1671,-3.1664,-3.1596,-3.1451,-3.1359,-3.1442,-3.1442,-3.1442,-3.1377,-3.1377,-3.1377,-3.1377,-3.1377,-3.1377,-3.1377,-3.1377,-3.1377,-3.1377,-3.1377,-3.1377,-3.1377,-3.1377,-3.1377,-3.1377,-3.1377,-3.1377,-3.1377,-3.1377,-3.1377,-3.1359,-3.1249,-3.1231,-3.1066,-3.0809,-3.0772,-3.0589,-2.4916,-2.4834,-2.4598,-2.4607,-2.4727,-2.4625,-2.4648,-2.4834,-2.5667,-2.6064,-2.6261,-2.6968,-2.7621,-2.8077,-2.7605,-2.7165,-2.6855,-2.7546,-2.7855,-2.7936,-2.8605,-2.8854,-2.8854,-2.8854,-2.9433,-3.0119,-3.0247,-3.0783,-3.1675,-3.1776,-3.2023,-3.2537,-3.2638,-3.2829,-3.3165,-3.3228,-3.3165,-3.3038,-3.3058,-3.3038,-3.3058,-3.3038,-3.2612,-3.1948,-3.1885,-3.1967,-3.1967,-3.1702,-3.155,-3.1612,-3.12,-3.1049,-3.0987,-3.0926,-3.0864,-3.0864,-3.0987,-3.0987,-3.1049,-3.111,-3.1172,-3.1172,-3.1172,-3.1252,-3.1271,-3.1727,-3.2084,-3.2185,-3.2521,-3.27,-3.2478,-3.1927,-3.1531,-3.1822,-3.188,-3.1975,-3.2224,-3.2415,-3.2428,-3.2277,-3.2218,-3.2166,-3.2057,-3.1846,-3.1717,-3.1717,-3.1589,-3.1479,-3.1396,-3.1377,-3.1497,-3.1377,-3.1377,-3.1377,-3.1377,-3.1377,-3.1377,-3.1377,-3.1377,-3.1377,-3.1377,-3.1377,-3.1377,-3.1377,-3.1377,-3.1377,-3.1377,-3.1377,-3.1377,-3.1377,-3.1377,-3.1322,-3.1194,-3.1084,-3.0919,-2.5066,-2.5066,-2.5066,-2.5066,-2.5119,-2.5577,-2.5779,-2.5913,-2.7219,-2.7816,-2.8015,-2.8789,-2.9444,-2.9835,-2.99,-2.9959,-2.9879,-2.9729,-2.9579,-2.9678,-3.0248,-3.0567,-3.0549,-3.0549,-3.1065,-3.1835,-3.1963,-3.2511,-3.3292,-3.3418,-3.3418,-3.3355,-3.3418,-3.3418,-3.3418,-3.3418,-3.3418,-3.3418,-3.3418,-3.3355,-3.3418,-3.3418,-3.3418,-3.3355,-3.2931,-3.2721,-3.274,-3.2453,-3.2344,-3.2243,-3.197,-3.1694,-3.1569,-3.1569,-3.1569,-3.1631,-3.1694,-3.1756,-3.1756,-3.1818,-3.1941,-3.1941,-3.1941,-3.1941,-3.1961,-3.2397,-3.2594,-3.2753,-3.3034,-3.3418,-3.3257,-3.2517,-3.2138,-3.2575,-3.2633,-3.2729,-3.3,-3.3038,-3.2912,-3.2657,-3.2594,-3.2606,-3.2592,-3.2437,-3.2383,-3.2477,-3.2301,-3.2171,-3.2041,-3.1976,-3.1893,-3.1828,-3.1818,-3.1836,-3.1873,-3.1928,-3.1598,-3.1524,-3.1488,-3.1451,-3.1469,-3.1451,-3.1433,-3.1414,-3.1396,-3.1377,-3.1377,-3.1396,-3.1396,-3.1414,-3.1377,-3.1341,-3.1322,-3.1341,-3.1157,-2.5066,-2.5066,-2.5066,-2.5066,-2.5255,-2.6234,-2.6953,-2.702,-2.8411,-2.8986,-2.8986,-2.9313,-3.029,-3.113,-3.1322,-3.2008,-3.2606,-3.1761,-3.1267,-3.1396,-3.2492,-3.3038,-3.3019,-3.2956,-3.2956,-3.3228,-3.3292,-3.3355,-3.3355,-3.3418,-3.3418,-3.3418,-3.3418,-3.3418,-3.3418,-3.3418,-3.3418,-3.3418,-3.3418,-3.3418,-3.3418,-3.3418,-3.3418,-3.3418,-3.3355,-3.3292,-3.3355,-3.3335,-3.3233,-3.3253,-3.298,-3.2721,-3.2435,-3.2371,-3.2365,-3.2435,-3.2683,-3.281,-3.2873,-3.3068,-3.3155,-3.3155,-3.3296,-3.3155,-3.3136,-3.3233,-3.3355,-3.3374,-3.3433,-3.3516,-3.3535,-3.3413,-3.3272,-3.3418,-3.3316,-3.3394,-3.3394,-3.3394,-3.333,-3.3091,-3.3065,-3.3014,-3.3108,-3.3112,-3.3225,-3.3406,-3.3435,-3.3284,-3.3067,-3.3001,-3.2914,-3.2714,-3.2585,-3.2541,-3.2556,-3.2533,-3.2056,-3.1689,-3.1653,-3.1634,-3.1708,-3.1726,-3.1763,-3.1744,-3.1763,-3.1744,-3.1763,-3.1763,-3.1689,-3.1671,-3.1561,-3.1488,-3.1506,-3.1524,-3.1396,-2.5066,-2.5066,-2.5066,-2.5066,-2.5119,-2.5577,-2.5712,-2.6032,-2.8131,-2.9182,-2.9574,-3.1277,-3.2365,-3.2638,-3.2765,-3.2956,-3.3355,-3.2892,-3.2765,-3.2785,-3.3228,-3.3418,-3.3418,-3.3418,-3.3418,-3.3418,-3.3418,-3.3418,-3.3418,-3.3418,-3.3418,-3.3418,-3.3418,-3.3418,-3.3418,-3.3418,-3.3418,-3.3418,-3.3418,-3.3418,-3.3418,-3.3418,-3.3418,-3.3418,-3.3418,-3.3418,-3.3418,-3.3418,-3.3418,-3.3418,-3.3292,-3.3165,-3.3102,-3.3102,-3.3102,-3.3102,-3.3165,-3.3228,-3.3228,-3.3374,-3.3457,-3.3437,-3.3437,-3.3418,-3.3457,-3.3711,-3.3848,-3.3906,-3.4121,-3.4297,-3.4297,-3.4297,-3.4043,-3.3496,-3.3691,-3.3867,-3.3906,-3.4101,-3.4212,-3.4167,-3.4167,-3.418,-3.4127,-3.4054,-3.3934,-3.4002,-3.3908,-3.3709,-3.3624,-3.3633,-3.352,-3.3387,-3.3321,-3.3233,-3.3192,-3.3047,-3.274,-3.2342,-3.2148,-3.1964,-3.2001,-3.2038,-3.2074,-3.2093,-3.2111,-3.2111,-3.2129,-3.2111,-3.2056,-3.2038,-3.2001,-3.1928,-3.1799,-3.1689,-3.1561,-2.5066,-2.5187,-2.5644,-2.5846,-2.6048,-2.6886,-2.7403,-2.7734,-2.977,-3.0743,-3.1212,-3.2575,-3.3418,-3.3418,-3.3418,-3.3516,-3.3652,-3.3672,-3.375,-3.3789,-3.3516,-3.3496,-3.3633,-3.3672,-3.3555,-3.3437,-3.3418,-3.3418,-3.3418,-3.3418,-3.3418,-3.3418,-3.3418,-3.3418,-3.3418,-3.3418,-3.3418,-3.3418,-3.3418,-3.3418,-3.3418,-3.3418,-3.3418,-3.3437,-3.3574,-3.3652,-3.3672,-3.3809,-3.375,-3.3496,-3.3418,-3.3418,-3.3418,-3.3355,-3.3418,-3.3457,-3.3574,-3.3672,-3.3672,-3.3848,-3.3887,-3.3906,-3.3887,-3.3906,-3.3945,-3.4199,-3.4297,-3.4355,-3.4512,-3.4687,-3.4687,-3.4687,-3.4434,-3.3984,-3.4141,-3.4297,-3.4355,-3.4531,-3.4668,-3.4648,-3.4668,-3.4785,-3.4836,-3.4829,-3.4707,-3.4804,-3.4662,-3.4461,-3.4394,-3.4365,-3.4308,-3.4174,-3.4018,-3.3853,-3.3643,-3.3508,-3.3305,-3.3053,-3.2735,-3.2514,-3.2404,-3.2404,-3.2423,-3.2404,-3.2404,-3.2386,-3.2386,-3.2441,-3.2423,-3.2441,-3.2441,-3.2313,-3.2166,-3.1891,-3.1726,-2.5119,-2.539,-2.6568,-2.7086,-2.7485,-2.9687,-3.0531,-3.113,-3.2365,-3.2829,-3.3038,-3.3287,-3.3496,-3.3476,-3.3594,-3.3809,-3.4043,-3.4101,-3.4277,-3.4316,-3.3984,-3.3789,-3.4062,-3.4101,-3.3945,-3.3652,-3.3594,-3.3574,-3.3633,-3.3633,-3.3496,-3.3594,-3.3613,-3.3516,-3.3613,-3.3516,-3.3594,-3.3613,-3.3574,-3.3574,-3.3574,-3.3555,-3.3555,-3.3574,-3.3926,-3.4101,-3.416,-3.4394,-3.4258,-3.3633,-3.3594,-3.3613,-3.3535,-3.3496,-3.3574,-3.3633,-3.3906,-3.4062,-3.418,-3.4375,-3.457,-3.4551,-3.4551,-3.4687,-3.459,-3.4648,-3.4746,-3.4746,-3.4844,-3.4863,-3.4863,-3.4883,-3.4824,-3.4785,-3.4766,-3.4766,-3.4785,-3.4844,-3.4922,-3.4883,-3.4824,-3.4941,-3.5371,-3.543,-3.5519,-3.5733,-3.5811,-3.5569,-3.5433,-3.5258,-3.5256,-3.5081,-3.4743,-3.4569,-3.4456,-3.4338,-3.4115,-3.3818,-3.3484,-3.32,-3.29,-3.2881,-3.2881,-3.2845,-3.2771,-3.2716,-3.2753,-3.2881,-3.29,-3.29,-3.2826,-3.268,-3.2496,-3.2258,-3.2056,-2.5712,-2.6568,-2.6953,-2.7684,-2.8657,-2.9574,-2.9835,-2.9965,-3.1322,-3.2128,-3.2166,-3.3303,-3.3906,-3.3926,-3.4219,-3.4434,-3.4512,-3.4531,-3.457,-3.4648,-3.4512,-3.4414,-3.4512,-3.4531,-3.4473,-3.4336,-3.4277,-3.4375,-3.4355,-3.4297,-3.4316,-3.4355,-3.4297,-3.4316,-3.4355,-3.4316,-3.4355,-3.4355,-3.4355,-3.4336,-3.4316,-3.4316,-3.4355,-3.4375,-3.4473,-3.4531,-3.4551,-3.4629,-3.4629,-3.4414,-3.4375,-3.4375,-3.4316,-3.4316,-3.4277,-3.4316,-3.4434,-3.4531,-3.457,-3.4668,-3.4726,-3.4687,-3.4785,-3.4687,-3.4707,-3.5019,-3.5176,-3.5273,-3.5469,-3.5644,-3.5644,-3.5644,-3.5644,-3.5625,-3.5371,-3.5312,-3.5547,-3.5684,-3.5684,-3.5684,-3.5644,-3.5703,-3.5762,-3.582,-3.5859,-3.5996,-3.6016,-3.5947,-3.5811,-3.5811,-3.5675,-3.5743,-3.5597,-3.5431,-3.5295,-3.5158,-3.4933,-3.4621,-3.4271,-3.3872,-3.3642,-3.3486,-3.3505,-3.3523,-3.3358,-3.3266,-3.3413,-3.3541,-3.3486,-3.3321,-3.3211,-3.3065,-3.2936,-3.2735,-3.2533,-2.6435,-2.7203,-2.8394,-2.9313,-3.016,-3.0678,-3.0936,-3.1166,-3.1976,-3.2501,-3.2789,-3.3753,-3.4336,-3.4355,-3.459,-3.4824,-3.4961,-3.5,-3.5098,-3.5254,-3.5254,-3.5059,-3.4844,-3.4863,-3.4902,-3.4707,-3.4707,-3.4687,-3.4668,-3.4687,-3.4687,-3.4668,-3.4687,-3.4687,-3.4648,-3.4687,-3.4707,-3.4687,-3.4687,-3.4687,-3.4687,-3.4687,-3.4687,-3.4746,-3.4863,-3.5039,-3.5215,-3.5254,-3.5117,-3.4805,-3.4687,-3.4687,-3.4687,-3.4687,-3.4687,-3.4707,-3.4863,-3.498,-3.5039,-3.5137,-3.5254,-3.5273,-3.5254,-3.5254,-3.5312,-3.5527,-3.5664,-3.5684,-3.5898,-3.5996,-3.6035,-3.6035,-3.6035,-3.5957,-3.5801,-3.5762,-3.6016,-3.5996,-3.6016,-3.6035,-3.6035,-3.6035,-3.6035,-3.6035,-3.6035,-3.6035,-3.6035,-3.6035,-3.5967,-3.6035,-3.6035,-3.6016,-3.5879,-3.5606,-3.5401,-3.5264,-3.5196,-3.4902,-3.4696,-3.437,-3.4024,-3.3886,-3.3798,-3.3762,-3.3798,-3.3817,-3.3817,-3.3817,-3.3743,-3.3596,-3.3523,-3.345,-3.334,-3.3156,-3.2936,-2.7286,-2.7734,-3.0272,-3.1368,-3.1726,-3.2886,-3.3218,-3.3447,-3.3817,-3.4011,-3.4154,-3.459,-3.4766,-3.4766,-3.4941,-3.5098,-3.5469,-3.5449,-3.5664,-3.582,-3.5859,-3.5586,-3.5078,-3.5312,-3.5273,-3.5,-3.4863,-3.4902,-3.498,-3.4922,-3.4883,-3.498,-3.4941,-3.4883,-3.498,-3.4922,-3.4844,-3.4941,-3.498,-3.5,-3.5,-3.5,-3.5019,-3.5059,-3.5293,-3.5586,-3.582,-3.5918,-3.5644,-3.4883,-3.4844,-3.4922,-3.4902,-3.4863,-3.4883,-3.4961,-3.5273,-3.5449,-3.5508,-3.5742,-3.5957,-3.5918,-3.5937,-3.6035,-3.5937,-3.5937,-3.5957,-3.5937,-3.6016,-3.6035,-3.6035,-3.6035,-3.6035,-3.6016,-3.5996,-3.6016,-3.6035,-3.6035,-3.6035,-3.6035,-3.6035,-3.6035,-3.6035,-3.6035,-3.6035,-3.6035,-3.6035,-3.6035,-3.6035,-3.6035,-3.6035,-3.6035,-3.5831,-3.5626,-3.547,-3.5333,-3.5196,-3.5059,-3.4921,-3.4646,-3.4163,-3.3955,-3.3886,-3.3817,-3.3817,-3.3817,-3.3817,-3.3817,-3.3817,-3.3798,-3.367,-3.3725,-3.3743,-3.3486,-3.3266,-2.8394,-3.0466,-3.1047,-3.1963,-3.295,-3.3642,-3.3926,-3.3945,-3.4375,-3.457,-3.4668,-3.5039,-3.5234,-3.5273,-3.5527,-3.5801,-3.584,-3.5859,-3.5957,-3.5996,-3.6035,-3.5957,-3.5723,-3.582,-3.5801,-3.5684,-3.5703,-3.5723,-3.5703,-3.5625,-3.5723,-3.5703,-3.5605,-3.5723,-3.5684,-3.5625,-3.5723,-3.5723,-3.5703,-3.5664,-3.5644,-3.5644,-3.5664,-3.5684,-3.5801,-3.5898,-3.5996,-3.6035,-3.5918,-3.5781,-3.5703,-3.5625,-3.5644,-3.5664,-3.5644,-3.5664,-3.5762,-3.5859,-3.5898,-3.5957,-3.6035,-3.6035,-3.6035,-3.6035,-3.6035,-3.6035,-3.6035,-3.6035,-3.6035,-3.6035,-3.6152,-3.6103,-3.6219,-3.6355,-3.6287,-3.6239,-3.6103,-3.6035,-3.6016,-3.6084,-3.6084,-3.6035,-3.6084,-3.6287,-3.6219,-3.6084,-3.6103,-3.6035,-3.6123,-3.621,-3.6172,-3.625,-3.622,-3.6073,-3.6073,-3.5915,-3.5789,-3.5525,-3.533,-3.5009,-3.4527,-3.4094,-3.4024,-3.3955,-3.3817,-3.3817,-3.3817,-3.3817,-3.3817,-3.3817,-3.3817,-3.3817,-3.378,-3.3651,-3.3596,-2.9947,-3.1322,-3.1982,-3.2702,-3.3433,-3.3887,-3.4062,-3.4199,-3.4766,-3.5019,-3.5117,-3.5508,-3.5684,-3.5703,-3.5918,-3.6016,-3.6035,-3.6035,-3.6016,-3.6035,-3.6035,-3.6035,-3.6035,-3.6035,-3.6035,-3.6035,-3.6016,-3.6035,-3.6035,-3.6035,-3.5976,-3.6035,-3.6035,-3.5976,-3.6035,-3.6035,-3.5996,-3.5996,-3.6035,-3.6035,-3.6035,-3.6035,-3.6035,-3.6035,-3.6035,-3.6035,-3.6035,-3.6035,-3.6035,-3.6035,-3.6035,-3.6035,-3.6035,-3.6035,-3.6035,-3.6035,-3.6035,-3.6035,-3.6016,-3.6035,-3.6035,-3.6035,-3.6035,-3.6035,-3.6035,-3.6035,-3.6035,-3.6035,-3.6084,-3.6219,-3.6876,-3.6991,-3.7126,-3.7863,-3.7929,-3.8058,-3.8022,-3.7064,-3.6336,-3.6742,-3.7059,-3.7059,-3.7059,-3.7314,-3.7254,-3.7408,-3.7139,-3.7092,-3.7169,-3.716,-3.672,-3.666,-3.668,-3.6649,-3.6649,-3.661,-3.6483,-3.6178,-3.5874,-3.5544,-3.5116,-3.4665,-3.4214,-3.4094,-3.3955,-3.3817,-3.3817,-3.3817,-3.3817,-3.3817,-3.3817,-3.3817,-3.3798,-3.3725,-3.3725,-3.1451,-3.1707,-3.2892,-3.3418,-3.3496,-3.3945,-3.4199,-3.4316,-3.5117,-3.5488,-3.5547,-3.5879,-3.5957,-3.6016,-3.5996,-3.6035,-3.6035,-3.6035,-3.6035,-3.6035,-3.6035,-3.6035,-3.6035,-3.6035,-3.6035,-3.6035,-3.6035,-3.6035,-3.6035,-3.6035,-3.6035,-3.6035,-3.6035,-3.6035,-3.6035,-3.6035,-3.6035,-3.6035,-3.6035,-3.6035,-3.6035,-3.6035,-3.6035,-3.6035,-3.6035,-3.6035,-3.6035,-3.6035,-3.6055,-3.6113,-3.6113,-3.6152,-3.6191,-3.6035,-3.6035,-3.6035,-3.6035,-3.6035,-3.6035,-3.6035,-3.6035,-3.6035,-3.6454,-3.6542,-3.661,-3.6865,-3.7149,-3.7245,-3.7468,-3.7854,-3.8537,-3.8842,-3.9332,-4.0016,-4.0389,-4.0673,-4.0495,-3.8543,-3.8124,-3.8486,-3.8946,-3.8988,-3.8992,-3.908,-3.8866,-3.8629,-3.8316,-3.813,-3.8187,-3.7912,-3.7401,-3.6973,-3.6992,-3.6992,-3.6992,-3.7012,-3.6953,-3.6755,-3.648,-3.6166,-3.5747,-3.5546,-3.5129,-3.4338,-3.4075,-3.4043,-3.3974,-3.4024,-3.3955,-3.3886,-3.3817,-3.3817,-3.3817,-3.3817,-3.3817,-3.1982,-3.3082,-3.3292,-3.3418,-3.3555,-3.4258,-3.459,-3.4746,-3.5527,-3.5918,-3.5918,-3.5976,-3.6035,-3.6035,-3.6035,-3.6035,-3.6035,-3.6035,-3.6035,-3.6035,-3.6035,-3.6035,-3.6035,-3.6035,-3.6035,-3.6035,-3.6035,-3.6035,-3.6035,-3.6035,-3.6035,-3.6035,-3.6035,-3.6035,-3.6035,-3.6035,-3.6035,-3.6035,-3.6035,-3.6035,-3.6035,-3.6035,-3.6035,-3.6035,-3.6035,-3.6055,-3.6055,-3.6055,-3.6172,-3.6523,-3.6562,-3.6738,-3.6797,-3.6406,-3.6152,-3.6133,-3.6289,-3.6445,-3.6445,-3.6298,-3.6123,-3.6366,-3.7556,-3.8329,-3.8479,-3.8753,-3.9176,-4.0053,-4.0412,-4.0791,-4.1125,-4.104,-4.1216,-4.155,-4.1684,-4.1816,-4.1705,-4.1348,-4.088,-4.1371,-4.1371,-4.0883,-4.0619,-4.0265,-3.9908,-3.9416,-3.8895,-3.8726,-3.8718,-3.8425,-3.7858,-3.7547,-3.7246,-3.7246,-3.7246,-3.7285,-3.7285,-3.7266,-3.7027,-3.6848,-3.6572,-3.6509,-3.6093,-3.5344,-3.4783,-3.4658,-3.457,-3.4306,-3.4112,-3.3904,-3.3835,-3.3817,-3.3817,-3.3817,-3.3817,-3.2765,-3.3355,-3.3418,-3.3555,-3.3848,-3.4434,-3.4844,-3.5137,-3.5742,-3.6035,-3.6035,-3.6035,-3.6035,-3.6035,-3.6035,-3.6035,-3.6035,-3.6035,-3.6035,-3.6035,-3.6035,-3.6035,-3.6035,-3.6035,-3.6035,-3.6035,-3.6035,-3.6035,-3.6035,-3.6035,-3.6035,-3.6035,-3.6035,-3.6035,-3.6035,-3.6035,-3.6035,-3.6035,-3.6035,-3.6035,-3.6035,-3.6035,-3.6035,-3.6035,-3.6055,-3.6133,-3.6348,-3.6367,-3.6562,-3.6894,-3.6992,-3.7109,-3.7109,-3.6992,-3.668,-3.6749,-3.7262,-3.7722,-3.7996,-3.8405,-3.9125,-3.9171,-3.9901,-4.0323,-4.0455,-4.0651,-4.1136,-4.1588,-4.1835,-4.2104,-4.2726,-4.286,-4.3169,-4.3762,-4.3874,-4.4012,-4.4216,-4.4285,-4.4267,-4.4136,-4.3462,-4.2571,-4.1591,-4.1255,-4.0779,-4.0188,-3.9612,-3.9481,-3.9507,-3.9269,-3.8959,-3.8394,-3.813,-3.7793,-3.7773,-3.7754,-3.7695,-3.7637,-3.7617,-3.7416,-3.7248,-3.7087,-3.6894,-3.6425,-3.5984,-3.5597,-3.4952,-3.4762,-3.4316,-3.4029,-3.3941,-3.3853,-3.3835,-3.3817,-3.3817,-3.3418,-3.3418,-3.3418,-3.3672,-3.4101,-3.4512,-3.4961,-3.541,-3.584,-3.6035,-3.6035,-3.6035,-3.6035,-3.6035,-3.6035,-3.6035,-3.6035,-3.6035,-3.6035,-3.6035,-3.6035,-3.6035,-3.6035,-3.6035,-3.6035,-3.6035,-3.6035,-3.6035,-3.6035,-3.6035,-3.6035,-3.6035,-3.6035,-3.6035,-3.6035,-3.6035,-3.6035,-3.6035,-3.6035,-3.6035,-3.6035,-3.6035,-3.6074,-3.6152,-3.6152,-3.6367,-3.6758,-3.6797,-3.7012,-3.7305,-3.7441,-3.748,-3.7539,-3.7559,-3.7559,-3.7732,-3.8557,-3.8922,-3.9296,-4.0124,-4.0469,-4.038,-4.1812,-4.2102,-4.21,-4.2188,-4.2614,-4.2526,-4.3108,-4.3621,-4.4553,-4.4592,-4.5076,-4.5687,-4.6084,-4.6261,-4.6377,-4.6436,-4.6466,-4.6083,-4.5287,-4.4576,-4.3778,-4.3085,-4.2858,-4.2292,-4.165,-4.1257,-4.1268,-4.0871,-4.0464,-3.9647,-3.9102,-3.8543,-3.8379,-3.832,-3.8223,-3.8066,-3.8047,-3.7936,-3.778,-3.7624,-3.7468,-3.7358,-3.7203,-3.677,-3.593,-3.5201,-3.4929,-3.4622,-3.4158,-3.389,-3.3853,-3.3817,-3.3817,-3.3418,-3.3418,-3.3418,-3.3672,-3.4121,-3.4551,-3.498,-3.5449,-3.5859,-3.6016,-3.6035,-3.6035,-3.6035,-3.6035,-3.6035,-3.6035,-3.6035,-3.6035,-3.6035,-3.6035,-3.6035,-3.6035,-3.6035,-3.6035,-3.6035,-3.6035,-3.6035,-3.6035,-3.6035,-3.6035,-3.6035,-3.6035,-3.6035,-3.6035,-3.6035,-3.6035,-3.6035,-3.6035,-3.6035,-3.6035,-3.6055,-3.6074,-3.625,-3.6504,-3.669,-3.6866,-3.7219,-3.7297,-3.7563,-3.7864,-3.7851,-3.8047,-3.834,-3.8418,-3.8418,-3.8275,-3.8007,-3.7566,-3.8327,-4.0082,-4.104,-4.167,-4.2861,-4.322,-4.3467,-4.4053,-4.4798,-4.4959,-4.5812,-4.6343,-4.6471,-4.6878,-4.7125,-4.7053,-4.7088,-4.7136,-4.7329,-4.7185,-4.7353,-4.7287,-4.631,-4.6561,-4.6366,-4.5611,-4.4914,-4.4346,-4.3707,-4.3203,-4.2557,-4.1909,-4.1207,-4.0259,-3.9353,-3.8793,-3.8574,-3.8574,-3.8535,-3.8398,-3.8379,-3.8359,-3.8223,-3.8105,-3.8281,-3.8189,-3.8064,-3.7725,-3.6976,-3.6257,-3.5746,-3.5149,-3.4574,-3.4213,-3.3872,-3.3835,-3.3835,-3.3418,-3.3437,-3.3691,-3.4043,-3.4453,-3.4902,-3.5351,-3.5723,-3.5937,-3.6035,-3.6035,-3.6035,-3.6035,-3.6035,-3.6035,-3.6035,-3.6035,-3.6035,-3.6035,-3.6035,-3.6035,-3.6035,-3.6035,-3.6035,-3.6035,-3.6035,-3.6035,-3.6035,-3.6035,-3.6035,-3.6035,-3.6035,-3.6035,-3.6035,-3.6035,-3.6035,-3.6035,-3.6035,-3.6055,-3.6152,-3.6328,-3.6426,-3.6601,-3.7062,-3.7241,-3.7477,-3.7681,-3.8153,-3.8371,-3.8635,-3.859,-3.8741,-3.8826,-3.8793,-3.8846,-3.9778,-3.9566,-3.9768,-4.0731,-4.2604,-4.3308,-4.3984,-4.5198,-4.5829,-4.5608,-4.5815,-4.6473,-4.6583,-4.7074,-4.7431,-4.7497,-4.7497,-4.7497,-4.7497,-4.7497,-4.7497,-4.7497,-4.7497,-4.7473,-4.7497,-4.7497,-4.7497,-4.7364,-4.6426,-4.5277,-4.4436,-4.3796,-4.3291,-4.2527,-4.1707,-4.1092,-4.0371,-3.9478,-3.8647,-3.8574,-3.8574,-3.8574,-3.8496,-3.8496,-3.8496,-3.8535,-3.8535,-3.8574,-3.8574,-3.8404,-3.8098,-3.7681,-3.7182,-3.6504,-3.5755,-3.5064,-3.4667,-3.4323,-3.3872,-3.3853,-3.3418,-3.3476,-3.3887,-3.4316,-3.4746,-3.5195,-3.5625,-3.5996,-3.6016,-3.6035,-3.6035,-3.6035,-3.6035,-3.6035,-3.6035,-3.6035,-3.6035,-3.6035,-3.6035,-3.6035,-3.6035,-3.6035,-3.6035,-3.6035,-3.6035,-3.6035,-3.6035,-3.6035,-3.6035,-3.6035,-3.6035,-3.6035,-3.6035,-3.6035,-3.6035,-3.6035,-3.6074,-3.625,-3.6367,-3.6632,-3.6946,-3.7164,-3.742,-3.7746,-3.7995,-3.8224,-3.8438,-3.8875,-3.9238,-3.9253,-3.9818,-3.989,-3.9445,-3.9642,-3.9694,-4.0514,-4.0817,-4.1994,-4.3178,-4.471,-4.665,-4.6941,-4.7008,-4.6579,-4.7184,-4.7298,-4.7298,-4.7232,-4.7431,-4.7497,-4.7497,-4.7497,-4.7497,-4.7497,-4.7497,-4.7497,-4.7497,-4.7497,-4.7497,-4.7497,-4.7497,-4.7497,-4.7208,-4.6516,-4.5617,-4.455,-4.3863,-4.3379,-4.2543,-4.163,-4.1084,-4.0463,-3.9425,-3.8647,-3.8574,-3.8574,-3.8574,-3.8574,-3.8574,-3.8574,-3.8574,-3.8574,-3.8574,-3.8574,-3.8574,-3.8496,-3.8117,-3.7692,-3.7249,-3.6618,-3.5939,-3.5358,-3.4885,-3.4323,-3.3908,-3.3418,-3.3457,-3.3906,-3.4316,-3.4746,-3.5195,-3.5644,-3.6016,-3.6035,-3.6035,-3.6035,-3.6035,-3.6035,-3.6035,-3.6035,-3.6035,-3.6035,-3.6035,-3.6035,-3.6035,-3.6035,-3.6035,-3.6035,-3.6035,-3.6035,-3.6016,-3.6084,-3.6084,-3.6016,-3.6084,-3.6016,-3.6035,-3.6055,-3.6035,-3.6113,-3.6279,-3.6455,-3.6769,-3.6947,-3.7371,-3.7758,-3.8077,-3.8467,-3.8788,-3.8979,-3.9231,-3.9562,-3.9685,-3.9685,-3.9714,-4.077,-4.0963,-4.0412,-4.1034,-4.1297,-4.158,-4.2731,-4.3841,-4.4892,-4.5458,-4.5549,-4.5617,-4.5911,-4.665,-4.7563,-4.6315,-4.6248,-4.7364,-4.7497,-4.7497,-4.7497,-4.7497,-4.7497,-4.7497,-4.7497,-4.7497,-4.7497,-4.7497,-4.7497,-4.7497,-4.7497,-4.7497,-4.7497,-4.6941,-4.6808,-4.582,-4.407,-4.3517,-4.2543,-4.17,-4.1226,-4.0535,-3.9425,-3.872,-3.8647,-3.8574,-3.8574,-3.8574,-3.8574,-3.8574,-3.8574,-3.8574,-3.8574,-3.8574,-3.8574,-3.8574,-3.8574,-3.818,-3.7788,-3.736,-3.6895,-3.6142,-3.5448,-3.4811,-3.4357,-3.3574,-3.3867,-3.4277,-3.4551,-3.4766,-3.5469,-3.5879,-3.6016,-3.6035,-3.6035,-3.6035,-3.6035,-3.6035,-3.6035,-3.6035,-3.6035,-3.6035,-3.6035,-3.6035,-3.6035,-3.6035,-3.6035,-3.6035,-3.6016,-3.6035,-3.6084,-3.6219,-3.6219,-3.6016,-3.6259,-3.6552,-3.6524,-3.6348,-3.625,-3.6416,-3.6897,-3.7223,-3.746,-3.7788,-3.8247,-3.8588,-3.8779,-3.903,-3.9412,-3.9759,-3.9748,-3.9766,-4.0218,-4.0218,-4.0504,-4.1601,-4.1601,-4.158,-4.2543,-4.3171,-4.3218,-4.4664,-4.5571,-4.6493,-4.6984,-4.734,-4.734,-4.7407,-4.7563,-4.805,-4.734,-4.7208,-4.763,-4.763,-4.7563,-4.7497,-4.7497,-4.7497,-4.7497,-4.7497,-4.7497,-4.7497,-4.7497,-4.7497,-4.7497,-4.7497,-4.7497,-4.7497,-4.7431,-4.7431,-4.7141,-4.5255,-4.3448,-4.2403,-4.1488,-4.0942,-4.0463,-3.9281,-3.872,-3.8647,-3.8574,-3.8574,-3.8574,-3.8574,-3.8574,-3.8574,-3.8574,-3.8574,-3.8574,-3.8574,-3.8574,-3.8574,-3.8448,-3.8185,-3.7846,-3.736,-3.6837,-3.6067,-3.5373,-3.4793,-3.3789,-3.4141,-3.4687,-3.4902,-3.5019,-3.5703,-3.6035,-3.6035,-3.6035,-3.6035,-3.6035,-3.6035,-3.6035,-3.6035,-3.6035,-3.6035,-3.6035,-3.6035,-3.6035,-3.6016,-3.6084,-3.6152,-3.6219,-3.6287,-3.6423,-3.6423,-3.6578,-3.6578,-3.666,-3.6805,-3.7152,-3.7311,-3.7065,-3.7095,-3.7322,-3.7758,-3.8137,-3.8307,-3.8648,-3.906,-3.9425,-3.9627,-3.976,-4.0105,-4.032,-4.0341,-4.0289,-4.0504,-4.0668,-4.1197,-4.2025,-4.2635,-4.3032,-4.3725,-4.496,-4.5594,-4.6268,-4.716,-4.7936,-4.851,-4.8535,-4.8313,-4.8379,-4.8445,-4.851,-4.8313,-4.8116,-4.8092,-4.7984,-4.7762,-4.7696,-4.7696,-4.7563,-4.7563,-4.7497,-4.7497,-4.7497,-4.7497,-4.7497,-4.7497,-4.7497,-4.7497,-4.7497,-4.7364,-4.6449,-4.6449,-4.5481,-4.3448,-4.163,-4.0871,-4.032,-3.9818,-3.9208,-3.8793,-3.8574,-3.8574,-3.8574,-3.8574,-3.8574,-3.8574,-3.8574,-3.8574,-3.8574,-3.8574,-3.8574,-3.8574,-3.8574,-3.8501,-3.8448,-3.8263,-3.7793,-3.7307,-3.6569,-3.589,-3.525,-3.4062,-3.418,-3.5,-3.5351,-3.541,-3.582,-3.6035,-3.6035,-3.6035,-3.6035,-3.6035,-3.6035,-3.6035,-3.6035,-3.6035,-3.6035,-3.6016,-3.6016,-3.6084,-3.6132,-3.6403,-3.6451,-3.6626,-3.6781,-3.6969,-3.7051,-3.726,-3.7501,-3.7674,-3.7743,-3.8004,-3.8396,-3.8386,-3.8386,-3.8496,-3.8496,-3.8738,-3.9061,-3.9495,-3.9902,-4.0177,-4.0473,-4.0606,-4.0627,-4.074,-4.074,-4.1147,-4.1218,-4.1431,-4.1975,-4.3885,-4.4001,-4.2774,-4.5638,-4.6201,-4.4573,-4.6469,-4.7425,-4.7648,-4.8223,-4.8641,-4.8772,-4.8837,-4.8772,-4.8666,-4.8576,-4.8576,-4.8576,-4.8445,-4.8313,-4.8182,-4.796,-4.7828,-4.7696,-4.763,-4.7497,-4.7563,-4.7497,-4.7497,-4.7497,-4.7497,-4.7497,-4.7497,-4.7141,-4.5752,-4.5187,-4.5051,-4.3725,-4.1841,-4.0942,-4.0728,-4.0033,-3.955,-3.8991,-3.8865,-3.8647,-3.8574,-3.8574,-3.8574,-3.8574,-3.8574,-3.8574,-3.8574,-3.8574,-3.8574,-3.8574,-3.8574,-3.8574,-3.8501,-3.8375,-3.8228,-3.7797,-3.7074,-3.6482,-3.598,-3.4238,-3.4551,-3.5137,-3.5547,-3.5801,-3.5957,-3.6035,-3.6035,-3.6035,-3.6035,-3.6035,-3.6035,-3.6035,-3.6035,-3.6016,-3.6016,-3.6016,-3.6268,-3.6336,-3.6403,-3.6761,-3.6856,-3.7092,-3.7401,-3.7589,-3.7758,-3.7968,-3.8219,-3.8275,-3.8482,-3.8885,-3.921,-3.9616,-3.9606,-3.9313,-3.9283,-3.977,-3.9922,-4.0248,-4.0595,-4.0719,-4.0882,-4.1004,-4.1004,-4.1147,-4.1502,-4.2257,-4.2327,-4.2678,-4.347,-4.5594,-4.5706,-4.5028,-4.7689,-4.8109,-4.7293,-4.8722,-4.8787,-4.8918,-4.9202,-4.9227,-4.9227,-4.9227,-4.9227,-4.9227,-4.9032,-4.8967,-4.8902,-4.8772,-4.8576,-4.8445,-4.8379,-4.8248,-4.796,-4.7828,-4.7696,-4.763,-4.7497,-4.7497,-4.7497,-4.7497,-4.7497,-4.7497,-4.7431,-4.6315,-4.5549,-4.5549,-4.5051,-4.3517,-4.2543,-4.1982,-4.1013,-4.0249,-3.955,-3.9136,-3.9208,-3.9063,-3.8991,-3.8793,-3.8574,-3.8574,-3.8574,-3.8574,-3.8574,-3.8574,-3.8574,-3.8574,-3.8574,-3.8574,-3.8501,-3.8375,-3.8302,-3.7797,-3.7364,-3.7024,-3.4453,-3.4766,-3.5351,-3.5762,-3.5996,-3.6035,-3.6035,-3.6035,-3.6035,-3.6035,-3.6035,-3.6035,-3.6035,-3.6016,-3.6152,-3.62,-3.62,-3.6539,-3.6921,-3.6989,-3.732,-3.7597,-3.7847,-3.8145,-3.8445,-3.8567,-3.88,-3.9093,-3.9138,-3.9347,-3.9663,-4.0124,-4.0574,-4.0329,-4.0075,-4.0198,-4.0463,-4.0535,-4.0749,-4.1197,-4.1502,-4.1855,-4.2046,-4.2376,-4.2656,-4.2936,-4.3562,-4.3976,-4.4252,-4.5458,-4.6469,-4.7136,-4.7425,-4.8371,-4.9112,-4.9047,-4.9396,-4.9461,-4.9525,-4.9525,-4.9461,-4.9525,-4.959,-4.959,-4.959,-4.9396,-4.9332,-4.9227,-4.9032,-4.8902,-4.8772,-4.8772,-4.8641,-4.8289,-4.8026,-4.7894,-4.7762,-4.7696,-4.7497,-4.7497,-4.7497,-4.7497,-4.7497,-4.7364,-4.7008,-4.654,-4.6113,-4.5617,-4.5051,-4.407,-4.3101,-4.2193,-4.1488,-4.1084,-4.0443,-4.0033,-3.9838,-3.9405,-3.9063,-3.8647,-3.8574,-3.8574,-3.8574,-3.8574,-3.8574,-3.8574,-3.8574,-3.8574,-3.8574,-3.8574,-3.8574,-3.8501,-3.8428,-3.8088,-3.7692,-3.4707,-3.4844,-3.5664,-3.6016,-3.6035,-3.6016,-3.6016,-3.6035,-3.6035,-3.6035,-3.6035,-3.6016,-3.6084,-3.6152,-3.6403,-3.6559,-3.6686,-3.7024,-3.7441,-3.7819,-3.8173,-3.8486,-3.8897,-3.9219,-3.9281,-3.944,-3.9654,-3.9894,-4.015,-4.015,-4.0377,-4.0717,-4.082,-4.0871,-4.0942,-4.1176,-4.1075,-4.0954,-4.0882,-4.136,-4.1855,-4.2678,-4.3145,-4.3631,-4.4023,-4.4504,-4.4914,-4.5119,-4.5323,-4.6066,-4.687,-4.6536,-4.6936,-4.815,-4.815,-4.8371,-4.9047,-4.9396,-4.959,-4.959,-4.959,-4.959,-4.959,-4.959,-4.959,-4.9525,-4.9461,-4.9461,-4.9396,-4.9267,-4.9137,-4.9072,-4.8967,-4.8616,-4.8289,-4.8158,-4.796,-4.7762,-4.763,-4.7497,-4.7497,-4.7497,-4.7497,-4.7431,-4.7364,-4.7165,-4.6674,-4.618,-4.5617,-4.4983,-4.407,-4.3448,-4.2962,-4.2753,-4.2052,-4.0871,-4.032,-3.9838,-3.9063,-3.8574,-3.8574,-3.8574,-3.8574,-3.8574,-3.8574,-3.8574,-3.8574,-3.8574,-3.8574,-3.8574,-3.8574,-3.8574,-3.8428,-3.8282,-3.7943,-3.4902,-3.5254,-3.5781,-3.6035,-3.6016,-3.6268,-3.62,-3.6016,-3.6035,-3.6035,-3.6016,-3.6268,-3.6403,-3.6384,-3.6742,-3.7077,-3.7461,-3.7827,-3.8206,-3.8616,-3.8938,-3.9227,-3.9481,-3.9798,-3.9992,-4.0137,-4.0282,-4.0448,-4.0613,-4.0655,-4.0675,-4.0862,-4.0882,-4.136,-4.1926,-4.2398,-4.1714,-4.1289,-4.1075,-4.1764,-4.2327,-4.3075,-4.3769,-4.4321,-4.4504,-4.5187,-4.6335,-4.5864,-4.6268,-4.8109,-4.8567,-4.8502,-4.8698,-4.9177,-4.9177,-4.9112,-4.9461,-4.959,-4.959,-4.959,-4.959,-4.959,-4.959,-4.959,-4.959,-4.959,-4.959,-4.959,-4.959,-4.9461,-4.9396,-4.9332,-4.9202,-4.9007,-4.8682,-4.8486,-4.8289,-4.8026,-4.7828,-4.763,-4.7563,-4.7497,-4.7497,-4.7497,-4.7431,-4.7497,-4.7274,-4.6717,-4.6315,-4.5752,-4.5255,-4.4709,-4.4207,-4.407,-4.2473,-4.1084,-4.0657,-4.0177,-3.9353,-3.8647,-3.8574,-3.8574,-3.8574,-3.8574,-3.8574,-3.8574,-3.8574,-3.8574,-3.8574,-3.8574,-3.8574,-3.8501,-3.8428,-3.8355,-3.8355,-3.498,-3.543,-3.5975,-3.6287,-3.6491,-3.6674,-3.6606,-3.6423,-3.6403,-3.6355,-3.6268,-3.6606,-3.6821,-3.7069,-3.7468,-3.7874,-3.828,-3.8664,-3.9027,-3.9425,-3.9667,-3.9902,-4.0137,-4.0303,-4.0448,-4.0593,-4.0696,-4.0779,-4.0882,-4.0882,-4.0882,-4.0882,-4.0882,-4.1431,-4.1855,-4.1855,-4.1643,-4.1622,-4.1975,-4.2705,-4.3331,-4.4023,-4.4846,-4.5278,-4.5346,-4.656,-4.7755,-4.7003,-4.8019,-4.9396,-4.9525,-4.959,-4.9525,-4.959,-4.959,-4.9525,-4.9525,-4.959,-4.959,-4.959,-4.959,-4.959,-4.959,-4.959,-4.959,-4.959,-4.959,-4.959,-4.959,-4.959,-4.959,-4.959,-4.9461,-4.9332,-4.9137,-4.8877,-4.8616,-4.8355,-4.8092,-4.7762,-4.763,-4.7497,-4.7497,-4.7497,-4.7497,-4.7497,-4.7497,-4.7274,-4.7074,-4.6874,-4.6583,-4.618,-4.5685,-4.5187,-4.3517,-4.2123,-4.17,-4.1013,-3.955,-3.8991,-3.8793,-3.8574,-3.8574,-3.8574,-3.8574,-3.8574,-3.8574,-3.8574,-3.8574,-3.8574,-3.8574,-3.8574,-3.8574,-3.8501,-3.8501,-3.5066,-3.5555,-3.6226,-3.6722,-3.7079,-3.7146,-3.7146,-3.7146,-3.7146,-3.6944,-3.6674,-3.6984,-3.7448,-3.7758,-3.8173,-3.8616,-3.906,-3.9391,-3.9688,-4.0261,-4.0212,-4.0406,-4.0634,-4.0862,-4.0758,-4.082,-4.0882,-4.0882,-4.0882,-4.0882,-4.0882,-4.0882,-4.0882,-4.1289,-4.1714,-4.1785,-4.1905,-4.2516,-4.354,-4.4618,-4.5435,-4.6603,-4.7755,-4.8436,-4.8567,-4.8958,-4.9242,-4.9396,-4.9525,-4.9525,-4.959,-4.959,-4.959,-4.959,-4.959,-4.959,-4.959,-4.959,-4.959,-4.959,-4.959,-4.959,-4.959,-4.959,-4.959,-4.959,-4.959,-4.959,-4.959,-4.959,-4.959,-4.959,-4.9525,-4.9461,-4.9332,-4.9137,-4.8877,-4.8616,-4.8313,-4.8026,-4.7828,-4.7696,-4.763,-4.763,-4.7497,-4.7497,-4.7497,-4.7497,-4.7497,-4.7497,-4.7364,-4.7141,-4.6315,-4.5752,-4.5685,-4.4344,-4.324,-4.2052,-4.032,-3.9478,-3.9478,-3.9063,-3.8574,-3.8574,-3.8574,-3.8574,-3.8574,-3.8574,-3.8574,-3.8574,-3.8574,-3.8574,-3.8574,-3.8574,-3.8574,-3.5554,-3.6226,-3.6749,-3.7146,-3.7482,-3.7482,-3.7482,-3.7482,-3.7837,-3.7589,-3.7206,-3.7692,-3.8072,-3.8343,-3.8924,-3.9412,-3.9832,-4.0005,-4.0274,-4.0622,-4.0746,-4.0817,-4.0912,-4.1096,-4.1025,-4.0882,-4.0882,-4.1075,-4.1075,-4.1004,-4.0954,-4.0954,-4.1075,-4.1502,-4.2538,-4.2538,-4.2936,-4.3678,-4.4413,-4.4344,-4.3678,-4.4092,-4.4778,-4.5999,-4.667,-4.8019,-4.8371,-4.8567,-4.8918,-4.9332,-4.9525,-4.959,-4.959,-4.959,-4.959,-4.959,-4.959,-4.959,-4.959,-4.959,-4.959,-4.959,-4.959,-4.959,-4.959,-4.959,-4.959,-4.959,-4.959,-4.959,-4.959,-4.959,-4.959,-4.9525,-4.9525,-4.9332,-4.9137,-4.8877,-4.8576,-4.8379,-4.8092,-4.796,-4.7828,-4.7696,-4.7563,-4.7497,-4.7497,-4.7497,-4.7497,-4.7497,-4.7497,-4.7141,-4.6113,-4.5752,-4.6248,-4.5458,-4.3863,-4.2823,-4.1297,-4.0657,-4.0105,-3.9333,-3.8574,-3.8574,-3.8574,-3.8574,-3.8574,-3.8574,-3.8574,-3.8574,-3.8574,-3.8574,-3.8574,-3.8574,-3.8574,-3.6057,-3.6769,-3.7146,-3.7549,-3.7837,-3.7904,-3.7837,-3.7945,-3.8311,-3.8279,-3.7942,-3.8344,-3.8699,-3.9006,-3.9674,-4.0075,-4.0427,-4.051,-4.0634,-4.0871,-4.136,-4.1339,-4.136,-4.1573,-4.1926,-4.1926,-4.1855,-4.1926,-4.1714,-4.1147,-4.1004,-4.1714,-4.1975,-4.2538,-4.3838,-4.4114,-4.4298,-4.5096,-4.5187,-4.4252,-4.2748,-4.37,-4.5255,-4.6335,-4.7003,-4.7887,-4.8436,-4.8722,-4.9047,-4.9396,-4.9525,-4.959,-4.959,-4.959,-4.959,-4.959,-4.959,-4.959,-4.959,-4.959,-4.959,-4.959,-4.959,-4.959,-4.959,-4.959,-4.959,-4.959,-4.959,-4.959,-4.959,-4.959,-4.959,-4.959,-4.9525,-4.9461,-4.9332,-4.9072,-4.8942,-4.8747,-4.8551,-4.8313,-4.8182,-4.796,-4.7828,-4.7696,-4.7696,-4.7588,-4.7521,-4.7617,-4.7593,-4.7436,-4.659,-4.6294,-4.6808,-4.5526,-4.3495,-4.2683,-4.2333,-4.0586,-3.9478,-3.8991,-3.8574,-3.8574,-3.8574,-3.8574,-3.8574,-3.8574,-3.8574,-3.8574,-3.8574,-3.8574,-3.8574,-3.8574,-3.8574,-3.6543,-3.726,-3.7549,-3.7904,-3.8191,-3.8191,-3.8233,-3.8336,-3.8667,-3.8848,-3.8993,-3.9013,-3.9537,-3.9972,-4.0323,-4.0572,-4.0737,-4.0737,-4.0841,-4.1481,-4.2138,-4.2257,-4.2398,-4.2538,-4.2678,-4.3027,-4.3167,-4.3027,-4.2818,-4.2398,-4.2516,-4.3214,-4.3631,-4.3976,-4.4846,-4.5164,-4.5164,-4.5233,-4.5324,-4.5506,-4.5347,-4.5346,-4.667,-4.7689,-4.8306,-4.824,-4.9112,-4.959,-4.959,-4.959,-4.959,-4.959,-4.959,-4.959,-4.959,-4.959,-4.959,-4.959,-4.959,-4.959,-4.959,-4.959,-4.959,-4.959,-4.959,-4.959,-4.959,-4.9615,-4.9615,-4.9615,-4.9615,-4.959,-4.959,-4.9615,-4.9615,-4.964,-4.9511,-4.9382,-4.9317,-4.9187,-4.8992,-4.8756,-4.8559,-4.8338,-4.814,-4.8075,-4.7877,-4.7768,-4.7708,-4.7834,-4.793,-4.7906,-4.7595,-4.7452,-4.7503,-4.6157,-4.4207,-4.4001,-4.3517,-4.0871,-3.8991,-3.8865,-3.872,-3.8574,-3.8574,-3.8574,-3.8574,-3.8574,-3.8574,-3.8574,-3.8574,-3.8574,-3.8574,-3.8574,-3.8574,-3.7294,-3.7991,-3.8037,-3.8125,-3.8191,-3.8191,-3.8398,-3.8641,-3.8812,-3.9158,-3.9765,-3.9881,-4.0137,-4.0241,-4.0613,-4.0912,-4.0891,-4.1025,-4.1926,-4.2678,-4.2608,-4.3123,-4.3609,-4.3769,-4.3236,-4.3631,-4.4252,-4.4114,-4.4045,-4.4161,-4.4413,-4.4778,-4.4778,-4.4983,-4.5142,-4.5481,-4.5822,-4.6029,-4.6421,-4.6765,-4.7032,-4.6823,-4.6315,-4.7003,-4.7623,-4.8371,-4.9177,-4.9525,-4.959,-4.959,-4.959,-4.959,-4.959,-4.959,-4.959,-4.959,-4.959,-4.959,-4.959,-4.959,-4.959,-4.959,-4.959,-4.959,-4.959,-4.959,-4.964,-4.969,-4.969,-4.964,-4.964,-4.9615,-4.9615,-4.9665,-4.969,-4.9741,-4.9726,-4.9726,-4.9686,-4.9556,-4.9426,-4.9296,-4.9165,-4.8969,-4.8731,-4.8599,-4.8335,-4.8209,-4.8458,-4.8396,-4.8291,-4.8291,-4.8291,-4.7906,-4.7617,-4.7165,-4.5887,-4.5617,-4.4709,-4.2123,-4.0177,-3.9063,-3.8846,-3.872,-3.8574,-3.8574,-3.8574,-3.8574,-3.8574,-3.8574,-3.8574,-3.8574,-3.8574,-3.8574,-3.8574]},{"header":{"parameterUnit":"m.s-1","parameterCategory":1,"la1":31.0,"la2":29.5877,"lo1":-88.7671,"lo2":-86.6584,"dx":0.0162,"dy":0.0185,"nx":115,"ny":88,"refTime":"2023-02-05T00:00:00:Z","depth":0,"parameterNumber":3,"parameterNumberName":"V-component_of_WINDS"},"data":[0.0,0.0,0.0,0.0,0.0,0.0,0.0,0.0,0.0,0.0,0.0,0.0,0.0,0.0,0.0,0.0,0.0,0.0,0.0,0.0,0.0,0.0,0.0,0.0,0.0,0.0,0.0,0.0,0.0,0.0,0.0,0.0,0.0,0.0,0.0,0.0,0.0,0.0,0.0,0.0,0.0,0.0,0.0,0.0,0.0,0.0,0.0,0.0,0.0,0.0,0.0,0.0,0.0,0.0,0.0,0.0,0.0,0.0,0.0,0.0,0.0,0.0,0.0,0.0,0.0,0.0,0.0,0.0,0.0,0.0,0.0,0.0,0.0,0.0,0.0,0.0,0.0,0.0,0.0,0.0,0.0,0.0,0.0,0.0,0.0,0.0,0.0,0.0,0.0,0.0,0.0,0.0,0.0,0.0,0.0,0.0,0.0,0.0,0.0,0.0,0.0,0.0,0.0,0.0,0.0,0.0,0.0,0.0,0.0,0.0,0.0,0.0,0.0,0.0,0.0,0.0,0.0,0.0,0.0,0.0,0.0,0.0,0.0,0.0,0.0,0.0,0.0,0.0,0.0,0.0,0.0,0.0,0.0,0.0,0.0,0.0,0.0,0.0,0.0,0.0,0.0,0.0,0.0,0.0,0.0,0.0,0.0,0.0,0.0,0.0,0.0,0.0,0.0,0.0,0.0,0.0,0.0,0.0,0.0,0.0,0.0,0.0,0.0,0.0,0.0,0.0,0.0,0.0,0.0,0.0,0.0,0.0,0.0,0.0,0.0,0.0,0.0,0.0,0.0,0.0,0.0,0.0,0.0,0.0,0.0,0.0,0.0,0.0,0.0,0.0,0.0,0.0,0.0,0.0,0.0,0.0,0.0,0.0,0.0,0.0,0.0,0.0,0.0,0.0,0.0,0.0,0.0,0.0,0.0,0.0,0.0,0.0,0.0,0.0,0.0,0.0,0.0,0.0,0.0,0.0,0.0,0.0,0.0,0.0,0.0,0.0,0.0,0.0,0.0,0.0,0.0,0.0,0.0,0.0,0.0,0.0,0.0,0.0,0.0,0.0,0.0,0.0,0.0,0.0,0.0,0.0,0.0,0.0,0.0,0.0,0.0,0.0,0.0,0.0,0.0,0.0,0.0,0.0,0.0,0.0,0.0,0.0,0.0,0.0,0.0,0.0,0.0,0.0,0.0,0.0,0.0,0.0,0.0,0.0,0.0,0.0,0.0,0.0,0.0,0.0,0.0,0.0,0.0,0.0,0.0,0.0,0.0,0.0,0.0,0.0,0.0,0.0,0.0,0.0,0.0,0.0,0.0,0.0,0.0,0.0,0.0,0.0,0.0,0.0,0.0,0.0,0.0,0.0,0.0,0.0,0.0,0.0,0.0,0.0,0.0,0.0,0.0,0.0,0.0,0.0,0.0,0.0,0.0,0.0,0.0,0.0,0.0,0.0,0.0,0.0,0.0,0.0,0.0,0.0,0.0,0.0,0.0,0.0,0.0,0.0,0.0,0.0,0.0,0.0,0.0,0.0,0.0,0.0,0.0,0.0,0.0,0.0,0.0,0.0,0.0,0.0,0.0,0.0,0.0,0.0,0.0,0.0,0.0,0.0,0.0,0.0,0.0,0.0,0.0,0.0,0.0,0.0,0.0,0.0,0.0,0.0,0.0,0.0,0.0,0.0,0.0,0.0,0.0,0.0,0.0,0.0,0.0,0.0,0.0,0.0,0.0,0.0,0.0,0.0,0.0,0.0,0.0,0.0,0.0,0.0,0.0,0.0,0.0,0.0,0.0,0.0,0.0,0.0,0.0,0.0,0.0,0.0,0.0,0.0,0.0,0.0,0.0,0.0,0.0,0.0,0.0,0.0,0.0,0.0,0.0,0.0,0.0,0.0,0.0,0.0,0.0,0.0,0.0,0.0,0.0,0.0,0.0,0.0,0.0,0.0,0.0,0.0,0.0,0.0,0.0,0.0,0.0,0.0,0.0,0.0,0.0,0.0,0.0,0.0,0.0,0.0,0.0,0.0,0.0,0.0,0.0,0.0,0.0,0.0,0.0,0.0,0.0,0.0,0.0,0.0,0.0,0.0,0.0,0.0,0.0,0.0,0.0,0.0,0.0,0.0,0.0,0.0,0.0,0.0,0.0,0.0,0.0,0.0,0.0,0.0,0.0,0.0,0.0,0.0,0.0,0.0,0.0,0.0,0.0,0.0,0.0,0.0,0.0,0.0,0.0,0.0,0.0,0.0,0.0,0.0,0.0,0.0,0.0,0.0,0.0,0.0,0.0,0.0,0.0,0.0,0.0,0.0,0.0,0.0,0.0,0.0,0.0,0.0,0.0,0.0,0.0,0.0,0.0,0.0,0.0,0.0,0.0,0.0,0.0,0.0,0.0,0.0,0.0,0.0,0.0,0.0,0.0,0.0,0.0,0.0,0.0,0.0,0.0,0.0,0.0,0.0,0.0,0.0,0.0,0.0,0.0,0.0,0.0,0.0,0.0,0.0,0.0,0.0,0.0,0.0,0.0,0.0,0.0,0.0,0.0,0.0,0.0,0.0,0.0,0.0,0.0,0.0,0.0,0.0,0.0,0.0,0.0,0.0,0.0,0.0,0.0,0.0,0.0,0.0,0.0,0.0,0.0,0.0,0.0,0.0,0.0,0.0,0.0,0.0,0.0,0.0,0.0,0.0,0.0,0.0,0.0,0.0,0.0,0.0,0.0,0.0,0.0,0.0,0.0,0.0,0.0,0.0,0.0,0.0,0.0,0.0,0.0,0.0,0.0,0.0,0.0,0.0,0.0,0.0,0.0,0.0,0.0,0.0,0.0,0.0,0.0,0.0,0.0,0.0,0.0,0.0,0.0,0.0,0.0,0.0,0.0,0.0,0.0,0.0,0.0,0.0,0.0,0.0,0.0,0.0,0.0,0.0,0.0,0.0,0.0,0.0,0.0,0.0,0.0,0.0,0.0,0.0,0.0,0.0,0.0,0.0,0.0,0.0,0.0,0.0,0.0,0.0,0.0,0.0,0.0,0.0,0.0,0.0,0.0,0.0,0.0,0.0,0.0,0.0,0.0,0.0,0.0,0.0,0.0,0.0,0.0,0.0,0.0,0.0,0.0,0.0,0.0,0.0,0.0,0.0,0.0,0.0,0.0,0.0,0.0,0.0,0.0,0.0,0.0,0.0,0.0,0.0,0.0,0.0,0.0,0.0,0.0,0.0,0.0,0.0,0.0,0.0,0.0,0.0,0.0,0.0,0.0,0.0,0.0,0.0,0.0,0.0,0.0,0.0,0.0,0.0,0.0,0.0,0.0,0.0,0.0,0.0,0.0,0.0,0.0,0.0,0.0,0.0,0.0,0.0,0.0,0.0,0.0,0.0,0.0,0.0,0.0,0.0,0.0,0.0,0.0,0.0,0.0,0.0,0.0,0.0,0.0,0.0,0.0,0.0,0.0,0.0,0.0,0.0,0.0,0.0,0.0,0.0,0.0,0.0,0.0,0.0,0.0,0.0,0.0,0.0,0.0,0.0,0.0,0.0,0.0,0.0,0.0,0.0,0.0,0.0,0.0,0.0,0.0,0.0,0.0,0.0,0.0,0.0,0.0,0.0,0.0,0.0,0.0,0.0,0.0,0.0,0.0,0.0,0.0,0.0,0.0,0.0,0.0,0.0,0.0,0.0,0.0,0.0,0.0,0.0,0.0,0.0,0.0,0.0,0.0,0.0,0.0,0.0,0.0,0.0,0.0,0.0,0.0,0.0,0.0,0.0,0.0,0.0,0.0,0.0,0.0,0.0,0.0,0.0,0.0,0.0,0.0,0.0,0.0,0.0,0.0,0.0,0.0,0.0,0.0,0.0,0.0,0.0,0.0,0.0,0.0,0.0,0.0,0.0,0.0,0.0,0.0,0.0,0.0,0.0,0.0,0.0,0.0,0.0,0.0,0.0,0.0,0.0,0.0,0.0,0.0,0.0,0.0,0.0,0.0,0.0,0.0,0.0,0.0,0.0,0.0,0.0,0.0,0.0,0.0,0.0,0.0,0.0,0.0,0.0,0.0,0.0,0.0,0.0,0.0,0.0,0.0,0.0,0.0,0.0,0.0,0.0,0.0,0.0,0.0,0.0,0.0,0.0,0.0,0.0,0.0,0.0,0.0,0.0,0.0,0.0,0.0,0.0,0.0,0.0,0.0,0.0,0.0,0.0,0.0,0.0,0.0,0.0,0.0,0.0,0.0,0.0,0.0,0.0,0.0,0.0,0.0,0.0,0.0,0.0,4.3497,0.0,0.0,0.0,0.0,0.0,0.0,0.0,0.0,0.0,0.0,0.0,0.0,0.0,0.0,0.0,0.0,0.0,0.0,0.0,0.0,0.0,0.0,0.0,0.0,0.0,0.0,0.0,0.0,0.0,0.0,0.0,0.0,0.0,0.0,0.0,0.0,0.0,0.0,0.0,0.0,0.0,0.0,0.0,0.0,0.0,0.0,0.0,0.0,0.0,0.0,0.0,0.0,0.0,0.0,0.0,0.0,0.0,0.0,0.0,0.0,0.0,0.0,0.0,0.0,0.0,0.0,0.0,0.0,0.0,0.0,0.0,0.0,0.0,0.0,0.0,0.0,0.0,0.0,0.0,0.0,0.0,0.0,0.0,0.0,0.0,0.0,0.0,0.0,0.0,0.0,0.0,0.0,0.0,0.0,0.0,0.0,0.0,0.0,0.0,0.0,0.0,0.0,0.0,0.0,0.0,0.0,0.0,0.0,0.0,0.0,4.3497,4.3497,4.3497,4.3497,4.3497,0.0,0.0,0.0,0.0,0.0,0.0,0.0,0.0,0.0,0.0,0.0,0.0,0.0,0.0,0.0,0.0,0.0,0.0,0.0,0.0,0.0,0.0,0.0,0.0,0.0,0.0,0.0,0.0,0.0,0.0,0.0,0.0,0.0,0.0,0.0,0.0,0.0,0.0,0.0,0.0,0.0,0.0,0.0,0.0,0.0,0.0,0.0,0.0,0.0,0.0,0.0,0.0,0.0,0.0,0.0,0.0,0.0,0.0,0.0,0.0,0.0,0.0,0.0,0.0,0.0,0.0,0.0,0.0,0.0,0.0,0.0,0.0,0.0,0.0,0.0,0.0,0.0,0.0,0.0,0.0,0.0,0.0,0.0,0.0,0.0,0.0,0.0,0.0,0.0,0.0,0.0,0.0,0.0,0.0,0.0,0.0,0.0,0.0,0.0,0.0,0.0,0.0,0.0,0.0,0.0,0.0,0.0,0.0,0.0,0.0,0.0,0.0,4.3497,4.3497,4.3497,0.0,0.0,0.0,0.0,0.0,0.0,0.0,0.0,0.0,0.0,0.0,0.0,0.0,0.0,0.0,0.0,0.0,0.0,0.0,0.0,0.0,0.0,0.0,0.0,0.0,0.0,0.0,0.0,0.0,0.0,0.0,0.0,0.0,0.0,0.0,0.0,0.0,0.0,0.0,0.0,0.0,0.0,0.0,0.0,0.0,0.0,0.0,0.0,0.0,0.0,0.0,0.0,0.0,0.0,0.0,0.0,0.0,0.0,0.0,0.0,0.0,0.0,0.0,0.0,0.0,0.0,0.0,0.0,0.0,0.0,0.0,0.0,0.0,0.0,0.0,0.0,0.0,0.0,0.0,0.0,0.0,0.0,0.0,0.0,0.0,0.0,0.0,0.0,0.0,0.0,0.0,0.0,0.0,0.0,0.0,0.0,0.0,0.0,0.0,0.0,0.0,0.0,0.0,0.0,0.0,0.0,0.0,0.0,0.0,0.0,4.3497,4.3497,4.3497,0.0,4.3497,0.0,0.0,0.0,0.0,0.0,0.0,0.0,0.0,0.0,0.0,0.0,0.0,0.0,0.0,0.0,0.0,0.0,0.0,0.0,0.0,0.0,0.0,0.0,0.0,0.0,0.0,0.0,0.0,0.0,0.0,0.0,0.0,0.0,0.0,0.0,0.0,0.0,0.0,0.0,0.0,0.0,0.0,0.0,0.0,0.0,0.0,0.0,0.0,0.0,0.0,0.0,0.0,0.0,0.0,0.0,0.0,0.0,0.0,0.0,0.0,0.0,0.0,0.0,0.0,0.0,0.0,0.0,0.0,0.0,0.0,0.0,0.0,0.0,0.0,0.0,0.0,0.0,0.0,0.0,0.0,0.0,0.0,0.0,0.0,0.0,0.0,0.0,0.0,0.0,0.0,0.0,0.0,0.0,0.0,0.0,0.0,0.0,0.0,0.0,0.0,0.0,0.0,0.0,0.0,0.0,0.0,0.0,0.0,0.0,0.0,4.3497,4.3497,4.3497,4.3497,0.0,0.0,0.0,0.0,0.0,0.0,0.0,0.0,0.0,0.0,0.0,0.0,0.0,0.0,0.0,0.0,0.0,0.0,0.0,0.0,0.0,0.0,0.0,0.0,0.0,0.0,0.0,0.0,0.0,0.0,0.0,0.0,0.0,0.0,0.0,0.0,0.0,0.0,0.0,0.0,0.0,0.0,0.0,0.0,0.0,0.0,0.0,0.0,0.0,0.0,0.0,0.0,0.0,0.0,0.0,0.0,0.0,0.0,0.0,0.0,0.0,0.0,0.0,0.0,0.0,0.0,0.0,0.0,0.0,0.0,0.0,0.0,0.0,0.0,0.0,0.0,0.0,0.0,0.0,0.0,0.0,0.0,0.0,0.0,0.0,0.0,0.0,0.0,0.0,0.0,0.0,0.0,0.0,0.0,0.0,0.0,0.0,0.0,0.0,0.0,0.0,0.0,0.0,0.0,0.0,0.0,0.0,0.0,0.0,0.0,4.3497,4.3497,4.3497,4.3497,4.3497,4.3497,0.0,0.0,0.0,0.0,0.0,0.0,0.0,0.0,0.0,0.0,0.0,0.0,0.0,0.0,0.0,0.0,0.0,0.0,0.0,0.0,0.0,0.0,0.0,0.0,0.0,0.0,0.0,0.0,0.0,0.0,0.0,0.0,0.0,0.0,0.0,0.0,0.0,0.0,0.0,0.0,0.0,0.0,0.0,0.0,0.0,0.0,0.0,0.0,0.0,0.0,0.0,0.0,0.0,0.0,0.0,0.0,0.0,0.0,0.0,0.0,0.0,0.0,0.0,0.0,0.0,0.0,0.0,0.0,0.0,0.0,0.0,0.0,0.0,0.0,0.0,0.0,0.0,0.0,0.0,0.0,0.0,0.0,0.0,0.0,0.0,0.0,0.0,0.0,0.0,0.0,0.0,0.0,0.0,0.0,0.0,0.0,0.0,0.0,0.0,0.0,0.0,0.0,0.0,0.0,0.0,0.0,0.0,0.0,4.3497,4.3497,4.3497,4.3497,4.3497,4.3497,0.0,0.0,0.0,0.0,0.0,0.0,0.0,0.0,0.0,0.0,0.0,0.0,0.0,0.0,0.0,0.0,0.0,0.0,0.0,0.0,0.0,0.0,0.0,0.0,0.0,0.0,0.0,0.0,0.0,0.0,0.0,0.0,0.0,0.0,0.0,0.0,0.0,0.0,0.0,0.0,0.0,0.0,0.0,0.0,0.0,0.0,0.0,0.0,0.0,0.0,0.0,0.0,0.0,0.0,0.0,0.0,0.0,0.0,0.0,0.0,0.0,0.0,0.0,0.0,0.0,0.0,0.0,0.0,0.0,0.0,0.0,0.0,0.0,0.0,0.0,0.0,0.0,0.0,0.0,0.0,0.0,0.0,0.0,0.0,0.0,0.0,0.0,0.0,0.0,0.0,0.0,0.0,0.0,0.0,0.0,0.0,0.0,0.0,0.0,0.0,0.0,0.0,0.0,0.0,0.0,0.0,0.0,0.0,0.0,4.3497,4.3497,4.3497,4.3497,4.3497,4.3497,0.0,0.0,0.0,0.0,0.0,0.0,0.0,0.0,0.0,0.0,0.0,0.0,0.0,0.0,0.0,0.0,0.0,0.0,0.0,0.0,0.0,0.0,0.0,0.0,0.0,0.0,0.0,0.0,0.0,0.0,0.0,0.0,0.0,0.0,0.0,0.0,0.0,0.0,0.0,0.0,0.0,0.0,0.0,0.0,0.0,0.0,0.0,0.0,0.0,0.0,0.0,0.0,0.0,0.0,0.0,0.0,0.0,0.0,0.0,0.0,0.0,0.0,0.0,0.0,0.0,0.0,0.0,0.0,0.0,0.0,0.0,0.0,0.0,0.0,0.0,0.0,0.0,0.0,0.0,0.0,0.0,0.0,0.0,0.0,0.0,0.0,0.0,0.0,0.0,0.0,0.0,0.0,0.0,0.0,0.0,0.0,0.0,0.0,0.0,0.0,0.0,0.0,0.0,0.0,0.0,0.0,0.0,0.0,0.0,4.3497,0.0,4.3497,4.3497,4.3497,4.3497,0.0,0.0,0.0,0.0,0.0,0.0,0.0,0.0,0.0,0.0,0.0,0.0,0.0,0.0,0.0,0.0,0.0,0.0,0.0,0.0,0.0,0.0,0.0,0.0,0.0,0.0,0.0,0.0,0.0,0.0,0.0,0.0,0.0,0.0,0.0,0.0,0.0,0.0,0.0,0.0,0.0,0.0,0.0,0.0,0.0,0.0,0.0,0.0,0.0,0.0,0.0,0.0,0.0,0.0,0.0,0.0,0.0,0.0,0.0,0.0,0.0,0.0,0.0,0.0,0.0,0.0,0.0,0.0,0.0,0.0,0.0,0.0,0.0,0.0,0.0,0.0,0.0,0.0,0.0,0.0,0.0,0.0,0.0,0.0,0.0,0.0,0.0,0.0,0.0,0.0,0.0,0.0,0.0,0.0,0.0,0.0,0.0,0.0,0.0,0.0,0.0,0.0,0.0,0.0,0.0,0.0,0.0,0.0,4.3497,4.3497,4.3497,4.3497,4.3497,4.3497,4.3497,0.0,0.0,0.0,0.0,0.0,0.0,0.0,0.0,0.0,0.0,0.0,0.0,0.0,0.0,0.0,0.0,0.0,0.0,0.0,0.0,0.0,0.0,0.0,0.0,0.0,0.0,0.0,0.0,0.0,0.0,0.0,0.0,0.0,0.0,0.0,0.0,0.0,0.0,0.0,0.0,0.0,0.0,0.0,0.0,0.0,0.0,0.0,0.0,0.0,0.0,0.0,0.0,0.0,0.0,0.0,0.0,0.0,0.0,0.0,0.0,0.0,0.0,0.0,0.0,0.0,0.0,0.0,0.0,0.0,0.0,0.0,0.0,0.0,0.0,0.0,0.0,0.0,0.0,0.0,0.0,0.0,0.0,0.0,0.0,0.0,0.0,0.0,0.0,0.0,0.0,0.0,0.0,0.0,0.0,0.0,0.0,0.0,0.0,0.0,0.0,0.0,0.0,0.0,0.0,0.0,0.0,0.0,0.0,0.0,4.3497,4.3497,4.3497,4.3497,4.3497,4.3497,0.0,0.0,0.0,0.0,0.0,0.0,0.0,0.0,0.0,0.0,0.0,0.0,0.0,0.0,0.0,0.0,0.0,0.0,0.0,0.0,0.0,0.0,0.0,0.0,0.0,0.0,0.0,0.0,0.0,0.0,0.0,0.0,0.0,0.0,0.0,0.0,0.0,0.0,0.0,0.0,0.0,0.0,0.0,0.0,0.0,0.0,0.0,0.0,0.0,0.0,0.0,0.0,0.0,0.0,0.0,0.0,0.0,0.0,0.0,0.0,0.0,0.0,0.0,0.0,0.0,0.0,0.0,0.0,0.0,0.0,0.0,0.0,0.0,0.0,0.0,0.0,0.0,0.0,0.0,0.0,0.0,0.0,0.0,0.0,0.0,0.0,0.0,0.0,0.0,0.0,0.0,0.0,0.0,0.0,0.0,0.0,0.0,0.0,0.0,0.0,0.0,0.0,0.0,0.0,0.0,0.0,0.0,0.0,0.0,4.4378,4.3808,4.3497,4.3497,4.3497,4.3497,4.3497,0.0,0.0,0.0,0.0,0.0,0.0,0.0,0.0,0.0,0.0,0.0,0.0,0.0,0.0,0.0,0.0,0.0,0.0,0.0,0.0,0.0,0.0,0.0,0.0,0.0,0.0,0.0,0.0,0.0,0.0,0.0,0.0,0.0,0.0,0.0,0.0,0.0,0.0,0.0,0.0,0.0,0.0,0.0,0.0,0.0,0.0,0.0,0.0,0.0,0.0,0.0,0.0,0.0,0.0,0.0,0.0,0.0,0.0,0.0,0.0,0.0,0.0,0.0,0.0,0.0,0.0,0.0,0.0,0.0,0.0,0.0,0.0,0.0,0.0,0.0,0.0,0.0,0.0,0.0,0.0,0.0,0.0,0.0,0.0,0.0,0.0,0.0,0.0,0.0,0.0,0.0,0.0,0.0,0.0,0.0,0.0,0.0,0.0,0.0,0.0,0.0,0.0,0.0,0.0,0.0,0.0,0.0,0.0,4.5883,4.4415,4.3608,4.3588,4.3551,4.3497,0.0,0.0,0.0,0.0,0.0,0.0,0.0,0.0,0.0,0.0,0.0,0.0,0.0,0.0,0.0,0.0,0.0,0.0,0.0,0.0,0.0,0.0,0.0,0.0,0.0,0.0,0.0,0.0,0.0,0.0,0.0,0.0,0.0,0.0,0.0,0.0,0.0,0.0,0.0,0.0,0.0,0.0,0.0,0.0,0.0,0.0,0.0,0.0,0.0,0.0,0.0,0.0,0.0,0.0,0.0,0.0,0.0,0.0,0.0,0.0,0.0,0.0,0.0,0.0,0.0,0.0,0.0,0.0,0.0,0.0,0.0,0.0,0.0,0.0,0.0,0.0,0.0,0.0,0.0,0.0,0.0,0.0,0.0,0.0,0.0,0.0,0.0,0.0,0.0,0.0,0.0,0.0,0.0,0.0,0.0,0.0,0.0,0.0,0.0,0.0,0.0,0.0,0.0,0.0,0.0,0.0,0.0,0.0,0.0,4.5883,4.548,4.5002,4.4415,4.3791,4.3497,0.0,0.0,0.0,0.0,0.0,0.0,0.0,0.0,0.0,0.0,0.0,0.0,0.0,0.0,0.0,0.0,0.0,0.0,0.0,0.0,0.0,0.0,0.0,0.0,0.0,0.0,0.0,0.0,0.0,0.0,0.0,0.0,0.0,0.0,0.0,0.0,0.0,0.0,0.0,0.0,0.0,0.0,0.0,0.0,0.0,0.0,0.0,0.0,0.0,0.0,0.0,0.0,0.0,0.0,0.0,0.0,0.0,0.0,0.0,0.0,0.0,0.0,0.0,0.0,0.0,0.0,0.0,0.0,0.0,0.0,0.0,0.0,0.0,0.0,0.0,0.0,0.0,0.0,0.0,0.0,0.0,0.0,0.0,0.0,0.0,0.0,0.0,0.0,0.0,0.0,0.0,0.0,0.0,0.0,0.0,0.0,0.0,0.0,0.0,0.0,0.0,0.0,0.0,0.0,0.0,0.0,0.0,0.0,4.6911,4.6911,4.6581,4.6177,4.5718,4.4929,4.4342,0.0,0.0,0.0,0.0,0.0,0.0,0.0,0.0,0.0,0.0,0.0,0.0,0.0,0.0,0.0,0.0,0.0,0.0,0.0,0.0,0.0,0.0,0.0,0.0,0.0,0.0,0.0,0.0,0.0,0.0,0.0,0.0,0.0,0.0,0.0,0.0,0.0,0.0,0.0,0.0,0.0,0.0,0.0,0.0,0.0,0.0,0.0,0.0,0.0,0.0,0.0,0.0,0.0,0.0,0.0,0.0,0.0,0.0,0.0,0.0,0.0,0.0,0.0,0.0,0.0,0.0,0.0,0.0,0.0,0.0,0.0,0.0,0.0,0.0,0.0,0.0,0.0,0.0,0.0,0.0,0.0,0.0,0.0,0.0,0.0,0.0,0.0,0.0,0.0,0.0,0.0,0.0,0.0,0.0,0.0,0.0,0.0,0.0,0.0,0.0,0.0,0.0,0.0,0.0,0.0,0.0,0.0,0.0,4.8306,4.8306,4.759,4.7223,4.7223,4.6361,4.559,0.0,0.0,0.0,0.0,0.0,0.0,0.0,0.0,0.0,0.0,0.0,0.0,0.0,0.0,0.0,0.0,0.0,0.0,0.0,0.0,0.0,0.0,0.0,0.0,0.0,0.0,0.0,0.0,0.0,0.0,0.0,0.0,0.0,0.0,0.0,0.0,0.0,0.0,0.0,0.0,0.0,0.0,0.0,0.0,0.0,0.0,0.0,0.0,0.0,0.0,0.0,0.0,0.0,0.0,0.0,0.0,0.0,0.0,0.0,0.0,0.0,0.0,0.0,0.0,0.0,0.0,0.0,0.0,0.0,0.0,0.0,0.0,0.0,0.0,0.0,0.0,0.0,0.0,0.0,0.0,0.0,0.0,0.0,0.0,0.0,0.0,0.0,0.0,0.0,0.0,0.0,0.0,0.0,0.0,0.0,0.0,0.0,0.0,0.0,0.0,0.0,0.0,0.0,0.0,0.0,0.0,0.0,0.0,4.8306,4.8306,4.8103,4.803,4.8049,4.6654,4.581,0.0,0.0,0.0,0.0,0.0,0.0,0.0,0.0,0.0,0.0,0.0,0.0,0.0,0.0,0.0,0.0,0.0,0.0,0.0,0.0,0.0,0.0,0.0,0.0,0.0,0.0,0.0,0.0,0.0,0.0,0.0,0.0,0.0,0.0,0.0,0.0,0.0,0.0,0.0,0.0,0.0,0.0,0.0,0.0,0.0,0.0,0.0,0.0,4.4023,0.0,0.0,0.0,0.0,0.0,0.0,0.0,0.0,0.0,0.0,0.0,0.0,0.0,0.0,0.0,0.0,0.0,0.0,0.0,0.0,0.0,0.0,0.0,0.0,0.0,0.0,0.0,0.0,0.0,0.0,0.0,0.0,0.0,0.0,0.0,0.0,0.0,0.0,0.0,0.0,0.0,0.0,0.0,0.0,0.0,0.0,0.0,0.0,0.0,0.0,0.0,0.0,0.0,0.0,0.0,0.0,0.0,0.0,0.0,4.8306,4.8306,4.8306,4.8306,4.8269,4.7462,4.6838,0.0,0.0,0.0,0.0,0.0,0.0,0.0,0.0,0.0,0.0,0.0,0.0,0.0,0.0,0.0,0.0,0.0,0.0,0.0,0.0,0.0,0.0,0.0,0.0,0.0,0.0,0.0,0.0,0.0,0.0,0.0,0.0,0.0,0.0,0.0,0.0,0.0,0.0,0.0,0.0,0.0,0.0,0.0,0.0,0.0,0.0,0.0,0.0,0.0,0.0,0.0,0.0,0.0,0.0,0.0,0.0,0.0,0.0,0.0,0.0,0.0,0.0,0.0,0.0,0.0,0.0,0.0,0.0,0.0,0.0,0.0,0.0,0.0,0.0,0.0,0.0,0.0,0.0,0.0,0.0,0.0,0.0,0.0,0.0,0.0,0.0,0.0,0.0,0.0,0.0,0.0,0.0,0.0,0.0,0.0,0.0,0.0,0.0,0.0,0.0,0.0,0.0,0.0,0.0,0.0,0.0,0.0,4.8344,4.8306,4.8306,4.8306,4.8306,4.8306,4.8306,4.7976,4.7352,0.0,0.0,0.0,0.0,0.0,0.0,0.0,0.0,0.0,0.0,0.0,0.0,0.0,0.0,0.0,0.0,0.0,0.0,0.0,0.0,0.0,0.0,0.0,0.0,0.0,0.0,0.0,0.0,0.0,0.0,0.0,0.0,0.0,0.0,0.0,0.0,0.0,0.0,4.4023,4.4023,0.0,0.0,0.0,0.0,0.0,0.0,0.0,0.0,4.4023,0.0,0.0,0.0,0.0,0.0,0.0,0.0,0.0,0.0,0.0,0.0,0.0,0.0,0.0,0.0,0.0,0.0,0.0,0.0,0.0,0.0,0.0,0.0,0.0,0.0,0.0,0.0,0.0,0.0,0.0,0.0,0.0,0.0,0.0,0.0,0.0,0.0,0.0,0.0,0.0,0.0,0.0,0.0,0.0,0.0,0.0,0.0,0.0,0.0,0.0,0.0,0.0,0.0,0.0,0.0,0.0,4.8325,4.8306,4.8306,4.8306,4.8306,4.8306,4.8306,4.8306,4.8307,4.8273,0.0,0.0,0.0,0.0,0.0,0.0,0.0,0.0,0.0,0.0,0.0,0.0,0.0,0.0,0.0,0.0,0.0,0.0,0.0,0.0,0.0,0.0,0.0,0.0,0.0,0.0,0.0,0.0,0.0,0.0,0.0,0.0,0.0,0.0,0.0,0.0,0.0,0.0,0.0,4.4023,4.4023,0.0,0.0,0.0,0.0,0.0,0.0,0.0,0.0,4.4023,0.0,0.0,0.0,0.0,0.0,0.0,0.0,0.0,0.0,0.0,0.0,0.0,0.0,0.0,0.0,0.0,0.0,0.0,0.0,0.0,0.0,0.0,0.0,0.0,0.0,0.0,0.0,0.0,0.0,0.0,0.0,0.0,0.0,0.0,0.0,0.0,0.0,0.0,0.0,0.0,0.0,0.0,0.0,0.0,0.0,0.0,0.0,0.0,0.0,0.0,0.0,0.0,0.0,0.0,0.0,4.8419,4.8325,4.8306,4.8306,4.8306,4.8306,4.8306,4.8306,4.8382,0.0,0.0,0.0,0.0,0.0,0.0,0.0,0.0,0.0,0.0,0.0,0.0,0.0,0.0,0.0,0.0,0.0,0.0,0.0,0.0,0.0,0.0,0.0,0.0,0.0,0.0,0.0,0.0,0.0,0.0,0.0,0.0,0.0,0.0,0.0,0.0,0.0,0.0,0.0,0.0,4.5324,4.5287,4.5287,0.0,0.0,0.0,0.0,0.0,0.0,4.5287,4.5287,0.0,0.0,0.0,0.0,0.0,0.0,0.0,0.0,0.0,0.0,0.0,0.0,0.0,0.0,0.0,0.0,0.0,0.0,0.0,0.0,0.0,0.0,0.0,0.0,0.0,0.0,0.0,0.0,0.0,0.0,0.0,0.0,0.0,0.0,0.0,0.0,0.0,0.0,0.0,0.0,0.0,0.0,0.0,0.0,0.0,0.0,0.0,0.0,0.0,0.0,0.0,0.0,0.0,0.0,0.0,4.8457,4.8344,4.8306,4.8306,4.8306,4.8306,4.8306,4.8306,4.8382,0.0,0.0,0.0,0.0,0.0,0.0,0.0,0.0,0.0,0.0,0.0,0.0,0.0,0.0,0.0,0.0,0.0,0.0,0.0,0.0,0.0,0.0,0.0,0.0,0.0,0.0,0.0,0.0,0.0,0.0,0.0,0.0,0.0,0.0,0.0,0.0,0.0,0.0,0.0,0.0,0.0,4.6513,4.6513,4.6513,0.0,0.0,0.0,0.0,4.6513,4.6513,0.0,0.0,0.0,0.0,0.0,0.0,0.0,0.0,0.0,0.0,0.0,0.0,0.0,0.0,0.0,0.0,0.0,0.0,0.0,0.0,0.0,0.0,0.0,0.0,0.0,0.0,0.0,0.0,0.0,0.0,0.0,0.0,0.0,0.0,0.0,0.0,0.0,0.0,0.0,0.0,0.0,0.0,0.0,0.0,0.0,0.0,0.0,0.0,0.0,0.0,0.0,0.0,0.0,0.0,0.0,0.0,4.8306,4.8306,4.8306,4.8306,4.8306,4.8306,4.8306,4.8306,4.84,0.0,0.0,0.0,0.0,0.0,0.0,0.0,0.0,0.0,0.0,0.0,0.0,0.0,0.0,0.0,0.0,0.0,0.0,0.0,0.0,0.0,0.0,0.0,0.0,0.0,0.0,0.0,0.0,0.0,0.0,0.0,0.0,0.0,0.0,0.0,0.0,0.0,0.0,0.0,0.0,0.0,4.6513,4.6513,4.6513,4.6513,0.0,0.0,4.6513,4.6513,4.6513,0.0,0.0,0.0,0.0,0.0,0.0,0.0,0.0,0.0,0.0,0.0,0.0,0.0,0.0,0.0,0.0,0.0,0.0,0.0,0.0,0.0,0.0,0.0,0.0,0.0,0.0,0.0,0.0,0.0,0.0,0.0,0.0,0.0,0.0,0.0,0.0,0.0,0.0,0.0,0.0,0.0,0.0,0.0,0.0,0.0,0.0,0.0,0.0,0.0,0.0,0.0,0.0,0.0,0.0,0.0,4.8306,4.8306,4.8306,4.8306,4.8306,4.8306,4.8306,4.8306,4.8306,4.8382,0.0,0.0,0.0,0.0,0.0,0.0,0.0,0.0,0.0,0.0,0.0,0.0,0.0,0.0,0.0,0.0,0.0,0.0,0.0,0.0,0.0,0.0,0.0,0.0,0.0,0.0,0.0,0.0,0.0,0.0,0.0,0.0,0.0,0.0,0.0,0.0,0.0,0.0,0.0,0.0,0.0,0.0,4.785,4.785,0.0,0.0,0.0,4.785,4.785,0.0,0.0,0.0,0.0,0.0,0.0,0.0,0.0,0.0,0.0,0.0,0.0,0.0,0.0,0.0,0.0,0.0,0.0,0.0,0.0,0.0,0.0,0.0,0.0,0.0,0.0,0.0,0.0,0.0,0.0,0.0,0.0,0.0,0.0,0.0,0.0,0.0,0.0,0.0,0.0,0.0,0.0,0.0,0.0,0.0,0.0,0.0,0.0,0.0,0.0,0.0,0.0,0.0,0.0,0.0,0.0,0.0,4.8306,4.8306,4.8306,4.8306,4.8306,4.8306,4.8306,4.8306,0.0,0.0,0.0,0.0,0.0,0.0,0.0,0.0,0.0,0.0,0.0,0.0,0.0,0.0,0.0,0.0,0.0,0.0,0.0,0.0,0.0,0.0,0.0,0.0,0.0,0.0,0.0,4.8892,0.0,0.0,0.0,0.0,0.0,0.0,0.0,0.0,0.0,0.0,0.0,0.0,0.0,0.0,4.8855,4.875,4.882,4.889,0.0,0.0,4.889,4.889,4.889,4.889,0.0,0.0,0.0,0.0,0.0,0.0,0.0,0.0,0.0,0.0,0.0,0.0,0.0,0.0,0.0,0.0,0.0,0.0,0.0,0.0,0.0,0.0,0.0,0.0,0.0,0.0,0.0,0.0,0.0,0.0,0.0,0.0,0.0,0.0,0.0,0.0,0.0,0.0,0.0,0.0,0.0,0.0,0.0,0.0,0.0,0.0,0.0,0.0,0.0,0.0,0.0,0.0,0.0,0.0,4.9114,4.8343,4.8306,4.8343,4.8306,4.8306,4.8306,4.8306,4.8306,4.8306,0.0,0.0,0.0,0.0,0.0,0.0,0.0,0.0,0.0,0.0,0.0,0.0,0.0,0.0,0.0,0.0,0.0,0.0,0.0,0.0,0.0,0.0,0.0,0.0,0.0,0.0,0.0,0.0,0.0,0.0,0.0,0.0,0.0,0.0,0.0,0.0,0.0,0.0,0.0,0.0,0.0,4.875,4.8401,4.866,4.889,0.0,4.889,4.889,4.889,4.889,4.889,4.889,0.0,0.0,0.0,0.0,0.0,0.0,0.0,0.0,0.0,0.0,0.0,0.0,0.0,0.0,0.0,0.0,0.0,0.0,0.0,0.0,0.0,0.0,0.0,0.0,0.0,0.0,0.0,0.0,0.0,0.0,0.0,0.0,0.0,0.0,0.0,0.0,0.0,0.0,0.0,0.0,0.0,0.0,0.0,0.0,0.0,0.0,0.0,0.0,0.0,0.0,0.0,0.0,0.0,5.0178,4.9848,4.9848,4.9591,4.9114,4.9114,4.8857,4.8343,4.8306,4.8325,0.0,0.0,0.0,0.0,0.0,0.0,0.0,0.0,0.0,0.0,0.0,0.0,0.0,0.0,0.0,0.0,0.0,0.0,0.0,0.0,0.0,0.0,0.0,0.0,0.0,0.0,0.0,0.0,4.884,4.9043,4.9544,0.0,0.0,0.0,0.0,0.0,0.0,0.0,0.0,0.0,0.0,4.974,4.9618,5.0064,0.0,0.0,5.045,5.045,5.045,5.0413,5.045,5.045,5.045,0.0,0.0,0.0,0.0,0.0,0.0,0.0,0.0,0.0,0.0,0.0,0.0,0.0,0.0,0.0,0.0,0.0,0.0,0.0,0.0,0.0,0.0,0.0,0.0,0.0,0.0,0.0,0.0,0.0,0.0,0.0,0.0,0.0,0.0,0.0,0.0,0.0,0.0,0.0,0.0,0.0,0.0,0.0,0.0,0.0,0.0,0.0,0.0,0.0,0.0,0.0,0.0,5.1022,5.0802,5.0802,5.0545,4.9978,4.9978,4.9664,4.9077,4.904,4.9096,0.0,0.0,0.0,0.0,0.0,0.0,0.0,0.0,0.0,0.0,0.0,0.0,0.0,0.0,0.0,0.0,0.0,0.0,0.0,0.0,0.0,0.0,0.0,0.0,0.0,0.0,0.0,0.0,4.9342,4.9749,5.0324,0.0,0.0,0.0,0.0,0.0,0.0,0.0,0.0,0.0,0.0,5.0061,4.993,5.0595,5.1119,5.11,5.1269,5.1379,5.1379,5.1287,5.1157,5.1157,0.0,0.0,0.0,0.0,0.0,0.0,0.0,0.0,0.0,0.0,0.0,0.0,0.0,0.0,0.0,0.0,0.0,0.0,0.0,0.0,0.0,0.0,0.0,0.0,0.0,0.0,0.0,5.3203,0.0,0.0,5.3203,0.0,0.0,0.0,0.0,0.0,0.0,0.0,0.0,0.0,0.0,0.0,0.0,0.0,0.0,0.0,0.0,0.0,0.0,0.0,0.0,0.0,0.0,5.161,5.0839,5.0875,5.0802,5.0765,5.0765,5.0765,5.0729,5.0729,5.0729,5.0729,0.0,0.0,0.0,0.0,0.0,0.0,0.0,0.0,0.0,0.0,0.0,0.0,0.0,0.0,0.0,0.0,0.0,0.0,0.0,0.0,0.0,0.0,0.0,0.0,0.0,0.0,4.9692,5.0506,5.1044,0.0,0.0,0.0,0.0,0.0,0.0,0.0,0.0,0.0,4.9004,4.9198,4.9281,4.893,4.9767,5.0451,5.0451,5.0985,5.1398,5.1417,5.0985,5.0598,0.0,0.0,0.0,0.0,0.0,0.0,0.0,0.0,0.0,0.0,0.0,0.0,0.0,0.0,0.0,0.0,0.0,0.0,0.0,0.0,0.0,0.0,0.0,0.0,0.0,0.0,0.0,5.3203,5.3203,0.0,0.0,0.0,0.0,0.0,0.0,0.0,0.0,0.0,0.0,0.0,5.3203,5.3203,0.0,0.0,0.0,0.0,0.0,0.0,0.0,0.0,0.0,0.0,0.0,0.0,5.2674,5.2396,5.2417,5.2123,5.161,5.161,5.1353,5.0839,5.0802,5.0802,5.0802,0.0,0.0,0.0,0.0,0.0,0.0,0.0,0.0,0.0,0.0,0.0,0.0,0.0,0.0,0.0,0.0,0.0,0.0,0.0,0.0,0.0,0.0,0.0,0.0,0.0,5.0539,0.0,0.0,0.0,0.0,0.0,0.0,0.0,0.0,0.0,0.0,0.0,4.9991,5.0204,4.9882,4.9791,5.0143,5.045,5.0841,0.0,0.0,0.0,0.0,0.0,0.0,0.0,0.0,0.0,0.0,0.0,0.0,0.0,0.0,5.1947,5.1473,5.1156,5.1082,5.1342,0.0,0.0,0.0,0.0,0.0,0.0,0.0,0.0,0.0,0.0,0.0,0.0,0.0,0.0,5.3203,0.0,5.3203,0.0,0.0,0.0,0.0,0.0,0.0,0.0,0.0,5.3203,5.3203,5.3203,5.3203,5.3203,0.0,5.3203,5.3203,0.0,0.0,0.0,0.0,0.0,0.0,0.0,0.0,5.3203,5.3203,5.3203,5.2968,5.2454,5.2417,5.216,5.1683,5.1646,5.1646,5.1646,5.1646,5.1646,0.0,0.0,0.0,0.0,0.0,0.0,0.0,0.0,0.0,0.0,0.0,0.0,0.0,0.0,0.0,0.0,0.0,0.0,0.0,0.0,0.0,0.0,0.0,5.134,0.0,0.0,0.0,0.0,0.0,0.0,0.0,0.0,0.0,5.1574,5.072,5.0251,5.0562,5.0185,4.994,5.015,0.0,0.0,0.0,0.0,0.0,0.0,0.0,5.0715,5.082,5.0757,5.0783,5.1105,5.1259,5.1352,5.1488,0.0,0.0,5.1986,5.214,5.2234,5.2234,5.1788,5.1379,5.1416,5.0971,5.0599,0.0,0.0,0.0,0.0,0.0,0.0,0.0,0.0,5.3203,5.3203,0.0,5.3203,0.0,0.0,0.0,0.0,5.3203,5.3203,0.0,0.0,5.3203,5.3203,5.3203,5.3203,5.3203,5.3203,5.3203,5.3203,5.3203,5.3203,0.0,0.0,0.0,0.0,0.0,0.0,5.3203,5.3203,5.3203,5.3203,5.3167,5.3167,5.3188,5.3167,5.3167,5.3167,5.3167,5.313,5.3167,5.3167,5.3167,0.0,0.0,0.0,0.0,0.0,0.0,0.0,0.0,0.0,0.0,0.0,0.0,0.0,0.0,0.0,0.0,0.0,0.0,0.0,0.0,5.1552,0.0,0.0,0.0,0.0,0.0,0.0,0.0,0.0,0.0,0.0,5.145,5.1093,5.0616,5.0057,0.0,0.0,0.0,0.0,4.9536,4.8866,4.9257,4.9621,4.9657,4.9281,4.8965,4.8987,0.0,0.0,4.9748,4.9839,4.9911,4.9995,5.014,5.0664,5.2621,5.3202,5.3533,5.3645,5.3571,5.372,5.3757,5.3497,5.3534,5.3203,0.0,0.0,0.0,0.0,5.3203,5.3203,5.3203,5.3203,5.3203,5.3203,5.3203,0.0,0.0,0.0,0.0,0.0,0.0,5.3203,5.3203,5.3203,5.3203,5.3203,5.3203,5.3203,5.3203,5.3203,5.3203,5.3203,5.3203,5.3203,5.3203,0.0,0.0,0.0,0.0,5.3203,5.3203,5.3203,5.3203,5.3203,5.3203,5.3203,5.3203,5.3203,5.3203,5.3203,5.3203,5.3203,5.3203,5.3203,0.0,0.0,0.0,0.0,0.0,0.0,0.0,0.0,0.0,0.0,0.0,0.0,0.0,0.0,0.0,0.0,0.0,0.0,0.0,5.2527,5.2375,5.2291,0.0,0.0,0.0,0.0,0.0,0.0,0.0,0.0,0.0,4.9472,4.9423,4.934,0.0,0.0,4.8465,4.8741,4.8972,4.9215,4.959,4.9756,0.0,4.9893,4.9635,4.9512,4.9659,4.9681,4.9756,5.0047,5.0074,5.0127,5.0259,5.0596,5.1066,5.1585,5.1639,5.1908,5.2678,5.294,5.3162,5.3645,5.3794,5.3794,5.3203,5.3203,5.3203,5.3203,5.3203,5.3203,5.3203,5.3203,5.3203,5.3203,5.3203,5.3203,5.3203,5.3203,5.3203,0.0,0.0,0.0,5.3203,5.3203,5.3203,5.3203,5.3203,5.3203,5.3203,5.3203,5.3203,5.3203,5.3203,5.3203,5.3203,5.3203,0.0,0.0,5.3203,5.3203,5.3203,5.3203,5.3203,5.3203,5.3203,5.3203,5.3203,5.3203,5.3203,5.3203,5.3203,5.3203,5.3203,5.3203,5.3203,5.3203,0.0,0.0,0.0,0.0,0.0,0.0,0.0,0.0,0.0,0.0,0.0,5.3103,5.2872,0.0,0.0,0.0,5.2384,5.2477,5.2268,5.215,0.0,0.0,0.0,0.0,0.0,0.0,0.0,4.9476,4.9574,4.9714,4.954,4.9652,4.9528,4.8879,4.8913,4.9085,4.9258,0.0,4.9775,4.9976,5.0011,5.0011,5.0011,4.9903,4.9868,4.9965,5.0011,5.0068,5.0178,4.9964,4.9812,4.9882,4.994,5.0022,5.022,5.0091,5.0461,5.2045,5.2625,5.2949,5.343,5.3678,5.3794,5.3203,5.3203,5.3203,5.3203,5.3203,5.3203,5.3203,5.3203,5.3203,5.3203,5.3203,5.3203,5.3203,5.3203,5.3203,0.0,5.3203,5.3203,5.3203,5.3203,5.3203,5.3203,5.3203,5.3203,5.3203,5.3203,5.3203,5.3203,5.3203,5.3203,5.3203,5.3203,5.3203,5.3203,5.3203,5.3203,5.3203,5.3203,5.3203,5.3203,5.3203,5.3203,5.3203,5.3203,5.3203,5.3203,5.3203,5.3203,5.3203,5.3203,5.3203,5.3203,5.3203,0.0,0.0,0.0,0.0,0.0,0.0,0.0,0.0,0.0,0.0,0.0,0.0,0.0,0.0,0.0,5.1475,0.0,5.0805,5.1138,0.0,0.0,0.0,5.0327,5.036,4.9356,4.8942,4.9661,0.0,0.0,5.0942,5.108,5.0568,4.9154,5.0188,5.0873,5.0183,5.07,5.0942,5.0355,5.0218,5.0183,5.0321,5.0316,5.0281,5.0321,5.0183,5.0281,5.0362,4.9907,4.9409,4.9597,4.8923,4.8703,4.9027,4.9341,4.971,5.1682,5.2467,5.2904,5.312,5.3424,5.3717,5.3203,5.3203,5.3203,5.3203,5.3203,5.3203,5.3203,5.3203,5.3203,5.3203,5.3203,5.3203,5.3203,5.3203,5.3203,5.3203,5.3203,5.3203,5.3203,5.3203,5.3203,5.3203,5.3203,5.3203,5.3203,5.3203,5.3203,5.3203,5.3203,5.3203,5.3203,5.3203,5.3203,5.3203,5.3203,5.3203,5.3203,5.3203,5.3203,5.3203,5.3203,5.3203,5.3203,5.3203,5.3203,5.3203,5.3203,5.3203,5.3203,5.3203,5.3203,5.3203,5.3203,5.3203,0.0,0.0,0.0,0.0,0.0,0.0,0.0,0.0,0.0,5.2937,5.2431,0.0,5.1914,0.0,5.0647,5.043,5.0495,5.022,0.0,0.0,4.9369,4.9699,5.0063,5.0192,5.0395,5.072,5.0823,5.07,5.0321,5.0769,5.0947,5.0631,5.0907,5.1045,5.0873,5.1459,5.1877,5.1705,5.1671,5.1671,5.1701,5.1671,5.1701,5.1636,5.1671,5.1701,5.1731,5.1593,5.1484,5.1479,5.1376,5.1296,5.1304,5.1495,5.1492,5.15,5.1469,5.1768,5.2825,5.3219,5.3383,5.3203,5.3203,5.3203,5.3203,5.3203,5.3203,5.3203,5.3203,5.3203,5.3203,5.3203,5.3203,5.3203,5.3203,5.3203,5.3203,5.3203,5.3203,5.3203,5.3203,5.3203,5.3203,5.3203,5.3203,5.3203,5.3203,5.3203,5.3203,5.3203,5.3203,5.3203,5.3203,5.3203,5.3203,5.3203,5.3203,5.3203,5.3203,5.3203,5.3203,5.3203,5.3203,5.3203,5.3203,5.3203,5.3203,5.3203,5.3203,5.3203,5.3203,5.3203,5.3203,5.3203,5.3203,5.3203,0.0,0.0,0.0,0.0,0.0,0.0,0.0,0.0,0.0,0.0,0.0,5.0867,4.9855,4.9278,4.916,4.9635,4.9738,4.9729,4.9687,4.9923,5.022,5.0448,5.0471,5.0626,5.104,5.139,5.1597,5.1528,5.2183,5.2632,5.2632,5.2632,5.2494,5.2252,5.2735,5.3253,5.3187,5.3253,5.3253,5.3218,5.3253,5.3222,5.3253,5.3187,5.3218,5.3187,5.2942,5.2735,5.2735,5.2429,5.2188,5.2188,5.2278,5.223,5.1957,5.1731,5.1872,5.2477,5.2799,5.3057,5.3518,5.3518,5.3518,5.3497,5.3518,5.3518,5.3387,5.3203,5.3203,5.3203,5.3203,5.3203,5.3203,5.3203,5.3203,5.3203,5.3203,5.3203,5.3203,5.3203,5.3203,5.3203,5.3203,5.3203,5.3203,5.3203,5.3203,5.3203,5.3203,5.3203,5.3203,5.3203,5.3277,5.335,5.335,5.3445,5.3408,5.3203,5.3203,5.3203,5.3203,5.3203,5.3203,5.3203,5.3203,5.3203,5.3203,5.3203,5.3203,5.3203,5.3203,5.3146,5.3103,5.3082,5.306,0.0,5.2581,0.0,0.0,0.0,0.0,0.0,0.0,0.0,0.0,5.0494,4.9933,4.8863,4.8375,4.8396,4.9016,4.9735,5.0355,5.0873,5.0976,5.1011,5.1154,5.0666,5.0631,5.1429,5.2114,5.277,5.3425,5.4115,5.4494,5.4356,5.4322,5.408,5.3736,5.4011,5.4391,5.4494,5.4494,5.4322,5.4356,5.4425,5.4425,5.446,5.4391,5.4494,5.4425,5.3942,5.3529,5.3494,5.3046,5.2567,5.2463,5.2563,5.2524,5.2606,5.2557,5.2507,5.235,5.2497,5.2798,5.5133,5.5133,5.5133,5.5133,5.5133,5.5133,5.4399,5.3203,5.3203,5.3203,5.3203,5.3203,5.3203,5.3203,5.3203,5.3203,5.3203,5.3203,5.3203,5.3203,5.3203,5.3203,5.3203,5.3203,5.3203,5.3203,5.3203,5.3203,5.3203,5.3203,5.3203,5.3203,5.3849,5.4179,5.4216,0.0,0.0,0.0,5.3203,5.3203,5.3203,5.3203,5.3203,5.3203,5.3203,0.0,5.3203,5.3203,5.3203,5.3203,5.3203,0.0,0.0,0.0,0.0,0.0,0.0,0.0,0.0,0.0,0.0,0.0,5.1017,5.0761,4.9925,4.9986,5.0147,5.0239,5.0395,5.0528,5.0636,5.0774,5.07,5.0252,5.0218,5.0636,5.1804,5.1843,5.2321,5.3701,5.3977,5.4115,5.4253,5.4425,5.4494,5.4494,5.4494,5.446,5.4322,5.4391,5.4494,5.4494,5.4494,5.4494,5.4494,5.4494,5.4494,5.4494,5.4494,5.4494,5.4494,5.4425,5.4287,5.4253,5.4184,5.4046,5.4011,5.408,5.3804,5.3318,5.3245,5.3207,5.3137,5.2723,5.2519,5.5633,5.5633,5.5633,5.5633,0.0,5.5633,5.5133,5.4363,5.3959,5.3592,5.3203,5.3203,5.3203,5.3203,5.3628,5.3775,5.3812,5.4216,5.4399,5.4399,5.4399,5.4399,5.4399,5.4399,5.4363,5.4399,5.4399,5.4399,5.4399,5.4399,5.4399,5.4399,5.4803,5.4987,5.5023,5.5412,5.517,5.4399,5.3995,5.3812,5.3775,5.3387,5.3203,5.3203,5.3203,0.0,0.0,0.0,0.0,0.0,0.0,0.0,0.0,5.1994,0.0,5.1637,5.1347,5.1322,5.1551,5.1123,5.0803,5.0838,5.0914,5.0641,4.9875,4.9907,5.0092,5.0341,5.0466,5.0735,5.108,5.1395,5.1666,5.1701,5.2011,5.2563,5.3153,5.3356,5.3667,5.4322,5.4494,5.4494,5.4494,5.4494,5.4494,5.4494,5.4494,5.4529,5.4494,5.4494,5.4494,5.4494,5.4494,5.4494,5.4494,5.4494,5.4529,5.4494,5.4494,5.4494,5.4494,5.4494,5.4494,5.4494,5.4494,5.4494,5.4494,5.4494,5.4356,5.4046,5.3942,5.3932,5.3893,5.3239,5.2783,5.6014,5.6037,5.6037,5.6014,5.6014,5.6014,5.5941,5.5757,0.0,0.0,0.0,5.3607,5.3628,5.3665,5.4326,5.462,5.4656,5.5302,5.5633,5.5633,5.5633,5.5633,5.5633,5.5633,5.5633,5.5633,5.5633,5.5633,5.5633,5.5633,5.5633,5.5633,5.5721,5.5868,5.5978,5.6014,5.6037,5.5978,5.5097,5.462,5.4583,5.3959,5.3607,5.3628,5.3628,5.3586,5.3441,5.3463,5.317,5.2508,5.2425,5.2138,5.1536,5.1449,5.1398,5.1331,5.1051,5.1068,5.1457,5.0795,5.0558,5.1032,5.1205,5.0976,5.0252,5.0321,5.0459,5.0597,5.0597,5.0942,5.1632,5.2222,5.2873,5.3529,5.4149,5.4494,5.4494,5.4494,5.446,5.4494,5.4494,5.4494,5.4494,5.4494,5.4494,5.4529,5.4667,5.4805,5.4839,5.4701,5.4563,5.4736,5.4805,5.477,5.4908,5.5012,5.4908,5.5046,5.5012,5.4908,5.4908,5.477,5.4701,5.477,5.4632,5.4529,5.4494,5.4494,5.4494,5.4494,5.4494,5.4494,5.4422,5.3857,5.3421,5.7629,5.7666,5.7666,5.7666,5.7666,5.7666,5.7262,5.6565,5.5794,5.5354,5.5244,5.5265,5.5244,5.5302,5.5376,5.5449,5.5449,5.5559,5.5633,5.5633,5.5633,5.5633,5.5633,5.5633,5.5633,5.5633,5.5611,5.5633,5.5633,5.5611,5.5633,5.5684,5.6271,5.6969,5.7593,5.7666,5.7666,5.7629,5.6161,5.5427,5.5427,5.5317,5.5244,5.5244,5.5244,5.5007,5.4495,5.4471,5.3905,5.2738,5.2651,5.21,5.0999,5.0946,5.0694,5.0298,5.0737,5.1089,5.1176,5.1618,5.1938,5.1998,5.2041,5.174,5.1045,5.1498,5.2183,5.2804,5.2839,5.3218,5.3942,5.4046,5.4149,5.4287,5.446,5.4494,5.4494,5.4494,5.4494,5.4494,5.4494,5.4529,5.4563,5.4563,5.4598,5.4632,5.5118,5.5701,5.6012,5.5322,5.4874,5.5255,5.5428,5.5736,5.615,5.646,5.6357,5.6495,5.6391,5.6288,5.6288,5.5839,5.5495,5.5428,5.5046,5.4667,5.4598,5.4494,5.4598,5.4632,5.4598,5.4563,5.4529,5.4278,5.406,5.7997,5.7997,5.7927,5.7904,5.7904,5.7797,5.7614,5.7294,5.6882,5.6269,5.5611,5.5633,5.5633,5.5647,5.6051,5.6235,5.6271,5.6712,5.6895,5.6895,5.6895,5.6895,5.6895,5.6827,5.6827,5.6895,5.6827,5.6804,5.6804,5.6873,5.6873,5.6804,5.7253,5.7629,5.796,5.7997,5.7997,5.796,5.6859,5.6235,5.6235,5.5487,5.5093,5.5093,5.4798,5.4506,5.422,5.4194,5.3794,5.2881,5.2854,5.2466,5.1622,5.1558,5.1477,5.1218,5.1528,5.1701,5.1701,5.2425,5.2873,5.2873,5.3253,5.3322,5.2946,5.2873,5.3184,5.3908,5.4011,5.4149,5.446,5.4494,5.4494,5.4494,5.4494,5.4494,5.4494,5.4494,5.4494,5.4494,5.4494,5.4667,5.5046,5.5115,5.5322,5.5667,5.6081,5.6426,5.6771,5.6253,5.5874,5.6184,5.6253,5.6391,5.6771,5.6805,5.6805,5.6805,5.6805,5.6805,5.6805,5.6426,5.6288,5.6253,5.5943,5.5805,5.5736,5.5736,5.5563,5.515,5.5115,5.5012,5.4667,5.4494,5.4482,5.85,5.8464,5.843,5.8273,5.8066,5.7752,5.7679,5.7763,5.7631,5.7008,5.6145,5.6057,5.6057,5.6131,5.6694,5.6988,5.7061,5.7611,5.7904,5.7927,5.7927,5.7927,5.7904,5.7774,5.7797,5.7904,5.7774,5.7726,5.7786,5.8027,5.8152,5.8093,5.8178,5.8166,5.8069,5.8069,5.8069,5.8057,5.751,5.7154,5.7019,5.5741,5.5121,5.5195,5.4655,5.4287,5.418,5.4153,5.3836,5.3165,5.3108,5.2834,5.2248,5.2188,5.2188,5.2188,5.239,5.2563,5.277,5.3287,5.3632,5.3667,5.4184,5.4494,5.446,5.3914,5.3842,5.4394,5.4428,5.4431,5.4463,5.4431,5.4431,5.4494,5.4494,5.4494,5.4529,5.4601,5.477,5.477,5.4908,5.5288,5.5701,5.5874,5.6184,5.6805,5.7047,5.7081,5.7219,5.7288,5.7288,5.7288,5.7185,5.7185,5.7219,5.7357,5.7391,5.7322,5.7357,5.7426,5.7391,5.7219,5.7047,5.7012,5.684,5.6702,5.6771,5.6736,5.646,5.5977,5.5874,5.5667,5.4977,5.4839,5.4793,5.9993,6.0018,6.0054,5.9663,5.8811,5.8116,5.7752,5.768,5.7619,5.7546,5.7448,5.7448,5.7412,5.7448,5.7485,5.7485,5.7521,5.7631,5.7667,5.7667,5.7667,5.7607,5.774,5.768,5.7607,5.768,5.7692,5.768,5.7692,5.8361,5.8754,5.8862,5.888,5.8617,5.8217,5.816,5.8253,5.8466,5.8394,5.8195,5.7844,5.6732,5.6384,5.6873,5.6357,5.5814,5.5279,5.5279,5.4669,5.351,5.338,5.3004,5.2356,5.2188,5.2222,5.2257,5.2908,5.3563,5.4184,5.4391,5.4391,5.4391,5.4425,5.4494,5.4494,5.4267,5.42,5.4434,5.437,5.4303,5.4463,5.4335,5.437,5.4601,5.4566,5.4494,5.4635,5.5115,5.5529,5.5462,5.6046,5.6633,5.6633,5.6736,5.7012,5.7702,5.7805,5.7978,5.8461,5.8564,5.8564,5.8564,5.8254,5.8116,5.8495,5.8771,5.8599,5.8668,5.8737,5.8633,5.8461,5.815,5.7805,5.7736,5.7357,5.7047,5.6978,5.6805,5.6874,5.6736,5.6598,5.6426,5.5736,5.5529,5.5386,6.0101,6.0101,6.0076,5.9844,5.9429,5.9026,5.8892,5.8917,5.8842,5.8754,5.8791,5.8754,5.8346,5.7619,5.7583,5.7583,5.7619,5.8093,5.8312,5.8349,5.8786,5.898,5.9017,5.8942,5.8754,5.8461,5.8346,5.8107,5.7842,5.8037,5.8274,5.8381,5.8388,5.8301,5.806,5.8096,5.8125,5.8184,5.7827,5.7777,5.7898,5.7441,5.7211,5.7384,5.6886,5.6501,5.6182,5.5803,5.5261,5.4733,5.4287,5.3908,5.3598,5.3532,5.3563,5.3566,5.3873,5.4184,5.4494,5.4494,5.4494,5.4494,5.4494,5.4494,5.4529,5.4748,5.4926,5.4957,5.4546,5.4239,5.4338,5.4335,5.4539,5.492,5.5058,5.5195,5.5642,5.5917,5.6157,5.629,5.6598,5.7012,5.7426,5.784,5.8219,5.853,5.8564,5.8702,5.8978,5.9012,5.9012,5.8978,5.8737,5.8702,5.8944,5.9012,5.9012,5.9012,5.9012,5.9012,5.8944,5.884,5.8564,5.8564,5.8219,5.8012,5.8185,5.8081,5.8012,5.7667,5.6978,5.6667,5.6357,5.6322,5.5977,6.0606,6.057,6.0336,6.0176,6.0088,5.9792,5.9693,5.9745,5.9641,5.9615,5.9615,5.9615,5.8963,5.8025,5.8042,5.8141,5.8226,5.8584,5.8761,5.8772,5.9184,5.9294,5.933,5.925,5.8995,5.8652,5.8474,5.8326,5.8053,5.8057,5.8132,5.8242,5.8246,5.8184,5.8059,5.8027,5.8059,5.8094,5.7679,5.7679,5.8062,5.7971,5.7796,5.7506,5.6932,5.6605,5.6605,5.6055,5.5745,5.5745,5.5296,5.5051,5.5051,5.5118,5.515,5.515,5.5086,5.5051,5.5051,5.4987,5.4954,5.4954,5.4954,5.4954,5.5025,5.5341,5.5549,5.5515,5.5036,5.4728,5.476,5.4825,5.5099,5.5513,5.5616,5.5856,5.6302,5.6541,5.678,5.6915,5.7223,5.7531,5.815,5.8633,5.8944,5.8944,5.8978,5.9012,5.9012,5.9012,5.9012,5.9012,5.9012,5.9012,5.9012,5.9012,5.9012,5.9012,5.9012,5.9012,5.9012,5.9012,5.9012,5.8806,5.8944,5.8944,5.8737,5.8806,5.8875,5.8323,5.7771,5.7288,5.715,5.7116,5.6771,6.2112,6.1957,6.1371,6.1054,6.0877,6.016,5.9756,5.9796,5.9661,5.9625,5.9671,5.9608,5.9195,5.8609,5.9177,5.947,5.9355,5.884,5.8652,5.8595,5.8142,5.7781,5.7715,5.7715,5.775,5.789,5.7926,5.8114,5.8647,5.8713,5.8808,5.8804,5.8769,5.86,5.8252,5.8147,5.8284,5.8358,5.8323,5.839,5.8425,5.839,5.798,5.7235,5.6571,5.6372,5.6338,5.6201,5.6167,5.6167,5.6233,5.6333,5.6368,5.6534,5.6565,5.6565,5.6468,5.6368,5.6266,5.6131,5.603,5.6098,5.5961,5.6098,5.5927,5.5996,5.603,5.5996,5.5962,5.5996,5.6031,5.586,5.5928,5.6099,5.6167,5.6235,5.6304,5.6987,5.7226,5.7432,5.8015,5.8497,5.8841,5.8978,5.8978,5.8978,5.8978,5.9012,5.9012,5.9012,5.9012,5.9012,5.9012,5.9012,5.9012,5.9012,5.9012,5.9012,5.9012,5.9012,5.9012,5.9012,5.9012,5.9012,5.9012,5.9012,5.9012,5.9012,5.8978,5.8771,5.8737,5.8426,5.7943,5.7874,5.7529,6.206,6.2051,6.1851,6.1679,6.1589,6.1335,6.1199,6.1082,6.0652,6.0482,6.0397,6.0042,5.9744,5.9531,5.9709,5.9266,5.842,5.8572,5.8729,5.8734,5.8976,5.9159,5.9159,5.9159,5.8873,5.8481,5.8415,5.8355,5.8187,5.8221,5.8219,5.8247,5.828,5.8173,5.8027,5.7991,5.8027,5.8099,5.8133,5.8099,5.8133,5.8099,5.7936,5.7636,5.7671,5.767,5.767,5.7192,5.6918,5.6884,5.6577,5.6303,5.6337,5.6371,5.6404,5.6404,5.6337,5.6337,5.6303,5.6269,5.6235,5.6235,5.6235,5.6235,5.6269,5.6507,5.6709,5.6742,5.7045,5.7213,5.7114,5.6574,5.6303,5.6677,5.678,5.695,5.7393,5.7733,5.7905,5.8079,5.8424,5.8631,5.8735,5.8806,5.8875,5.8875,5.8944,5.9047,5.9047,5.9012,5.9082,5.9012,5.9012,5.9012,5.9012,5.9012,5.9012,5.9012,5.9012,5.9012,5.9012,5.9012,5.9012,5.9012,5.9012,5.9012,5.9012,5.9012,5.9012,5.9012,5.9012,5.8909,5.8668,5.8461,5.815,6.2041,6.2041,6.2041,6.2041,6.1978,6.1748,6.1664,6.1608,6.0956,6.0686,6.0595,6.0188,5.987,5.9676,5.9644,5.8957,5.7858,5.8505,5.8843,5.8881,5.9205,5.9349,5.9314,5.9314,5.9045,5.8633,5.8564,5.8351,5.7954,5.7881,5.7881,5.7918,5.7881,5.7881,5.7881,5.7881,5.7881,5.7881,5.7881,5.7918,5.7881,5.7881,5.7881,5.7918,5.8205,5.8278,5.8312,5.7801,5.746,5.7427,5.7087,5.6884,5.6953,5.6953,5.6953,5.6918,5.6884,5.6849,5.6849,5.6814,5.6745,5.6745,5.6745,5.6745,5.6779,5.7116,5.7318,5.7452,5.7652,5.7881,5.7749,5.7182,5.6948,5.7284,5.7386,5.7556,5.8031,5.8099,5.8171,5.8314,5.835,5.8522,5.8798,5.8972,5.918,5.9351,5.9492,5.9562,5.9632,5.9667,5.9667,5.9702,5.984,5.9875,5.9944,6.0047,5.9426,5.9288,5.9219,5.915,5.9185,5.915,5.9116,5.9081,5.9047,5.9012,5.9012,5.9047,5.9047,5.9081,5.9012,5.8944,5.8909,5.8944,5.8599,6.2041,6.2041,6.2041,6.2041,6.1923,6.143,6.1075,6.1045,6.041,6.0093,6.0093,5.9934,5.9447,5.9011,5.8909,5.8495,5.8074,5.8496,5.8806,5.8737,5.8317,5.8099,5.8065,5.8101,5.8101,5.7991,5.7954,5.7918,5.7918,5.7881,5.7881,5.7881,5.7881,5.7881,5.7881,5.7881,5.7881,5.7881,5.7881,5.7881,5.7881,5.7881,5.7881,5.7881,5.7918,5.7954,5.7918,5.7884,5.7853,5.7887,5.7997,5.8278,5.8214,5.825,5.8388,5.8214,5.821,5.8139,5.8103,5.7857,5.7717,5.7717,5.7816,5.7717,5.7683,5.7853,5.7918,5.7952,5.8053,5.8051,5.8084,5.8019,5.792,5.7881,5.785,5.7986,5.7986,5.7986,5.8022,5.8339,5.8443,5.8651,5.927,5.9581,5.9786,6.0267,6.0474,6.0513,6.0587,6.0623,6.0937,6.1044,6.0803,6.0561,6.0908,6.1185,6.0289,5.9599,5.953,5.9495,5.9633,5.9668,5.9737,5.9702,5.9737,5.9702,5.9737,5.9737,5.9599,5.9564,5.9357,5.9219,5.9254,5.9288,5.9047,6.2041,6.2041,6.2041,6.2041,6.1978,6.1748,6.1692,6.1515,6.0498,5.9998,5.9806,5.8978,5.8388,5.828,5.8209,5.8101,5.7918,5.8137,5.8209,5.8243,5.7991,5.7881,5.7881,5.7881,5.7881,5.7881,5.7881,5.7881,5.7881,5.7881,5.7881,5.7881,5.7881,5.7881,5.7881,5.7881,5.7881,5.7881,5.7881,5.7881,5.7881,5.7881,5.7881,5.7881,5.7881,5.7881,5.7881,5.7881,5.7881,5.7881,5.7954,5.8027,5.8063,5.8063,5.8063,5.8063,5.8027,5.7991,5.7991,5.7952,5.7949,5.7915,5.7915,5.7881,5.7949,5.8389,5.8626,5.8727,5.9099,5.9404,5.9404,5.9404,5.8964,5.8017,5.8355,5.866,5.8727,5.9066,5.9407,5.9478,5.9478,5.9651,5.9861,6.0038,6.0285,6.056,6.0703,6.0813,6.0816,6.0989,6.0784,6.0857,6.0893,6.1208,6.1452,6.1664,6.1252,6.0667,6.0461,6.0116,6.0185,6.0254,6.0323,6.0358,6.0392,6.0392,6.0427,6.0392,6.0289,6.0254,6.0185,6.0047,5.9806,5.9599,5.9357,6.2041,6.195,6.172,6.1636,6.1551,6.1104,6.0831,6.0681,5.9709,5.9214,5.9012,5.8315,5.7881,5.7881,5.7881,5.8051,5.8287,5.8321,5.8457,5.8524,5.8051,5.8017,5.8254,5.8321,5.8118,5.7915,5.7881,5.7881,5.7881,5.7881,5.7881,5.7881,5.7881,5.7881,5.7881,5.7881,5.7881,5.7881,5.7881,5.7881,5.7881,5.7881,5.7881,5.7915,5.8152,5.8287,5.8321,5.8558,5.8457,5.8017,5.7881,5.7881,5.7881,5.7918,5.7881,5.7949,5.8152,5.8321,5.8321,5.8626,5.8693,5.8727,5.8693,5.8727,5.8795,5.9235,5.9404,5.9505,5.9776,6.008,6.008,6.008,5.9641,5.8863,5.9133,5.9404,5.9505,5.981,6.0047,6.0013,6.0047,6.025,6.0491,6.063,6.088,6.1049,6.1265,6.1378,6.1415,6.1521,6.1419,6.1493,6.1847,6.2027,6.1963,6.2037,6.2146,6.1838,6.1565,6.1151,6.0944,6.0944,6.0978,6.0944,6.0944,6.0909,6.0909,6.1013,6.0978,6.1013,6.1013,6.0771,6.0496,5.9978,5.9668,6.1978,6.1868,6.1286,6.1016,6.0837,5.9706,5.9279,5.9011,5.8388,5.8173,5.8099,5.8092,5.8017,5.7983,5.8186,5.8558,5.8964,5.9066,5.937,5.9438,5.8863,5.8524,5.8998,5.9066,5.8795,5.8287,5.8186,5.8152,5.8254,5.8254,5.8017,5.8186,5.822,5.8051,5.822,5.8051,5.8186,5.822,5.8152,5.8152,5.8152,5.8118,5.8118,5.8152,5.8761,5.9066,5.9167,5.9573,5.9336,5.8254,5.8186,5.822,5.8084,5.8017,5.8152,5.8254,5.8727,5.8998,5.9201,5.9539,5.9877,5.9844,5.9844,6.008,5.9911,6.0013,6.0182,6.0182,6.0351,6.0385,6.0385,6.0419,6.0317,6.025,6.0216,6.0216,6.025,6.0351,6.0486,6.0419,6.0317,6.052,6.1264,6.1366,6.1675,6.2048,6.2183,6.2232,6.231,6.2319,6.2634,6.2642,6.2518,6.2525,6.232,6.2429,6.2507,6.2447,6.2316,6.2113,6.1875,6.1841,6.1841,6.1772,6.1634,6.153,6.1599,6.1841,6.1875,6.1875,6.1737,6.1461,6.1116,6.0668,6.0289,6.1692,6.1286,6.1075,6.0747,6.0251,5.9806,5.9676,5.9611,5.8909,5.8562,5.8631,5.8713,5.8727,5.8761,5.9268,5.9641,5.9776,5.981,5.9877,6.0013,5.9776,5.9607,5.9776,5.981,5.9708,5.9471,5.937,5.9539,5.9505,5.9404,5.9438,5.9505,5.9404,5.9438,5.9505,5.9438,5.9505,5.9505,5.9505,5.9471,5.9438,5.9438,5.9505,5.9539,5.9708,5.981,5.9844,5.9979,5.9979,5.9607,5.9539,5.9539,5.9438,5.9438,5.937,5.9438,5.9641,5.981,5.9877,6.0047,6.0148,6.008,6.025,6.008,6.0114,6.0655,6.0926,6.1095,6.1434,6.1738,6.1738,6.1738,6.1738,6.1704,6.1264,6.1163,6.1569,6.1806,6.1806,6.1806,6.1738,6.1839,6.1941,6.2042,6.211,6.2347,6.2381,6.242,6.2498,6.2498,6.2576,6.2537,6.2441,6.2625,6.2702,6.2779,6.2859,6.2943,6.2956,6.3039,6.294,6.2979,6.3013,6.3048,6.2737,6.2565,6.2841,6.3082,6.2979,6.2668,6.2461,6.2186,6.1944,6.1565,6.1185,6.1343,6.0921,6.0375,5.9934,5.9513,5.9247,5.9113,5.908,5.9046,5.8937,5.9001,5.9355,5.9471,5.9505,5.9911,6.0317,6.0554,6.0622,6.0791,6.1061,6.1061,6.0723,6.0351,6.0385,6.0452,6.0114,6.0114,6.008,6.0047,6.008,6.008,6.0047,6.008,6.008,6.0013,6.008,6.0114,6.008,6.008,6.008,6.008,6.008,6.008,6.0182,6.0385,6.0689,6.0994,6.1061,6.0825,6.0283,6.008,6.008,6.008,6.008,6.008,6.0114,6.0385,6.0588,6.0689,6.0858,6.1061,6.1095,6.1061,6.1061,6.1163,6.1535,6.1772,6.1806,6.2178,6.2347,6.2415,6.2415,6.2415,6.2279,6.2009,6.1941,6.2381,6.2347,6.2381,6.2415,6.2415,6.2415,6.2415,6.2415,6.2415,6.2415,6.2415,6.2415,6.2454,6.2415,6.2415,6.2381,6.2459,6.2615,6.2731,6.2808,6.2847,6.2966,6.308,6.3302,6.3489,6.3563,6.3565,6.3496,6.3565,6.36,6.36,6.36,6.3462,6.3186,6.3048,6.291,6.2703,6.2358,6.1944,6.0927,6.0681,5.9412,5.884,5.8737,5.8275,5.8267,5.8225,5.8869,5.9208,5.9306,5.9911,6.0216,6.0216,6.052,6.0791,6.1434,6.14,6.1772,6.2042,6.211,6.1637,6.0757,6.1163,6.1095,6.0622,6.0385,6.0452,6.0588,6.0486,6.0419,6.0588,6.052,6.0419,6.0588,6.0486,6.0351,6.052,6.0588,6.0622,6.0622,6.0622,6.0655,6.0723,6.1129,6.1637,6.2042,6.2212,6.1738,6.0419,6.0351,6.0486,6.0452,6.0385,6.0419,6.0554,6.1095,6.14,6.1501,6.1907,6.2279,6.2212,6.2245,6.2415,6.2245,6.2245,6.2279,6.2245,6.2381,6.2415,6.2415,6.2415,6.2415,6.2381,6.2347,6.2381,6.2415,6.2415,6.2415,6.2415,6.2415,6.2415,6.2415,6.2415,6.2415,6.2415,6.2415,6.2415,6.2415,6.2415,6.2415,6.2415,6.2532,6.2649,6.2693,6.277,6.2847,6.2923,6.3,6.3152,6.3414,6.3526,6.3563,6.36,6.36,6.36,6.36,6.36,6.36,6.3565,6.3324,6.3427,6.3462,6.2979,6.2565,6.0375,5.9313,5.9011,5.8564,5.8239,5.8564,5.8761,5.8795,5.9539,5.9877,6.0047,6.0689,6.1028,6.1095,6.1535,6.2009,6.2076,6.211,6.2279,6.2347,6.2415,6.2279,6.1873,6.2042,6.2009,6.1806,6.1839,6.1873,6.1839,6.1704,6.1873,6.1839,6.167,6.1873,6.1806,6.1704,6.1873,6.1873,6.1839,6.1772,6.1738,6.1738,6.1772,6.1806,6.2009,6.2178,6.2347,6.2415,6.2212,6.1975,6.1839,6.1704,6.1738,6.1772,6.1738,6.1772,6.1941,6.211,6.2178,6.2279,6.2415,6.2415,6.2415,6.2415,6.2415,6.2415,6.2415,6.2415,6.2415,6.2415,6.2302,6.2375,6.2263,6.2183,6.2223,6.2296,6.2375,6.2415,6.2381,6.2341,6.2341,6.2415,6.2341,6.2223,6.2263,6.2341,6.2375,6.2415,6.2409,6.2403,6.2651,6.2787,6.2894,6.3114,6.3114,6.3158,6.3096,6.311,6.3085,6.2996,6.3261,6.3452,6.3489,6.3526,6.36,6.36,6.36,6.36,6.36,6.36,6.36,6.36,6.3531,6.3289,6.3186,5.9576,5.8909,5.8598,5.8244,5.8053,5.8693,5.8998,5.9235,6.0216,6.0655,6.0825,6.1501,6.1806,6.1839,6.2212,6.2381,6.2415,6.2415,6.2381,6.2415,6.2415,6.2415,6.2415,6.2415,6.2415,6.2415,6.2381,6.2415,6.2415,6.2415,6.2313,6.2415,6.2415,6.2313,6.2415,6.2415,6.2347,6.2347,6.2415,6.2415,6.2415,6.2415,6.2415,6.2415,6.2415,6.2415,6.2415,6.2415,6.2415,6.2415,6.2415,6.2415,6.2415,6.2415,6.2415,6.2415,6.2415,6.2415,6.2381,6.2415,6.2415,6.2415,6.2415,6.2415,6.2415,6.2415,6.2415,6.2415,6.2341,6.2263,6.183,6.1716,6.1635,6.1185,6.1144,6.1202,6.1592,6.1991,6.215,6.1911,6.1676,6.1676,6.1676,6.1795,6.1695,6.1647,6.181,6.1884,6.2475,6.2616,6.3282,6.3497,6.3531,6.3639,6.3639,6.3571,6.3509,6.3459,6.3407,6.3144,6.3026,6.3186,6.3343,6.3452,6.3526,6.36,6.36,6.36,6.36,6.36,6.36,6.36,6.3565,6.3427,6.3427,5.8841,5.8703,5.8137,5.7881,5.8017,5.8795,5.9235,5.9438,6.0825,6.1467,6.1569,6.2144,6.2279,6.2381,6.2347,6.2415,6.2415,6.2415,6.2415,6.2415,6.2415,6.2415,6.2415,6.2415,6.2415,6.2415,6.2415,6.2415,6.2415,6.2415,6.2415,6.2415,6.2415,6.2415,6.2415,6.2415,6.2415,6.2415,6.2415,6.2415,6.2415,6.2415,6.2415,6.2415,6.2415,6.2415,6.2415,6.2415,6.2448,6.255,6.255,6.2618,6.2685,6.2415,6.2415,6.2415,6.2415,6.2415,6.2415,6.2415,6.2415,6.2415,6.2352,6.2346,6.2306,6.2428,6.2441,6.2293,6.2204,6.1924,6.1225,6.1264,6.0857,6.0315,6.002,6.0158,6.0748,6.1682,6.1758,6.1441,6.1429,6.1495,6.1353,6.1343,6.1155,6.1075,6.1318,6.1617,6.2316,6.294,6.3653,6.4038,6.4072,6.4072,6.4072,6.4106,6.4005,6.3983,6.3826,6.36,6.3344,6.3635,6.3867,6.3408,6.3417,6.3523,6.356,6.3489,6.3526,6.3563,6.36,6.36,6.36,6.36,6.36,5.8598,5.8029,5.7954,5.7881,5.8118,5.9336,5.9911,6.0182,6.1535,6.2212,6.2212,6.2313,6.2415,6.2415,6.2415,6.2415,6.2415,6.2415,6.2415,6.2415,6.2415,6.2415,6.2415,6.2415,6.2415,6.2415,6.2415,6.2415,6.2415,6.2415,6.2415,6.2415,6.2415,6.2415,6.2415,6.2415,6.2415,6.2415,6.2415,6.2415,6.2415,6.2415,6.2415,6.2415,6.2415,6.2448,6.2448,6.2448,6.2651,6.326,6.3328,6.3632,6.3734,6.3057,6.2618,6.2584,6.2539,6.2493,6.2493,6.2398,6.2409,6.2358,6.2197,6.2091,6.2182,6.2472,6.2392,6.1972,6.1785,6.1629,6.1548,6.1276,6.1393,6.1168,6.0935,6.0986,6.1251,6.1446,6.1617,6.1336,6.1336,6.1475,6.1369,6.1415,6.1601,6.1871,6.2245,6.258,6.3182,6.3635,6.411,6.4383,6.4512,6.4512,6.4512,6.458,6.458,6.4546,6.4458,6.447,6.4313,6.4529,6.4449,6.3927,6.3566,6.3501,6.3505,6.3514,6.3486,6.3597,6.3634,6.36,6.36,6.36,6.36,5.8209,5.7918,5.7881,5.8118,5.8626,5.9641,6.0351,6.0858,6.1907,6.2415,6.2415,6.2415,6.2415,6.2415,6.2415,6.2415,6.2415,6.2415,6.2415,6.2415,6.2415,6.2415,6.2415,6.2415,6.2415,6.2415,6.2415,6.2415,6.2415,6.2415,6.2415,6.2415,6.2415,6.2415,6.2415,6.2415,6.2415,6.2415,6.2415,6.2415,6.2415,6.2415,6.2415,6.2415,6.2448,6.2584,6.2956,6.299,6.3328,6.3903,6.4072,6.4275,6.4275,6.4072,6.3531,6.3491,6.3101,6.2781,6.2615,6.2365,6.2009,6.1933,6.1884,6.1797,6.1851,6.2003,6.215,6.1802,6.1588,6.1405,6.0878,6.0927,6.066,6.0234,6.0249,6.0439,6.058,6.0674,6.0929,6.1169,6.0931,6.1081,6.1517,6.1743,6.2199,6.2629,6.3087,6.3491,6.3843,6.4081,6.4361,6.5018,6.5218,6.5459,6.5425,6.5392,6.529,6.5189,6.5155,6.5135,6.5006,6.5054,6.4714,6.4217,6.3927,6.4054,6.3875,6.4023,6.3864,6.3664,6.3666,6.3669,6.3634,6.36,6.36,5.7881,5.7881,5.7881,5.8321,5.9066,5.9776,6.0554,6.1332,6.2076,6.2415,6.2415,6.2415,6.2415,6.2415,6.2415,6.2415,6.2415,6.2415,6.2415,6.2415,6.2415,6.2415,6.2415,6.2415,6.2415,6.2415,6.2415,6.2415,6.2415,6.2415,6.2415,6.2415,6.2415,6.2415,6.2415,6.2415,6.2415,6.2415,6.2415,6.2415,6.2415,6.2415,6.2482,6.2618,6.2618,6.299,6.3666,6.3734,6.4106,6.4613,6.485,6.4918,6.5019,6.5053,6.5053,6.4862,6.4011,6.3515,6.3192,6.253,6.2168,6.2179,6.1698,6.169,6.1833,6.1962,6.1859,6.1731,6.1421,6.1154,6.0624,6.0401,6.009,5.9675,5.9518,5.9479,6.0032,6.038,6.0555,6.0602,6.0371,6.0655,6.1233,6.1818,6.2213,6.2553,6.3075,6.3379,6.3699,6.4,6.4443,6.5497,6.6051,6.6424,6.6474,6.6373,6.6203,6.5933,6.5899,6.5873,6.5602,6.5331,6.506,6.5033,6.5257,6.5323,6.4986,6.4496,6.4332,6.4099,6.3905,6.3738,6.3669,6.36,6.36,5.7881,5.7881,5.7881,5.8321,5.9099,5.9844,6.0588,6.14,6.211,6.2381,6.2415,6.2415,6.2415,6.2415,6.2415,6.2415,6.2415,6.2415,6.2415,6.2415,6.2415,6.2415,6.2415,6.2415,6.2415,6.2415,6.2415,6.2415,6.2415,6.2415,6.2415,6.2415,6.2415,6.2415,6.2415,6.2415,6.2415,6.2415,6.2415,6.2415,6.2448,6.2482,6.2787,6.3226,6.3389,6.3694,6.4302,6.4438,6.4735,6.5418,6.5561,6.5899,6.6406,6.6542,6.6542,6.6128,6.5335,6.4416,6.4103,6.3067,6.2448,6.2217,6.1784,6.1867,6.1933,6.2045,6.1943,6.2165,6.149,6.0944,6.0699,6.0681,6.0589,6.0496,6.027,6.0332,6.0578,6.0393,6.0609,6.0661,6.0625,6.0679,6.0975,6.1639,6.2246,6.2603,6.3003,6.3303,6.3692,6.4074,6.4527,6.5536,6.6311,6.6686,6.6812,6.6812,6.6745,6.6508,6.6474,6.644,6.6203,6.6,6.6305,6.6313,6.643,6.6173,6.5521,6.5073,6.482,6.4568,6.4346,6.4008,6.3703,6.3634,6.3634,5.7881,5.7915,5.8355,5.8964,5.9674,6.0452,6.1231,6.1873,6.2245,6.2415,6.2415,6.2415,6.2415,6.2415,6.2415,6.2415,6.2415,6.2415,6.2415,6.2415,6.2415,6.2415,6.2415,6.2415,6.2415,6.2415,6.2415,6.2415,6.2415,6.2415,6.2415,6.2415,6.2415,6.2415,6.2415,6.2415,6.2415,6.2415,6.2448,6.2618,6.2922,6.3091,6.3396,6.4032,6.4018,6.4424,6.4937,6.4933,6.5303,6.5918,6.6171,6.6264,6.6576,6.6686,6.661,6.5875,6.5364,6.4737,6.4089,6.2719,6.2139,6.1806,6.1361,6.1233,6.1495,6.1634,6.1531,6.1399,6.1072,6.0845,6.0794,6.0794,6.0794,6.0794,6.0794,6.0794,6.0794,6.0794,6.0763,6.0794,6.0794,6.0794,6.0897,6.1469,6.2175,6.2731,6.3132,6.3432,6.3947,6.4531,6.497,6.5559,6.6192,6.677,6.6812,6.6812,6.6812,6.6677,6.6677,6.6677,6.6745,6.6745,6.6812,6.6812,6.6685,6.6321,6.5929,6.5719,6.5517,6.5172,6.4748,6.4518,6.4215,6.3703,6.3669,5.7881,5.7983,5.8693,5.9438,6.0182,6.096,6.1704,6.2347,6.2381,6.2415,6.2415,6.2415,6.2415,6.2415,6.2415,6.2415,6.2415,6.2415,6.2415,6.2415,6.2415,6.2415,6.2415,6.2415,6.2415,6.2415,6.2415,6.2415,6.2415,6.2415,6.2415,6.2415,6.2415,6.2415,6.2415,6.2415,6.2482,6.2787,6.2674,6.2972,6.3512,6.3566,6.4004,6.4402,6.4664,6.4891,6.5581,6.5505,6.5789,6.6143,6.5942,6.5898,6.6302,6.6139,6.6062,6.547,6.5005,6.4205,6.3415,6.2392,6.1348,6.1175,6.1124,6.1255,6.0939,6.0949,6.0949,6.1,6.0845,6.0794,6.0794,6.0794,6.0794,6.0794,6.0794,6.0794,6.0794,6.0794,6.0794,6.0794,6.0794,6.0794,6.0969,6.145,6.2072,6.2746,6.3228,6.3561,6.4124,6.472,6.5114,6.5548,6.6268,6.677,6.6812,6.6812,6.6812,6.6812,6.6812,6.6812,6.6812,6.6812,6.6812,6.6812,6.6812,6.6677,6.6354,6.6282,6.6174,6.5722,6.5338,6.5122,6.4755,6.4215,6.3772,5.7881,5.7949,5.8727,5.9438,6.0182,6.096,6.1738,6.2381,6.2415,6.2415,6.2415,6.2415,6.2415,6.2415,6.2415,6.2415,6.2415,6.2415,6.2415,6.2415,6.2415,6.2415,6.2415,6.2415,6.2415,6.2381,6.2341,6.2341,6.2381,6.2341,6.2381,6.2415,6.2448,6.2415,6.255,6.268,6.2984,6.3208,6.3195,6.3444,6.3941,6.4161,6.4338,6.4874,6.5033,6.5292,6.6005,6.5885,6.5885,6.6095,6.5404,6.5237,6.5625,6.5192,6.4979,6.4799,6.3952,6.3196,6.2502,6.2139,6.2121,6.2072,6.1903,6.1348,6.0742,6.1602,6.1652,6.0897,6.0794,6.0794,6.0794,6.0794,6.0794,6.0794,6.0794,6.0794,6.0794,6.0794,6.0794,6.0794,6.0794,6.0794,6.0794,6.1175,6.1277,6.1922,6.3084,6.3466,6.4124,6.4675,6.5024,6.5504,6.6268,6.6728,6.677,6.6812,6.6812,6.6812,6.6812,6.6812,6.6812,6.6812,6.6812,6.6812,6.6812,6.6812,6.6812,6.6633,6.6452,6.6201,6.588,6.5539,6.5117,6.4618,6.4108,5.8152,5.866,5.937,5.9844,6.0216,6.1434,6.2144,6.2381,6.2415,6.2415,6.2415,6.2415,6.2415,6.2415,6.2415,6.2415,6.2415,6.2415,6.2415,6.2415,6.2415,6.2415,6.2415,6.2381,6.2415,6.2341,6.2263,6.2263,6.2381,6.233,6.2521,6.2628,6.264,6.2787,6.2916,6.3269,6.3667,6.3754,6.3833,6.3969,6.4539,6.4698,6.4957,6.5593,6.5521,6.5664,6.6019,6.579,6.579,6.5614,6.4832,6.4832,6.4799,6.4124,6.3703,6.3623,6.2617,6.2009,6.1418,6.1093,6.0866,6.0866,6.0815,6.0742,6.0407,6.0866,6.0969,6.069,6.069,6.0742,6.0794,6.0794,6.0794,6.0794,6.0794,6.0794,6.0794,6.0794,6.0794,6.0794,6.0794,6.0794,6.0794,6.0845,6.0845,6.1021,6.2288,6.3514,6.4216,6.4811,6.5204,6.5548,6.6354,6.6728,6.677,6.6812,6.6812,6.6812,6.6812,6.6812,6.6812,6.6812,6.6812,6.6812,6.6812,6.6812,6.6812,6.693,6.681,6.6554,6.6201,6.5778,6.5402,6.498,6.4584,5.8524,5.9133,6.008,6.0452,6.0655,6.1839,6.2415,6.2415,6.2415,6.2415,6.2415,6.2415,6.2415,6.2415,6.2415,6.2415,6.2415,6.2415,6.2415,6.2381,6.2341,6.2302,6.2263,6.2223,6.2144,6.2144,6.2098,6.2098,6.2548,6.2327,6.2757,6.3026,6.3081,6.329,6.3518,6.3941,6.4262,6.4388,6.4321,6.4528,6.513,6.5144,6.52,6.5767,6.5636,6.5669,6.5746,6.5614,6.5559,6.5135,6.4558,6.411,6.3797,6.3324,6.2453,6.204,6.1539,6.0908,6.0399,6.0039,6.0069,6.0197,6.0144,6.0092,6.0039,6.0197,6.0355,6.0324,6.046,6.0586,6.0638,6.0638,6.0742,6.0742,6.0794,6.0794,6.0794,6.0794,6.0794,6.0794,6.0794,6.0794,6.0794,6.0897,6.15,6.15,6.2171,6.3514,6.472,6.5248,6.5636,6.5942,6.6397,6.6686,6.6812,6.6812,6.6812,6.6812,6.6812,6.6812,6.6812,6.6812,6.6812,6.6812,6.6812,6.6812,6.6812,6.6854,6.693,6.6946,6.6629,6.6276,6.5972,6.5588,6.5091,5.8998,5.9201,6.0622,6.1231,6.1332,6.2042,6.2415,6.2415,6.2415,6.2415,6.2415,6.2415,6.2415,6.2415,6.2415,6.2415,6.2381,6.2381,6.2341,6.2268,6.211,6.2037,6.2024,6.1978,6.2139,6.1817,6.2011,6.2412,6.2855,6.2814,6.3249,6.3743,6.3886,6.3886,6.3911,6.3911,6.4312,6.4848,6.4767,6.5114,6.5403,6.5404,6.5459,6.5492,6.5514,6.5514,6.5213,6.5168,6.5033,6.4636,6.326,6.3132,6.4017,6.1959,6.1589,6.2778,6.1387,6.0701,6.0576,6.0219,5.9933,5.9827,5.9773,5.9827,5.9963,5.9986,5.9986,5.9986,6.0092,6.0197,6.0302,6.0429,6.0534,6.0638,6.069,6.0794,6.0742,6.0794,6.0794,6.0794,6.0794,6.0794,6.0794,6.1021,6.1972,6.2337,6.2436,6.3324,6.4584,6.5204,6.5337,6.5811,6.6148,6.6525,6.6643,6.677,6.6812,6.6812,6.6812,6.6812,6.6812,6.6812,6.6812,6.6812,6.6812,6.6812,6.6812,6.6812,6.6854,6.6972,6.7056,6.6806,6.6541,6.6154,6.5583,5.9302,5.9844,6.0858,6.1569,6.2009,6.2279,6.2415,6.2415,6.2415,6.2415,6.2415,6.2415,6.2415,6.2415,6.2381,6.2381,6.2381,6.2189,6.215,6.211,6.1944,6.1797,6.1884,6.2245,6.2405,6.2531,6.2724,6.2983,6.3543,6.3417,6.3766,6.43,6.4647,6.479,6.4786,6.4896,6.5377,6.5467,6.5359,6.5282,6.5481,6.5425,6.5303,6.5303,6.5213,6.4988,6.4453,6.4407,6.4175,6.3546,6.204,6.1909,6.2404,6.0494,6.0211,6.0805,5.9766,5.9713,5.9606,5.9422,5.9452,5.9452,5.9452,5.9452,5.9452,5.9613,5.9667,5.972,5.9827,5.9986,6.0092,6.0144,6.025,6.0429,6.0534,6.0638,6.069,6.0794,6.0794,6.0794,6.0794,6.0794,6.0794,6.0845,6.1602,6.2121,6.2121,6.2436,6.3466,6.4124,6.4492,6.5159,6.568,6.6148,6.644,6.6397,6.6482,6.6525,6.6686,6.6812,6.6812,6.6812,6.6812,6.6812,6.6812,6.6812,6.6812,6.6812,6.6812,6.6854,6.6972,6.7014,6.6806,6.6378,6.5942,5.9674,6.0216,6.1231,6.1941,6.2347,6.2415,6.2415,6.2415,6.2415,6.2415,6.2415,6.2415,6.2415,6.2381,6.2302,6.2229,6.2229,6.203,6.2213,6.2173,6.2111,6.2264,6.2523,6.2707,6.2891,6.3091,6.3315,6.3639,6.4024,6.3895,6.4251,6.4839,6.5249,6.5171,6.5236,6.5436,6.5548,6.5504,6.5371,6.5135,6.4988,6.4761,6.4591,6.4328,6.4142,6.3955,6.3531,6.3244,6.3052,6.2139,6.1387,6.0877,6.0701,6.0,5.9446,5.9499,5.9261,5.9207,5.9153,5.9153,5.9207,5.9153,5.9099,5.9099,5.9099,5.9261,5.9315,5.9452,5.9613,5.972,5.9827,5.9827,5.9933,6.0167,6.0377,6.0481,6.0586,6.0638,6.0794,6.0794,6.0794,6.0794,6.0794,6.0897,6.1124,6.1481,6.1753,6.2072,6.2436,6.3084,6.375,6.4355,6.4811,6.5114,6.5514,6.5811,6.5975,6.6235,6.6482,6.677,6.6812,6.6812,6.6812,6.6812,6.6812,6.6812,6.6812,6.6812,6.6812,6.6812,6.6812,6.6854,6.6896,6.6641,6.6282,6.0114,6.0351,6.1772,6.2381,6.2415,6.2381,6.2381,6.2415,6.2415,6.2415,6.2415,6.2381,6.2341,6.2302,6.211,6.2064,6.2125,6.1924,6.2312,6.2631,6.2599,6.2957,6.3164,6.3378,6.3477,6.3425,6.3614,6.4154,6.4409,6.4409,6.4774,6.516,6.5326,6.5248,6.5204,6.5102,6.5258,6.5381,6.5425,6.5078,6.4761,6.4175,6.3815,6.3483,6.3164,6.2826,6.2534,6.2386,6.2238,6.169,6.1082,6.1337,6.1031,6.0128,6.0128,6.0,5.9499,5.9261,5.9099,5.9099,5.9099,5.9099,5.9099,5.9099,5.9099,5.9153,5.9207,5.9207,5.9261,5.9369,5.9476,5.9529,5.9667,5.9902,6.0167,6.0272,6.0429,6.0586,6.069,6.0794,6.0794,6.0794,6.0794,6.0845,6.0897,6.1052,6.1379,6.1702,6.2072,6.2485,6.3084,6.3514,6.3844,6.3984,6.4447,6.5248,6.5636,6.5975,6.6482,6.6812,6.6812,6.6812,6.6812,6.6812,6.6812,6.6812,6.6812,6.6812,6.6812,6.6812,6.6812,6.6812,6.6896,6.698,6.6724,6.0452,6.1061,6.1975,6.2415,6.2381,6.2189,6.2229,6.2381,6.2415,6.2415,6.2381,6.2189,6.211,6.2076,6.1911,6.2166,6.2345,6.249,6.2808,6.3015,6.323,6.3235,6.3491,6.3846,6.4001,6.4233,6.4465,6.473,6.4995,6.5061,6.5094,6.5392,6.5425,6.5078,6.4715,6.436,6.4852,6.5123,6.5258,6.4773,6.4407,6.3862,6.3388,6.3004,6.2826,6.2337,6.1489,6.1841,6.1539,6.0211,5.9842,5.9895,5.9736,5.9392,5.9392,5.9446,5.9207,5.9099,5.9099,5.9099,5.9099,5.9099,5.9099,5.9099,5.9099,5.9099,5.9099,5.9099,5.9099,5.9207,5.9261,5.9315,5.9422,5.9583,5.9849,6.0008,6.0167,6.0377,6.0534,6.069,6.0742,6.0794,6.0794,6.0794,6.0845,6.0794,6.0918,6.1297,6.1602,6.1972,6.2288,6.268,6.2988,6.3084,6.417,6.5114,6.5382,6.5724,6.6311,6.677,6.6812,6.6812,6.6812,6.6812,6.6812,6.6812,6.6812,6.6812,6.6812,6.6812,6.6812,6.6854,6.6896,6.6938,6.6938,6.0588,6.1366,6.1998,6.2223,6.2104,6.1951,6.1991,6.2144,6.211,6.2183,6.2189,6.1991,6.2045,6.2307,6.2204,6.2415,6.3083,6.294,6.3221,6.371,6.379,6.4011,6.4233,6.4498,6.473,6.4962,6.5127,6.526,6.5425,6.5425,6.5425,6.5425,6.5425,6.5033,6.4761,6.4761,6.4897,6.4864,6.4636,6.4063,6.3641,6.3164,6.2583,6.2319,6.227,6.1368,6.0442,6.0979,6.0233,5.9261,5.9153,5.9099,5.9153,5.9099,5.9099,5.9153,5.9153,5.9099,5.9099,5.9099,5.9099,5.9099,5.9099,5.9099,5.9099,5.9099,5.9099,5.9099,5.9099,5.9099,5.9099,5.9099,5.9207,5.9315,5.9476,5.969,5.9902,6.0114,6.0324,6.0586,6.069,6.0794,6.0794,6.0794,6.0794,6.0794,6.0794,6.0918,6.1072,6.1226,6.1399,6.1702,6.2022,6.2337,6.3466,6.4401,6.4675,6.5159,6.6148,6.6525,6.6686,6.6812,6.6812,6.6812,6.6812,6.6812,6.6812,6.6812,6.6812,6.6812,6.6812,6.6812,6.6812,6.6854,6.6854,6.0583,6.1429,6.1807,6.1877,6.1709,6.1669,6.1669,6.1669,6.1669,6.179,6.1951,6.1857,6.2171,6.2531,6.2599,6.3015,6.343,6.3501,6.3823,6.4432,6.4509,6.4664,6.5028,6.5392,6.5227,6.5326,6.5425,6.5425,6.5425,6.5425,6.5425,6.5425,6.5425,6.5123,6.4852,6.4806,6.4682,6.4235,6.3499,6.2697,6.2108,6.1286,6.0442,5.9948,5.9842,5.9523,5.9339,5.9261,5.9153,5.9153,5.9099,5.9099,5.9099,5.9099,5.9099,5.9099,5.9099,5.9099,5.9099,5.9099,5.9099,5.9099,5.9099,5.9099,5.9099,5.9099,5.9099,5.9099,5.9099,5.9099,5.9099,5.9099,5.9153,5.9207,5.9315,5.9476,5.969,5.9902,6.0197,6.0377,6.0534,6.0638,6.069,6.069,6.0794,6.0794,6.0794,6.0794,6.0794,6.0794,6.0897,6.1021,6.1602,6.1972,6.2022,6.2891,6.3656,6.4447,6.5636,6.6192,6.6192,6.6482,6.6812,6.6812,6.6812,6.6812,6.6812,6.6812,6.6812,6.6812,6.6812,6.6812,6.6812,6.6812,6.6812,6.0661,6.1807,6.177,6.1669,6.1465,6.1465,6.1465,6.1465,6.1293,6.1491,6.1769,6.2115,6.2432,6.2724,6.3055,6.3534,6.4055,6.4177,6.4608,6.4851,6.505,6.5005,6.5315,6.5291,6.5336,6.5425,6.5425,6.5258,6.5258,6.5303,6.5381,6.5381,6.5258,6.4988,6.4268,6.4268,6.3955,6.3404,6.2843,6.2891,6.3404,6.3116,6.2632,6.174,6.1235,6.0233,6.0,5.9842,5.9606,5.9315,5.9153,5.9099,5.9099,5.9099,5.9099,5.9099,5.9099,5.9099,5.9099,5.9099,5.9099,5.9099,5.9099,5.9099,5.9099,5.9099,5.9099,5.9099,5.9099,5.9099,5.9099,5.9099,5.9099,5.9153,5.9153,5.9315,5.9476,5.969,5.9986,6.0144,6.0324,6.0429,6.0534,6.0638,6.0742,6.0794,6.0794,6.0794,6.0794,6.0794,6.0794,6.1021,6.1753,6.1972,6.1652,6.2139,6.3228,6.3937,6.4979,6.5382,6.5767,6.6278,6.6812,6.6812,6.6812,6.6812,6.6812,6.6812,6.6812,6.6812,6.6812,6.6812,6.6812,6.6812,6.6812,6.0909,6.1803,6.1669,6.1424,6.1293,6.1252,6.1293,6.1318,6.1459,6.1708,6.1916,6.2266,6.2689,6.3188,6.3647,6.4133,6.4697,6.4829,6.5028,6.5248,6.5078,6.5045,6.5078,6.4943,6.4715,6.4715,6.4761,6.4715,6.4852,6.5213,6.5303,6.4852,6.4636,6.4268,6.334,6.3148,6.2972,6.2355,6.2337,6.3052,6.4128,6.3436,6.2288,6.1489,6.0979,6.0337,5.9948,5.9766,5.9499,5.9261,5.9153,5.9099,5.9099,5.9099,5.9099,5.9099,5.9099,5.9099,5.9099,5.9099,5.9099,5.9099,5.9099,5.9099,5.9099,5.9099,5.9099,5.9099,5.9099,5.9099,5.9099,5.9099,5.9099,5.9099,5.9153,5.9207,5.9315,5.9529,5.9636,5.9796,5.9955,6.0197,6.0302,6.0429,6.0534,6.0638,6.0638,6.0773,6.0824,6.0948,6.0917,6.099,6.1687,6.1714,6.1277,6.209,6.3434,6.4031,6.4262,6.5426,6.6192,6.6525,6.6812,6.6812,6.6812,6.6812,6.6812,6.6812,6.6812,6.6812,6.6812,6.6812,6.6812,6.6812,6.6812,6.1119,6.1554,6.1424,6.1252,6.1119,6.1119,6.1185,6.1351,6.1881,6.2321,6.2553,6.2586,6.3272,6.3968,6.4531,6.4929,6.5194,6.5194,6.5359,6.4955,6.4577,6.4453,6.436,6.4268,6.4175,6.3941,6.3847,6.3941,6.4081,6.436,6.4235,6.3768,6.3483,6.3244,6.2583,6.2306,6.2306,6.24,6.2383,6.2347,6.2414,6.227,6.1235,6.0494,6.0053,6.0106,5.9446,5.9099,5.9099,5.9099,5.9099,5.9099,5.9099,5.9099,5.9099,5.9099,5.9099,5.9099,5.9099,5.9099,5.9099,5.9099,5.9099,5.9099,5.9099,5.9099,5.9099,5.9129,5.9129,5.9129,5.9129,5.9099,5.9099,5.9129,5.9129,5.9159,5.9267,5.9375,5.9429,5.9536,5.9697,5.994,6.01,6.0228,6.0386,6.0438,6.0595,6.073,6.0926,6.1225,6.1348,6.1317,6.1608,6.1423,6.0938,6.1671,6.2988,6.3132,6.3466,6.5248,6.6525,6.6643,6.6728,6.6812,6.6812,6.6812,6.6812,6.6812,6.6812,6.6812,6.6812,6.6812,6.6812,6.6812,6.6812,6.071,6.1244,6.1169,6.1161,6.1119,6.1119,6.145,6.1989,6.2113,6.2818,6.3637,6.3978,6.4233,6.4399,6.4995,6.5315,6.5281,6.5336,6.4715,6.4175,6.4221,6.3782,6.3451,6.3388,6.38,6.3483,6.3052,6.3148,6.3196,6.3068,6.2843,6.2632,6.2632,6.2485,6.2418,6.2171,6.2066,6.2205,6.2449,6.2484,6.199,6.1854,6.1602,6.0979,6.0546,6.0,5.9392,5.9153,5.9099,5.9099,5.9099,5.9099,5.9099,5.9099,5.9099,5.9099,5.9099,5.9099,5.9099,5.9099,5.9099,5.9099,5.9099,5.9099,5.9099,5.9099,5.9159,5.9219,5.9219,5.9159,5.9159,5.9129,5.9129,5.9189,5.9219,5.9279,5.9393,5.9393,5.9477,5.9585,5.9693,5.9801,5.9908,6.0069,6.0312,6.0418,6.063,6.088,6.1331,6.1528,6.1809,6.1809,6.1809,6.1317,6.0948,6.1052,6.1872,6.2072,6.268,6.4401,6.5724,6.6482,6.661,6.6728,6.6812,6.6812,6.6812,6.6812,6.6812,6.6812,6.6812,6.6812,6.6812,6.6812,6.6812]}]]